<?xml version="1.0" encoding="UTF-8" standalone="no" ?>
<gpx xmlns="http://www.topografix.com/GPX/1/1" xmlns:xsi="http://www.w3.org/2001/XMLSchema-instance" xsi:schemaLocation="http://www.topografix.com/GPX/1/1 http://www.topografix.com/GPX/1/1/gpx.xsd" version="1.1" creator="VisuGPX - https://www.visugpx.com">
  <metadata>
    <name>Mont Afrique</name>
    <desc><![CDATA[Mon Afrique via Sage ]]></desc>
  </metadata>
  <trk>
    <name><![CDATA[Mont Afrique Corcelles]]></name>
    <trkseg>
      <trkpt lat="47.29796" lon="4.93629">
        <ele>501.79998779297</ele>
        <time>2014-10-17T13:18:01.000Z</time>
      </trkpt>
      <trkpt lat="47.29801" lon="4.93616">
        <ele>503.39999389648</ele>
        <time>2014-10-17T13:18:07.000Z</time>
      </trkpt>
      <trkpt lat="47.29802" lon="4.93614">
        <ele>503.60000610352</ele>
        <time>2014-10-17T13:18:08.000Z</time>
      </trkpt>
      <trkpt lat="47.29809" lon="4.93603">
        <ele>505.20001220703</ele>
        <time>2014-10-17T13:18:15.000Z</time>
      </trkpt>
      <trkpt lat="47.29814" lon="4.93594">
        <ele>506.60000610352</ele>
        <time>2014-10-17T13:18:20.000Z</time>
      </trkpt>
      <trkpt lat="47.2982" lon="4.93584">
        <ele>508</ele>
        <time>2014-10-17T13:18:27.000Z</time>
      </trkpt>
      <trkpt lat="47.29821" lon="4.9358">
        <ele>508.60000610352</ele>
        <time>2014-10-17T13:18:29.000Z</time>
      </trkpt>
      <trkpt lat="47.29828" lon="4.93575">
        <ele>508.79998779297</ele>
        <time>2014-10-17T13:18:35.000Z</time>
      </trkpt>
      <trkpt lat="47.29831" lon="4.93567">
        <ele>510</ele>
        <time>2014-10-17T13:18:40.000Z</time>
      </trkpt>
      <trkpt lat="47.29834" lon="4.93564">
        <ele>510.39999389648</ele>
        <time>2014-10-17T13:18:42.000Z</time>
      </trkpt>
      <trkpt lat="47.29839" lon="4.93556">
        <ele>511.60000610352</ele>
        <time>2014-10-17T13:18:48.000Z</time>
      </trkpt>
      <trkpt lat="47.29846" lon="4.93549">
        <ele>511</ele>
        <time>2014-10-17T13:18:53.000Z</time>
      </trkpt>
      <trkpt lat="47.2985" lon="4.93548">
        <ele>510</ele>
        <time>2014-10-17T13:18:55.000Z</time>
      </trkpt>
      <trkpt lat="47.29855" lon="4.93545">
        <ele>509</ele>
        <time>2014-10-17T13:18:58.000Z</time>
      </trkpt>
      <trkpt lat="47.29861" lon="4.93536">
        <ele>508.39999389648</ele>
        <time>2014-10-17T13:19:04.000Z</time>
      </trkpt>
      <trkpt lat="47.29864" lon="4.93534">
        <ele>508.20001220703</ele>
        <time>2014-10-17T13:19:06.000Z</time>
      </trkpt>
      <trkpt lat="47.2987" lon="4.93527">
        <ele>507.39999389648</ele>
        <time>2014-10-17T13:19:10.000Z</time>
      </trkpt>
      <trkpt lat="47.29879" lon="4.9352">
        <ele>506</ele>
        <time>2014-10-17T13:19:16.000Z</time>
      </trkpt>
      <trkpt lat="47.29884" lon="4.93518">
        <ele>505</ele>
        <time>2014-10-17T13:19:18.000Z</time>
      </trkpt>
      <trkpt lat="47.29894" lon="4.9351">
        <ele>503.39999389648</ele>
        <time>2014-10-17T13:19:24.000Z</time>
      </trkpt>
      <trkpt lat="47.29896" lon="4.93504">
        <ele>503.60000610352</ele>
        <time>2014-10-17T13:19:27.000Z</time>
      </trkpt>
      <trkpt lat="47.29897" lon="4.93503">
        <ele>503.60000610352</ele>
        <time>2014-10-17T13:19:28.000Z</time>
      </trkpt>
      <trkpt lat="47.29902" lon="4.93494">
        <ele>504</ele>
        <time>2014-10-17T13:19:32.000Z</time>
      </trkpt>
      <trkpt lat="47.29906" lon="4.93485">
        <ele>504.20001220703</ele>
        <time>2014-10-17T13:19:37.000Z</time>
      </trkpt>
      <trkpt lat="47.2991" lon="4.9348">
        <ele>504</ele>
        <time>2014-10-17T13:19:40.000Z</time>
      </trkpt>
      <trkpt lat="47.29916" lon="4.93473">
        <ele>503.79998779297</ele>
        <time>2014-10-17T13:19:44.000Z</time>
      </trkpt>
      <trkpt lat="47.29921" lon="4.93464">
        <ele>504.60000610352</ele>
        <time>2014-10-17T13:19:50.000Z</time>
      </trkpt>
      <trkpt lat="47.29928" lon="4.93453">
        <ele>503.60000610352</ele>
        <time>2014-10-17T13:19:56.000Z</time>
      </trkpt>
      <trkpt lat="47.29932" lon="4.93447">
        <ele>503</ele>
        <time>2014-10-17T13:20:00.000Z</time>
      </trkpt>
      <trkpt lat="47.29939" lon="4.93436">
        <ele>502.60000610352</ele>
        <time>2014-10-17T13:20:07.000Z</time>
      </trkpt>
      <trkpt lat="47.2994" lon="4.93435">
        <ele>502.39999389648</ele>
        <time>2014-10-17T13:20:08.000Z</time>
      </trkpt>
      <trkpt lat="47.29942" lon="4.9342">
        <ele>503.60000610352</ele>
        <time>2014-10-17T13:20:14.000Z</time>
      </trkpt>
      <trkpt lat="47.29944" lon="4.93413">
        <ele>503.79998779297</ele>
        <time>2014-10-17T13:20:18.000Z</time>
      </trkpt>
      <trkpt lat="47.29947" lon="4.93405">
        <ele>504</ele>
        <time>2014-10-17T13:20:22.000Z</time>
      </trkpt>
      <trkpt lat="47.29948" lon="4.93396">
        <ele>504.39999389648</ele>
        <time>2014-10-17T13:20:26.000Z</time>
      </trkpt>
      <trkpt lat="47.29951" lon="4.93384">
        <ele>504.60000610352</ele>
        <time>2014-10-17T13:20:31.000Z</time>
      </trkpt>
      <trkpt lat="47.29955" lon="4.93376">
        <ele>504</ele>
        <time>2014-10-17T13:20:35.000Z</time>
      </trkpt>
      <trkpt lat="47.29956" lon="4.93365">
        <ele>504.20001220703</ele>
        <time>2014-10-17T13:20:39.000Z</time>
      </trkpt>
      <trkpt lat="47.29958" lon="4.93354">
        <ele>504.60000610352</ele>
        <time>2014-10-17T13:20:43.000Z</time>
      </trkpt>
      <trkpt lat="47.29958" lon="4.93351">
        <ele>504.60000610352</ele>
        <time>2014-10-17T13:20:44.000Z</time>
      </trkpt>
      <trkpt lat="47.29961" lon="4.93341">
        <ele>504.39999389648</ele>
        <time>2014-10-17T13:20:48.000Z</time>
      </trkpt>
      <trkpt lat="47.29964" lon="4.93327">
        <ele>503.79998779297</ele>
        <time>2014-10-17T13:20:54.000Z</time>
      </trkpt>
      <trkpt lat="47.29967" lon="4.93317">
        <ele>503</ele>
        <time>2014-10-17T13:20:59.000Z</time>
      </trkpt>
      <trkpt lat="47.2997" lon="4.93307">
        <ele>502.20001220703</ele>
        <time>2014-10-17T13:21:04.000Z</time>
      </trkpt>
      <trkpt lat="47.2997" lon="4.93295">
        <ele>502.60000610352</ele>
        <time>2014-10-17T13:21:09.000Z</time>
      </trkpt>
      <trkpt lat="47.29971" lon="4.93283">
        <ele>503</ele>
        <time>2014-10-17T13:21:14.000Z</time>
      </trkpt>
      <trkpt lat="47.29972" lon="4.93275">
        <ele>503.39999389648</ele>
        <time>2014-10-17T13:21:18.000Z</time>
      </trkpt>
      <trkpt lat="47.29973" lon="4.93273">
        <ele>503.39999389648</ele>
        <time>2014-10-17T13:21:19.000Z</time>
      </trkpt>
      <trkpt lat="47.29973" lon="4.93267">
        <ele>503.79998779297</ele>
        <time>2014-10-17T13:21:21.000Z</time>
      </trkpt>
      <trkpt lat="47.29975" lon="4.93249">
        <ele>504.20001220703</ele>
        <time>2014-10-17T13:21:29.000Z</time>
      </trkpt>
      <trkpt lat="47.29976" lon="4.93242">
        <ele>504</ele>
        <time>2014-10-17T13:21:32.000Z</time>
      </trkpt>
      <trkpt lat="47.29978" lon="4.93234">
        <ele>503.79998779297</ele>
        <time>2014-10-17T13:21:36.000Z</time>
      </trkpt>
      <trkpt lat="47.29978" lon="4.9323">
        <ele>504</ele>
        <time>2014-10-17T13:21:38.000Z</time>
      </trkpt>
      <trkpt lat="47.2998" lon="4.93218">
        <ele>503.79998779297</ele>
        <time>2014-10-17T13:21:44.000Z</time>
      </trkpt>
      <trkpt lat="47.2998" lon="4.93208">
        <ele>504.39999389648</ele>
        <time>2014-10-17T13:21:48.000Z</time>
      </trkpt>
      <trkpt lat="47.29982" lon="4.93193">
        <ele>505.79998779297</ele>
        <time>2014-10-17T13:21:54.000Z</time>
      </trkpt>
      <trkpt lat="47.29983" lon="4.93183">
        <ele>507.20001220703</ele>
        <time>2014-10-17T13:21:58.000Z</time>
      </trkpt>
      <trkpt lat="47.29985" lon="4.9317">
        <ele>508.60000610352</ele>
        <time>2014-10-17T13:22:03.000Z</time>
      </trkpt>
      <trkpt lat="47.29986" lon="4.93168">
        <ele>508.60000610352</ele>
        <time>2014-10-17T13:22:04.000Z</time>
      </trkpt>
      <trkpt lat="47.29987" lon="4.93166">
        <ele>508.79998779297</ele>
        <time>2014-10-17T13:22:05.000Z</time>
      </trkpt>
      <trkpt lat="47.29989" lon="4.93158">
        <ele>509.39999389648</ele>
        <time>2014-10-17T13:22:09.000Z</time>
      </trkpt>
      <trkpt lat="47.29994" lon="4.93149">
        <ele>509.20001220703</ele>
        <time>2014-10-17T13:22:15.000Z</time>
      </trkpt>
      <trkpt lat="47.29995" lon="4.93148">
        <ele>509.20001220703</ele>
        <time>2014-10-17T13:22:16.000Z</time>
      </trkpt>
      <trkpt lat="47.29997" lon="4.93147">
        <ele>509</ele>
        <time>2014-10-17T13:22:17.000Z</time>
      </trkpt>
      <trkpt lat="47.30005" lon="4.93125">
        <ele>510.39999389648</ele>
        <time>2014-10-17T13:22:27.000Z</time>
      </trkpt>
      <trkpt lat="47.30009" lon="4.93117">
        <ele>510.39999389648</ele>
        <time>2014-10-17T13:22:31.000Z</time>
      </trkpt>
      <trkpt lat="47.30011" lon="4.93107">
        <ele>511.60000610352</ele>
        <time>2014-10-17T13:22:35.000Z</time>
      </trkpt>
      <trkpt lat="47.30017" lon="4.93092">
        <ele>512</ele>
        <time>2014-10-17T13:22:42.000Z</time>
      </trkpt>
      <trkpt lat="47.3002" lon="4.93086">
        <ele>512.20001220703</ele>
        <time>2014-10-17T13:22:45.000Z</time>
      </trkpt>
      <trkpt lat="47.30023" lon="4.9307">
        <ele>513.79998779297</ele>
        <time>2014-10-17T13:22:51.000Z</time>
      </trkpt>
      <trkpt lat="47.30029" lon="4.93053">
        <ele>513.59997558594</ele>
        <time>2014-10-17T13:22:58.000Z</time>
      </trkpt>
      <trkpt lat="47.30031" lon="4.93048">
        <ele>513.79998779297</ele>
        <time>2014-10-17T13:23:00.000Z</time>
      </trkpt>
      <trkpt lat="47.30034" lon="4.93037">
        <ele>513.79998779297</ele>
        <time>2014-10-17T13:23:04.000Z</time>
      </trkpt>
      <trkpt lat="47.30039" lon="4.93016">
        <ele>513</ele>
        <time>2014-10-17T13:23:12.000Z</time>
      </trkpt>
      <trkpt lat="47.30043" lon="4.93008">
        <ele>512</ele>
        <time>2014-10-17T13:23:16.000Z</time>
      </trkpt>
      <trkpt lat="47.30052" lon="4.92976">
        <ele>508.39999389648</ele>
        <time>2014-10-17T13:23:29.000Z</time>
      </trkpt>
      <trkpt lat="47.30054" lon="4.92962">
        <ele>507.79998779297</ele>
        <time>2014-10-17T13:23:34.000Z</time>
      </trkpt>
      <trkpt lat="47.30056" lon="4.92944">
        <ele>505.79998779297</ele>
        <time>2014-10-17T13:23:41.000Z</time>
      </trkpt>
      <trkpt lat="47.30057" lon="4.92937">
        <ele>504.60000610352</ele>
        <time>2014-10-17T13:23:44.000Z</time>
      </trkpt>
      <trkpt lat="47.30056" lon="4.92919">
        <ele>503.60000610352</ele>
        <time>2014-10-17T13:23:51.000Z</time>
      </trkpt>
      <trkpt lat="47.30056" lon="4.9291">
        <ele>503</ele>
        <time>2014-10-17T13:23:55.000Z</time>
      </trkpt>
      <trkpt lat="47.30055" lon="4.9289">
        <ele>501.60000610352</ele>
        <time>2014-10-17T13:24:03.000Z</time>
      </trkpt>
      <trkpt lat="47.30054" lon="4.92878">
        <ele>501.20001220703</ele>
        <time>2014-10-17T13:24:08.000Z</time>
      </trkpt>
      <trkpt lat="47.30052" lon="4.92854">
        <ele>500</ele>
        <time>2014-10-17T13:24:18.000Z</time>
      </trkpt>
      <trkpt lat="47.30051" lon="4.92839">
        <ele>499.60000610352</ele>
        <time>2014-10-17T13:24:24.000Z</time>
      </trkpt>
      <trkpt lat="47.30049" lon="4.92823">
        <ele>499.20001220703</ele>
        <time>2014-10-17T13:24:30.000Z</time>
      </trkpt>
      <trkpt lat="47.30046" lon="4.92802">
        <ele>499</ele>
        <time>2014-10-17T13:24:37.000Z</time>
      </trkpt>
      <trkpt lat="47.30045" lon="4.92789">
        <ele>498.79998779297</ele>
        <time>2014-10-17T13:24:42.000Z</time>
      </trkpt>
      <trkpt lat="47.30043" lon="4.92776">
        <ele>497.60000610352</ele>
        <time>2014-10-17T13:24:47.000Z</time>
      </trkpt>
      <trkpt lat="47.30039" lon="4.92762">
        <ele>497.20001220703</ele>
        <time>2014-10-17T13:24:52.000Z</time>
      </trkpt>
      <trkpt lat="47.30037" lon="4.92751">
        <ele>496.20001220703</ele>
        <time>2014-10-17T13:24:56.000Z</time>
      </trkpt>
      <trkpt lat="47.30035" lon="4.9274">
        <ele>496.20001220703</ele>
        <time>2014-10-17T13:25:00.000Z</time>
      </trkpt>
      <trkpt lat="47.30033" lon="4.92732">
        <ele>496.20001220703</ele>
        <time>2014-10-17T13:25:03.000Z</time>
      </trkpt>
      <trkpt lat="47.30031" lon="4.92722">
        <ele>496.39999389648</ele>
        <time>2014-10-17T13:25:07.000Z</time>
      </trkpt>
      <trkpt lat="47.30026" lon="4.92706">
        <ele>497</ele>
        <time>2014-10-17T13:25:14.000Z</time>
      </trkpt>
      <trkpt lat="47.30026" lon="4.92704">
        <ele>497</ele>
        <time>2014-10-17T13:25:15.000Z</time>
      </trkpt>
      <trkpt lat="47.30024" lon="4.92692">
        <ele>496.60000610352</ele>
        <time>2014-10-17T13:25:20.000Z</time>
      </trkpt>
      <trkpt lat="47.30022" lon="4.92687">
        <ele>496.79998779297</ele>
        <time>2014-10-17T13:25:22.000Z</time>
      </trkpt>
      <trkpt lat="47.30016" lon="4.9267">
        <ele>497</ele>
        <time>2014-10-17T13:25:29.000Z</time>
      </trkpt>
      <trkpt lat="47.30015" lon="4.92668">
        <ele>497.20001220703</ele>
        <time>2014-10-17T13:25:30.000Z</time>
      </trkpt>
      <trkpt lat="47.30012" lon="4.92653">
        <ele>496.79998779297</ele>
        <time>2014-10-17T13:25:36.000Z</time>
      </trkpt>
      <trkpt lat="47.30011" lon="4.9265">
        <ele>496.79998779297</ele>
        <time>2014-10-17T13:25:37.000Z</time>
      </trkpt>
      <trkpt lat="47.30008" lon="4.92636">
        <ele>496.79998779297</ele>
        <time>2014-10-17T13:25:43.000Z</time>
      </trkpt>
      <trkpt lat="47.30007" lon="4.92634">
        <ele>496.79998779297</ele>
        <time>2014-10-17T13:25:44.000Z</time>
      </trkpt>
      <trkpt lat="47.30003" lon="4.92625">
        <ele>497.39999389648</ele>
        <time>2014-10-17T13:25:49.000Z</time>
      </trkpt>
      <trkpt lat="47.30002" lon="4.92623">
        <ele>497.39999389648</ele>
        <time>2014-10-17T13:25:50.000Z</time>
      </trkpt>
      <trkpt lat="47.29995" lon="4.92608">
        <ele>497</ele>
        <time>2014-10-17T13:25:57.000Z</time>
      </trkpt>
      <trkpt lat="47.2999" lon="4.92596">
        <ele>496.39999389648</ele>
        <time>2014-10-17T13:26:03.000Z</time>
      </trkpt>
      <trkpt lat="47.29985" lon="4.92586">
        <ele>495.79998779297</ele>
        <time>2014-10-17T13:26:08.000Z</time>
      </trkpt>
      <trkpt lat="47.29978" lon="4.92578">
        <ele>496</ele>
        <time>2014-10-17T13:26:13.000Z</time>
      </trkpt>
      <trkpt lat="47.29977" lon="4.92577">
        <ele>496.20001220703</ele>
        <time>2014-10-17T13:26:14.000Z</time>
      </trkpt>
      <trkpt lat="47.29972" lon="4.92566">
        <ele>495.60000610352</ele>
        <time>2014-10-17T13:26:19.000Z</time>
      </trkpt>
      <trkpt lat="47.29968" lon="4.92549">
        <ele>493.79998779297</ele>
        <time>2014-10-17T13:26:26.000Z</time>
      </trkpt>
      <trkpt lat="47.29967" lon="4.9254">
        <ele>492.60000610352</ele>
        <time>2014-10-17T13:26:31.000Z</time>
      </trkpt>
      <trkpt lat="47.29967" lon="4.92534">
        <ele>492</ele>
        <time>2014-10-17T13:26:39.000Z</time>
      </trkpt>
      <trkpt lat="47.29965" lon="4.92517">
        <ele>490.39999389648</ele>
        <time>2014-10-17T13:27:10.000Z</time>
      </trkpt>
      <trkpt lat="47.29961" lon="4.92509">
        <ele>490</ele>
        <time>2014-10-17T13:27:20.000Z</time>
      </trkpt>
      <trkpt lat="47.29959" lon="4.92496">
        <ele>488.60000610352</ele>
        <time>2014-10-17T13:27:28.000Z</time>
      </trkpt>
      <trkpt lat="47.29959" lon="4.92495">
        <ele>488.60000610352</ele>
        <time>2014-10-17T13:27:29.000Z</time>
      </trkpt>
      <trkpt lat="47.29957" lon="4.92491">
        <ele>488.20001220703</ele>
        <time>2014-10-17T13:27:32.000Z</time>
      </trkpt>
      <trkpt lat="47.29955" lon="4.92479">
        <ele>487</ele>
        <time>2014-10-17T13:27:39.000Z</time>
      </trkpt>
      <trkpt lat="47.29951" lon="4.92468">
        <ele>486</ele>
        <time>2014-10-17T13:27:45.000Z</time>
      </trkpt>
      <trkpt lat="47.29946" lon="4.92453">
        <ele>485</ele>
        <time>2014-10-17T13:27:53.000Z</time>
      </trkpt>
      <trkpt lat="47.29942" lon="4.92441">
        <ele>484.79998779297</ele>
        <time>2014-10-17T13:28:00.000Z</time>
      </trkpt>
      <trkpt lat="47.29939" lon="4.92431">
        <ele>484.39999389648</ele>
        <time>2014-10-17T13:28:06.000Z</time>
      </trkpt>
      <trkpt lat="47.29933" lon="4.92418">
        <ele>484.20001220703</ele>
        <time>2014-10-17T13:28:13.000Z</time>
      </trkpt>
      <trkpt lat="47.29932" lon="4.92415">
        <ele>484.20001220703</ele>
        <time>2014-10-17T13:28:15.000Z</time>
      </trkpt>
      <trkpt lat="47.29924" lon="4.92398">
        <ele>484.20001220703</ele>
        <time>2014-10-17T13:28:24.000Z</time>
      </trkpt>
      <trkpt lat="47.29917" lon="4.9238">
        <ele>484</ele>
        <time>2014-10-17T13:28:33.000Z</time>
      </trkpt>
      <trkpt lat="47.29912" lon="4.92366">
        <ele>483.39999389648</ele>
        <time>2014-10-17T13:28:40.000Z</time>
      </trkpt>
      <trkpt lat="47.29907" lon="4.92353">
        <ele>482.39999389648</ele>
        <time>2014-10-17T13:28:46.000Z</time>
      </trkpt>
      <trkpt lat="47.29903" lon="4.92337">
        <ele>481.39999389648</ele>
        <time>2014-10-17T13:28:53.000Z</time>
      </trkpt>
      <trkpt lat="47.29899" lon="4.92321">
        <ele>480</ele>
        <time>2014-10-17T13:29:00.000Z</time>
      </trkpt>
      <trkpt lat="47.29895" lon="4.92306">
        <ele>478.79998779297</ele>
        <time>2014-10-17T13:29:07.000Z</time>
      </trkpt>
      <trkpt lat="47.29894" lon="4.92302">
        <ele>478.60000610352</ele>
        <time>2014-10-17T13:29:09.000Z</time>
      </trkpt>
      <trkpt lat="47.29893" lon="4.92297">
        <ele>478.20001220703</ele>
        <time>2014-10-17T13:29:22.000Z</time>
      </trkpt>
      <trkpt lat="47.29892" lon="4.92291">
        <ele>477.79998779297</ele>
        <time>2014-10-17T13:29:39.000Z</time>
      </trkpt>
      <trkpt lat="47.29888" lon="4.92284">
        <ele>477.20001220703</ele>
        <time>2014-10-17T13:29:45.000Z</time>
      </trkpt>
      <trkpt lat="47.29885" lon="4.92271">
        <ele>475.39999389648</ele>
        <time>2014-10-17T13:29:52.000Z</time>
      </trkpt>
      <trkpt lat="47.29883" lon="4.92262">
        <ele>474</ele>
        <time>2014-10-17T13:29:56.000Z</time>
      </trkpt>
      <trkpt lat="47.29879" lon="4.92247">
        <ele>472</ele>
        <time>2014-10-17T13:30:04.000Z</time>
      </trkpt>
      <trkpt lat="47.29876" lon="4.92237">
        <ele>470.79998779297</ele>
        <time>2014-10-17T13:30:08.000Z</time>
      </trkpt>
      <trkpt lat="47.29871" lon="4.92219">
        <ele>468.39999389648</ele>
        <time>2014-10-17T13:30:18.000Z</time>
      </trkpt>
      <trkpt lat="47.2987" lon="4.92217">
        <ele>468</ele>
        <time>2014-10-17T13:30:19.000Z</time>
      </trkpt>
      <trkpt lat="47.29868" lon="4.9221">
        <ele>467.20001220703</ele>
        <time>2014-10-17T13:30:24.000Z</time>
      </trkpt>
      <trkpt lat="47.29867" lon="4.92204">
        <ele>466.39999389648</ele>
        <time>2014-10-17T13:30:29.000Z</time>
      </trkpt>
      <trkpt lat="47.29865" lon="4.92197">
        <ele>465.39999389648</ele>
        <time>2014-10-17T13:30:34.000Z</time>
      </trkpt>
      <trkpt lat="47.29864" lon="4.92191">
        <ele>464.60000610352</ele>
        <time>2014-10-17T13:30:39.000Z</time>
      </trkpt>
      <trkpt lat="47.29863" lon="4.92187">
        <ele>464.20001220703</ele>
        <time>2014-10-17T13:30:42.000Z</time>
      </trkpt>
      <trkpt lat="47.29862" lon="4.92178">
        <ele>462.79998779297</ele>
        <time>2014-10-17T13:30:48.000Z</time>
      </trkpt>
      <trkpt lat="47.29862" lon="4.92174">
        <ele>462.20001220703</ele>
        <time>2014-10-17T13:30:51.000Z</time>
      </trkpt>
      <trkpt lat="47.29861" lon="4.92171">
        <ele>461.79998779297</ele>
        <time>2014-10-17T13:30:53.000Z</time>
      </trkpt>
      <trkpt lat="47.29858" lon="4.92159">
        <ele>460.20001220703</ele>
        <time>2014-10-17T13:31:01.000Z</time>
      </trkpt>
      <trkpt lat="47.29858" lon="4.92158">
        <ele>460</ele>
        <time>2014-10-17T13:31:02.000Z</time>
      </trkpt>
      <trkpt lat="47.29856" lon="4.92152">
        <ele>459.39999389648</ele>
        <time>2014-10-17T13:31:06.000Z</time>
      </trkpt>
      <trkpt lat="47.2985" lon="4.92139">
        <ele>458.39999389648</ele>
        <time>2014-10-17T13:31:15.000Z</time>
      </trkpt>
      <trkpt lat="47.29846" lon="4.92127">
        <ele>457.39999389648</ele>
        <time>2014-10-17T13:31:22.000Z</time>
      </trkpt>
      <trkpt lat="47.29846" lon="4.92123">
        <ele>457</ele>
        <time>2014-10-17T13:31:24.000Z</time>
      </trkpt>
      <trkpt lat="47.29844" lon="4.92116">
        <ele>455.79998779297</ele>
        <time>2014-10-17T13:31:28.000Z</time>
      </trkpt>
      <trkpt lat="47.29842" lon="4.9211">
        <ele>454.79998779297</ele>
        <time>2014-10-17T13:31:33.000Z</time>
      </trkpt>
      <trkpt lat="47.29839" lon="4.92102">
        <ele>453.79998779297</ele>
        <time>2014-10-17T13:31:38.000Z</time>
      </trkpt>
      <trkpt lat="47.29836" lon="4.92093">
        <ele>452.39999389648</ele>
        <time>2014-10-17T13:31:44.000Z</time>
      </trkpt>
      <trkpt lat="47.29836" lon="4.92091">
        <ele>452</ele>
        <time>2014-10-17T13:31:45.000Z</time>
      </trkpt>
      <trkpt lat="47.29834" lon="4.92083">
        <ele>450.60000610352</ele>
        <time>2014-10-17T13:31:50.000Z</time>
      </trkpt>
      <trkpt lat="47.29833" lon="4.9208">
        <ele>450.20001220703</ele>
        <time>2014-10-17T13:31:52.000Z</time>
      </trkpt>
      <trkpt lat="47.29832" lon="4.9207">
        <ele>448.60000610352</ele>
        <time>2014-10-17T13:31:58.000Z</time>
      </trkpt>
      <trkpt lat="47.2983" lon="4.92067">
        <ele>448</ele>
        <time>2014-10-17T13:32:00.000Z</time>
      </trkpt>
      <trkpt lat="47.29828" lon="4.92061">
        <ele>446.79998779297</ele>
        <time>2014-10-17T13:32:06.000Z</time>
      </trkpt>
      <trkpt lat="47.29825" lon="4.92052">
        <ele>444.79998779297</ele>
        <time>2014-10-17T13:32:11.000Z</time>
      </trkpt>
      <trkpt lat="47.29821" lon="4.9204">
        <ele>442.20001220703</ele>
        <time>2014-10-17T13:32:18.000Z</time>
      </trkpt>
      <trkpt lat="47.2982" lon="4.92039">
        <ele>442</ele>
        <time>2014-10-17T13:32:19.000Z</time>
      </trkpt>
      <trkpt lat="47.29813" lon="4.92032">
        <ele>440</ele>
        <time>2014-10-17T13:32:26.000Z</time>
      </trkpt>
      <trkpt lat="47.29809" lon="4.9203">
        <ele>439.39999389648</ele>
        <time>2014-10-17T13:32:29.000Z</time>
      </trkpt>
      <trkpt lat="47.29803" lon="4.92024">
        <ele>437.79998779297</ele>
        <time>2014-10-17T13:32:35.000Z</time>
      </trkpt>
      <trkpt lat="47.29798" lon="4.92021">
        <ele>436.60000610352</ele>
        <time>2014-10-17T13:32:40.000Z</time>
      </trkpt>
      <trkpt lat="47.29796" lon="4.9202">
        <ele>436.39999389648</ele>
        <time>2014-10-17T13:32:41.000Z</time>
      </trkpt>
      <trkpt lat="47.29793" lon="4.92018">
        <ele>435.60000610352</ele>
        <time>2014-10-17T13:32:44.000Z</time>
      </trkpt>
      <trkpt lat="47.29788" lon="4.92015">
        <ele>434.79998779297</ele>
        <time>2014-10-17T13:32:49.000Z</time>
      </trkpt>
      <trkpt lat="47.29781" lon="4.92015">
        <ele>434.20001220703</ele>
        <time>2014-10-17T13:32:56.000Z</time>
      </trkpt>
      <trkpt lat="47.2978" lon="4.92014">
        <ele>434</ele>
        <time>2014-10-17T13:32:57.000Z</time>
      </trkpt>
      <trkpt lat="47.29775" lon="4.92014">
        <ele>433.79998779297</ele>
        <time>2014-10-17T13:33:01.000Z</time>
      </trkpt>
      <trkpt lat="47.29774" lon="4.92015">
        <ele>433.79998779297</ele>
        <time>2014-10-17T13:33:02.000Z</time>
      </trkpt>
      <trkpt lat="47.29769" lon="4.92015">
        <ele>433.60000610352</ele>
        <time>2014-10-17T13:33:06.000Z</time>
      </trkpt>
      <trkpt lat="47.29766" lon="4.92015">
        <ele>433.20001220703</ele>
        <time>2014-10-17T13:33:09.000Z</time>
      </trkpt>
      <trkpt lat="47.2976" lon="4.92016">
        <ele>433</ele>
        <time>2014-10-17T13:33:14.000Z</time>
      </trkpt>
      <trkpt lat="47.29754" lon="4.92019">
        <ele>433.20001220703</ele>
        <time>2014-10-17T13:33:20.000Z</time>
      </trkpt>
      <trkpt lat="47.29753" lon="4.9202">
        <ele>433.39999389648</ele>
        <time>2014-10-17T13:33:21.000Z</time>
      </trkpt>
      <trkpt lat="47.29752" lon="4.92021">
        <ele>433.39999389648</ele>
        <time>2014-10-17T13:33:23.000Z</time>
      </trkpt>
      <trkpt lat="47.29745" lon="4.92026">
        <ele>433.60000610352</ele>
        <time>2014-10-17T13:33:29.000Z</time>
      </trkpt>
      <trkpt lat="47.29741" lon="4.9203">
        <ele>433.39999389648</ele>
        <time>2014-10-17T13:33:34.000Z</time>
      </trkpt>
      <trkpt lat="47.29738" lon="4.92031">
        <ele>432.60000610352</ele>
        <time>2014-10-17T13:33:37.000Z</time>
      </trkpt>
      <trkpt lat="47.29731" lon="4.92033">
        <ele>432</ele>
        <time>2014-10-17T13:33:42.000Z</time>
      </trkpt>
      <trkpt lat="47.29724" lon="4.92035">
        <ele>431</ele>
        <time>2014-10-17T13:33:47.000Z</time>
      </trkpt>
      <trkpt lat="47.29718" lon="4.92037">
        <ele>430.20001220703</ele>
        <time>2014-10-17T13:33:51.000Z</time>
      </trkpt>
      <trkpt lat="47.29708" lon="4.92039">
        <ele>428.79998779297</ele>
        <time>2014-10-17T13:33:58.000Z</time>
      </trkpt>
      <trkpt lat="47.29706" lon="4.92039">
        <ele>428.39999389648</ele>
        <time>2014-10-17T13:33:59.000Z</time>
      </trkpt>
      <trkpt lat="47.29702" lon="4.92038">
        <ele>427.20001220703</ele>
        <time>2014-10-17T13:34:02.000Z</time>
      </trkpt>
      <trkpt lat="47.29695" lon="4.92039">
        <ele>426</ele>
        <time>2014-10-17T13:34:06.000Z</time>
      </trkpt>
      <trkpt lat="47.2969" lon="4.92041">
        <ele>425.60000610352</ele>
        <time>2014-10-17T13:34:10.000Z</time>
      </trkpt>
      <trkpt lat="47.29679" lon="4.92043">
        <ele>423.60000610352</ele>
        <time>2014-10-17T13:34:17.000Z</time>
      </trkpt>
      <trkpt lat="47.29678" lon="4.92044">
        <ele>423.60000610352</ele>
        <time>2014-10-17T13:34:18.000Z</time>
      </trkpt>
      <trkpt lat="47.29676" lon="4.92045">
        <ele>423.60000610352</ele>
        <time>2014-10-17T13:34:19.000Z</time>
      </trkpt>
      <trkpt lat="47.29669" lon="4.92047">
        <ele>422.60000610352</ele>
        <time>2014-10-17T13:34:24.000Z</time>
      </trkpt>
      <trkpt lat="47.29668" lon="4.92048">
        <ele>422.60000610352</ele>
        <time>2014-10-17T13:34:25.000Z</time>
      </trkpt>
      <trkpt lat="47.29661" lon="4.92051">
        <ele>423</ele>
        <time>2014-10-17T13:34:34.000Z</time>
      </trkpt>
      <trkpt lat="47.29655" lon="4.92052">
        <ele>424</ele>
        <time>2014-10-17T13:34:39.000Z</time>
      </trkpt>
      <trkpt lat="47.29645" lon="4.92056">
        <ele>425.79998779297</ele>
        <time>2014-10-17T13:34:46.000Z</time>
      </trkpt>
      <trkpt lat="47.2964" lon="4.92059">
        <ele>427.20001220703</ele>
        <time>2014-10-17T13:34:51.000Z</time>
      </trkpt>
      <trkpt lat="47.29638" lon="4.9206">
        <ele>427.60000610352</ele>
        <time>2014-10-17T13:34:53.000Z</time>
      </trkpt>
      <trkpt lat="47.29636" lon="4.92061">
        <ele>428.20001220703</ele>
        <time>2014-10-17T13:34:55.000Z</time>
      </trkpt>
      <trkpt lat="47.29628" lon="4.92063">
        <ele>429.20001220703</ele>
        <time>2014-10-17T13:35:01.000Z</time>
      </trkpt>
      <trkpt lat="47.29622" lon="4.92065">
        <ele>430.20001220703</ele>
        <time>2014-10-17T13:35:08.000Z</time>
      </trkpt>
      <trkpt lat="47.29617" lon="4.92067">
        <ele>431.20001220703</ele>
        <time>2014-10-17T13:35:13.000Z</time>
      </trkpt>
      <trkpt lat="47.29617" lon="4.92067">
        <ele>431.39999389648</ele>
        <time>2014-10-17T13:35:15.000Z</time>
      </trkpt>
      <trkpt lat="47.29616" lon="4.92068">
        <ele>431.60000610352</ele>
        <time>2014-10-17T13:35:16.000Z</time>
      </trkpt>
      <trkpt lat="47.29614" lon="4.92068">
        <ele>431.79998779297</ele>
        <time>2014-10-17T13:35:19.000Z</time>
      </trkpt>
      <trkpt lat="47.29606" lon="4.92067">
        <ele>432.20001220703</ele>
        <time>2014-10-17T13:35:24.000Z</time>
      </trkpt>
      <trkpt lat="47.29604" lon="4.92069">
        <ele>432.20001220703</ele>
        <time>2014-10-17T13:35:27.000Z</time>
      </trkpt>
      <trkpt lat="47.29599" lon="4.92068">
        <ele>431.79998779297</ele>
        <time>2014-10-17T13:35:31.000Z</time>
      </trkpt>
      <trkpt lat="47.29593" lon="4.92066">
        <ele>431.20001220703</ele>
        <time>2014-10-17T13:35:36.000Z</time>
      </trkpt>
      <trkpt lat="47.2959" lon="4.92066">
        <ele>431</ele>
        <time>2014-10-17T13:35:38.000Z</time>
      </trkpt>
      <trkpt lat="47.29589" lon="4.92066">
        <ele>430.79998779297</ele>
        <time>2014-10-17T13:35:39.000Z</time>
      </trkpt>
      <trkpt lat="47.29587" lon="4.92065">
        <ele>430.79998779297</ele>
        <time>2014-10-17T13:35:40.000Z</time>
      </trkpt>
      <trkpt lat="47.29583" lon="4.92062">
        <ele>430</ele>
        <time>2014-10-17T13:35:44.000Z</time>
      </trkpt>
      <trkpt lat="47.29579" lon="4.92059">
        <ele>429.79998779297</ele>
        <time>2014-10-17T13:35:47.000Z</time>
      </trkpt>
      <trkpt lat="47.29573" lon="4.92047">
        <ele>430.20001220703</ele>
        <time>2014-10-17T13:35:57.000Z</time>
      </trkpt>
      <trkpt lat="47.29573" lon="4.92045">
        <ele>430.20001220703</ele>
        <time>2014-10-17T13:35:59.000Z</time>
      </trkpt>
      <trkpt lat="47.29571" lon="4.92037">
        <ele>429.60000610352</ele>
        <time>2014-10-17T13:36:04.000Z</time>
      </trkpt>
      <trkpt lat="47.29569" lon="4.92031">
        <ele>429.39999389648</ele>
        <time>2014-10-17T13:36:06.000Z</time>
      </trkpt>
      <trkpt lat="47.29568" lon="4.92024">
        <ele>429.20001220703</ele>
        <time>2014-10-17T13:36:09.000Z</time>
      </trkpt>
      <trkpt lat="47.29568" lon="4.92008">
        <ele>427.39999389648</ele>
        <time>2014-10-17T13:36:16.000Z</time>
      </trkpt>
      <trkpt lat="47.29567" lon="4.92002">
        <ele>427</ele>
        <time>2014-10-17T13:36:19.000Z</time>
      </trkpt>
      <trkpt lat="47.29567" lon="4.91994">
        <ele>426.20001220703</ele>
        <time>2014-10-17T13:36:22.000Z</time>
      </trkpt>
      <trkpt lat="47.2957" lon="4.91983">
        <ele>424.20001220703</ele>
        <time>2014-10-17T13:36:27.000Z</time>
      </trkpt>
      <trkpt lat="47.29569" lon="4.91977">
        <ele>423.79998779297</ele>
        <time>2014-10-17T13:36:29.000Z</time>
      </trkpt>
      <trkpt lat="47.2957" lon="4.91973">
        <ele>423</ele>
        <time>2014-10-17T13:36:31.000Z</time>
      </trkpt>
      <trkpt lat="47.29571" lon="4.91965">
        <ele>421.79998779297</ele>
        <time>2014-10-17T13:36:36.000Z</time>
      </trkpt>
      <trkpt lat="47.29571" lon="4.91962">
        <ele>421.39999389648</ele>
        <time>2014-10-17T13:36:42.000Z</time>
      </trkpt>
      <trkpt lat="47.29572" lon="4.9196">
        <ele>421</ele>
        <time>2014-10-17T13:36:45.000Z</time>
      </trkpt>
      <trkpt lat="47.29574" lon="4.91953">
        <ele>419.20001220703</ele>
        <time>2014-10-17T13:36:50.000Z</time>
      </trkpt>
      <trkpt lat="47.29575" lon="4.91944">
        <ele>417.60000610352</ele>
        <time>2014-10-17T13:36:55.000Z</time>
      </trkpt>
      <trkpt lat="47.29576" lon="4.91942">
        <ele>417.20001220703</ele>
        <time>2014-10-17T13:36:56.000Z</time>
      </trkpt>
      <trkpt lat="47.29576" lon="4.91938">
        <ele>416.39999389648</ele>
        <time>2014-10-17T13:36:59.000Z</time>
      </trkpt>
      <trkpt lat="47.29578" lon="4.91935">
        <ele>415.79998779297</ele>
        <time>2014-10-17T13:37:01.000Z</time>
      </trkpt>
      <trkpt lat="47.29579" lon="4.91933">
        <ele>415.20001220703</ele>
        <time>2014-10-17T13:37:03.000Z</time>
      </trkpt>
      <trkpt lat="47.29579" lon="4.91918">
        <ele>413.20001220703</ele>
        <time>2014-10-17T13:37:09.000Z</time>
      </trkpt>
      <trkpt lat="47.2958" lon="4.91913">
        <ele>412.20001220703</ele>
        <time>2014-10-17T13:37:12.000Z</time>
      </trkpt>
      <trkpt lat="47.29581" lon="4.91906">
        <ele>411</ele>
        <time>2014-10-17T13:37:16.000Z</time>
      </trkpt>
      <trkpt lat="47.2958" lon="4.91896">
        <ele>410</ele>
        <time>2014-10-17T13:37:20.000Z</time>
      </trkpt>
      <trkpt lat="47.2958" lon="4.91895">
        <ele>409.79998779297</ele>
        <time>2014-10-17T13:37:21.000Z</time>
      </trkpt>
      <trkpt lat="47.29579" lon="4.91882">
        <ele>408.39999389648</ele>
        <time>2014-10-17T13:37:28.000Z</time>
      </trkpt>
      <trkpt lat="47.29578" lon="4.91878">
        <ele>408.20001220703</ele>
        <time>2014-10-17T13:37:31.000Z</time>
      </trkpt>
      <trkpt lat="47.29576" lon="4.91871">
        <ele>407.60000610352</ele>
        <time>2014-10-17T13:37:36.000Z</time>
      </trkpt>
      <trkpt lat="47.29575" lon="4.91869">
        <ele>407.60000610352</ele>
        <time>2014-10-17T13:37:38.000Z</time>
      </trkpt>
      <trkpt lat="47.29572" lon="4.91862">
        <ele>407.39999389648</ele>
        <time>2014-10-17T13:37:43.000Z</time>
      </trkpt>
      <trkpt lat="47.29571" lon="4.91859">
        <ele>407.39999389648</ele>
        <time>2014-10-17T13:37:45.000Z</time>
      </trkpt>
      <trkpt lat="47.29571" lon="4.91857">
        <ele>407</ele>
        <time>2014-10-17T13:37:48.000Z</time>
      </trkpt>
      <trkpt lat="47.29566" lon="4.91849">
        <ele>407.20001220703</ele>
        <time>2014-10-17T13:37:54.000Z</time>
      </trkpt>
      <trkpt lat="47.29565" lon="4.91848">
        <ele>407.20001220703</ele>
        <time>2014-10-17T13:37:55.000Z</time>
      </trkpt>
      <trkpt lat="47.29561" lon="4.91839">
        <ele>407.20001220703</ele>
        <time>2014-10-17T13:38:01.000Z</time>
      </trkpt>
      <trkpt lat="47.29559" lon="4.91835">
        <ele>407.20001220703</ele>
        <time>2014-10-17T13:38:03.000Z</time>
      </trkpt>
      <trkpt lat="47.29555" lon="4.9183">
        <ele>407.39999389648</ele>
        <time>2014-10-17T13:38:07.000Z</time>
      </trkpt>
      <trkpt lat="47.29551" lon="4.91825">
        <ele>408</ele>
        <time>2014-10-17T13:38:14.000Z</time>
      </trkpt>
      <trkpt lat="47.29549" lon="4.91821">
        <ele>407.79998779297</ele>
        <time>2014-10-17T13:38:21.000Z</time>
      </trkpt>
      <trkpt lat="47.29545" lon="4.91817">
        <ele>408.20001220703</ele>
        <time>2014-10-17T13:38:26.000Z</time>
      </trkpt>
      <trkpt lat="47.29537" lon="4.91809">
        <ele>409.20001220703</ele>
        <time>2014-10-17T13:38:33.000Z</time>
      </trkpt>
      <trkpt lat="47.29534" lon="4.91806">
        <ele>409.60000610352</ele>
        <time>2014-10-17T13:38:35.000Z</time>
      </trkpt>
      <trkpt lat="47.29527" lon="4.91801">
        <ele>410.60000610352</ele>
        <time>2014-10-17T13:38:40.000Z</time>
      </trkpt>
      <trkpt lat="47.29522" lon="4.91796">
        <ele>411.20001220703</ele>
        <time>2014-10-17T13:38:43.000Z</time>
      </trkpt>
      <trkpt lat="47.29516" lon="4.91791">
        <ele>412.20001220703</ele>
        <time>2014-10-17T13:38:47.000Z</time>
      </trkpt>
      <trkpt lat="47.2951" lon="4.91783">
        <ele>412.20001220703</ele>
        <time>2014-10-17T13:38:52.000Z</time>
      </trkpt>
      <trkpt lat="47.29505" lon="4.91776">
        <ele>411.79998779297</ele>
        <time>2014-10-17T13:38:56.000Z</time>
      </trkpt>
      <trkpt lat="47.29501" lon="4.91771">
        <ele>411.79998779297</ele>
        <time>2014-10-17T13:39:00.000Z</time>
      </trkpt>
      <trkpt lat="47.29494" lon="4.91759">
        <ele>410.79998779297</ele>
        <time>2014-10-17T13:39:07.000Z</time>
      </trkpt>
      <trkpt lat="47.29487" lon="4.9175">
        <ele>409.39999389648</ele>
        <time>2014-10-17T13:39:13.000Z</time>
      </trkpt>
      <trkpt lat="47.29486" lon="4.91748">
        <ele>409</ele>
        <time>2014-10-17T13:39:14.000Z</time>
      </trkpt>
      <trkpt lat="47.29482" lon="4.91744">
        <ele>408.60000610352</ele>
        <time>2014-10-17T13:39:17.000Z</time>
      </trkpt>
      <trkpt lat="47.29474" lon="4.91733">
        <ele>407</ele>
        <time>2014-10-17T13:39:24.000Z</time>
      </trkpt>
      <trkpt lat="47.29464" lon="4.91716">
        <ele>404.39999389648</ele>
        <time>2014-10-17T13:39:36.000Z</time>
      </trkpt>
      <trkpt lat="47.29462" lon="4.91712">
        <ele>403.60000610352</ele>
        <time>2014-10-17T13:39:39.000Z</time>
      </trkpt>
      <trkpt lat="47.29456" lon="4.91705">
        <ele>402.60000610352</ele>
        <time>2014-10-17T13:39:45.000Z</time>
      </trkpt>
      <trkpt lat="47.29452" lon="4.91699">
        <ele>401.39999389648</ele>
        <time>2014-10-17T13:39:49.000Z</time>
      </trkpt>
      <trkpt lat="47.2945" lon="4.91697">
        <ele>401.20001220703</ele>
        <time>2014-10-17T13:39:50.000Z</time>
      </trkpt>
      <trkpt lat="47.29442" lon="4.91688">
        <ele>400</ele>
        <time>2014-10-17T13:39:56.000Z</time>
      </trkpt>
      <trkpt lat="47.2944" lon="4.91687">
        <ele>399.79998779297</ele>
        <time>2014-10-17T13:39:57.000Z</time>
      </trkpt>
      <trkpt lat="47.29433" lon="4.9168">
        <ele>398.79998779297</ele>
        <time>2014-10-17T13:40:02.000Z</time>
      </trkpt>
      <trkpt lat="47.29432" lon="4.9168">
        <ele>398.79998779297</ele>
        <time>2014-10-17T13:40:03.000Z</time>
      </trkpt>
      <trkpt lat="47.29426" lon="4.91673">
        <ele>397.79998779297</ele>
        <time>2014-10-17T13:40:09.000Z</time>
      </trkpt>
      <trkpt lat="47.29418" lon="4.91668">
        <ele>397.20001220703</ele>
        <time>2014-10-17T13:40:15.000Z</time>
      </trkpt>
      <trkpt lat="47.29415" lon="4.91666">
        <ele>397.20001220703</ele>
        <time>2014-10-17T13:40:17.000Z</time>
      </trkpt>
      <trkpt lat="47.29413" lon="4.91664">
        <ele>396.79998779297</ele>
        <time>2014-10-17T13:40:19.000Z</time>
      </trkpt>
      <trkpt lat="47.29402" lon="4.91655">
        <ele>394.60000610352</ele>
        <time>2014-10-17T13:40:25.000Z</time>
      </trkpt>
      <trkpt lat="47.29393" lon="4.9165">
        <ele>393.20001220703</ele>
        <time>2014-10-17T13:40:30.000Z</time>
      </trkpt>
      <trkpt lat="47.29387" lon="4.91647">
        <ele>392.60000610352</ele>
        <time>2014-10-17T13:40:34.000Z</time>
      </trkpt>
      <trkpt lat="47.29382" lon="4.91644">
        <ele>391.60000610352</ele>
        <time>2014-10-17T13:40:38.000Z</time>
      </trkpt>
      <trkpt lat="47.29376" lon="4.91641">
        <ele>391</ele>
        <time>2014-10-17T13:40:43.000Z</time>
      </trkpt>
      <trkpt lat="47.29373" lon="4.91639">
        <ele>390.39999389648</ele>
        <time>2014-10-17T13:40:54.000Z</time>
      </trkpt>
      <trkpt lat="47.29371" lon="4.91638">
        <ele>390.20001220703</ele>
        <time>2014-10-17T13:41:00.000Z</time>
      </trkpt>
      <trkpt lat="47.2937" lon="4.91637">
        <ele>390</ele>
        <time>2014-10-17T13:41:06.000Z</time>
      </trkpt>
      <trkpt lat="47.29364" lon="4.91638">
        <ele>390</ele>
        <time>2014-10-17T13:41:11.000Z</time>
      </trkpt>
      <trkpt lat="47.29355" lon="4.91641">
        <ele>390.39999389648</ele>
        <time>2014-10-17T13:41:20.000Z</time>
      </trkpt>
      <trkpt lat="47.29354" lon="4.91641">
        <ele>390.20001220703</ele>
        <time>2014-10-17T13:41:21.000Z</time>
      </trkpt>
      <trkpt lat="47.29352" lon="4.91642">
        <ele>390.60000610352</ele>
        <time>2014-10-17T13:41:22.000Z</time>
      </trkpt>
      <trkpt lat="47.29348" lon="4.91642">
        <ele>390.60000610352</ele>
        <time>2014-10-17T13:41:26.000Z</time>
      </trkpt>
      <trkpt lat="47.29343" lon="4.91639">
        <ele>389.79998779297</ele>
        <time>2014-10-17T13:41:30.000Z</time>
      </trkpt>
      <trkpt lat="47.2934" lon="4.91636">
        <ele>389</ele>
        <time>2014-10-17T13:41:34.000Z</time>
      </trkpt>
      <trkpt lat="47.29338" lon="4.91634">
        <ele>388.60000610352</ele>
        <time>2014-10-17T13:41:37.000Z</time>
      </trkpt>
      <trkpt lat="47.29331" lon="4.91629">
        <ele>387.39999389648</ele>
        <time>2014-10-17T13:41:43.000Z</time>
      </trkpt>
      <trkpt lat="47.29326" lon="4.91625">
        <ele>386.60000610352</ele>
        <time>2014-10-17T13:41:46.000Z</time>
      </trkpt>
      <trkpt lat="47.29323" lon="4.91623">
        <ele>386.60000610352</ele>
        <time>2014-10-17T13:41:49.000Z</time>
      </trkpt>
      <trkpt lat="47.29315" lon="4.91618">
        <ele>387.20001220703</ele>
        <time>2014-10-17T13:41:55.000Z</time>
      </trkpt>
      <trkpt lat="47.29314" lon="4.91618">
        <ele>387.20001220703</ele>
        <time>2014-10-17T13:41:56.000Z</time>
      </trkpt>
      <trkpt lat="47.2931" lon="4.91618">
        <ele>387.60000610352</ele>
        <time>2014-10-17T13:42:00.000Z</time>
      </trkpt>
      <trkpt lat="47.29309" lon="4.91617">
        <ele>387.79998779297</ele>
        <time>2014-10-17T13:42:01.000Z</time>
      </trkpt>
      <trkpt lat="47.29302" lon="4.91616">
        <ele>388.20001220703</ele>
        <time>2014-10-17T13:42:06.000Z</time>
      </trkpt>
      <trkpt lat="47.29299" lon="4.91614">
        <ele>388.60000610352</ele>
        <time>2014-10-17T13:42:09.000Z</time>
      </trkpt>
      <trkpt lat="47.29292" lon="4.91613">
        <ele>389</ele>
        <time>2014-10-17T13:42:13.000Z</time>
      </trkpt>
      <trkpt lat="47.29287" lon="4.91609">
        <ele>389.39999389648</ele>
        <time>2014-10-17T13:42:17.000Z</time>
      </trkpt>
      <trkpt lat="47.29285" lon="4.91611">
        <ele>389.79998779297</ele>
        <time>2014-10-17T13:42:19.000Z</time>
      </trkpt>
      <trkpt lat="47.29281" lon="4.91609">
        <ele>390</ele>
        <time>2014-10-17T13:42:21.000Z</time>
      </trkpt>
      <trkpt lat="47.29272" lon="4.91608">
        <ele>390.79998779297</ele>
        <time>2014-10-17T13:42:26.000Z</time>
      </trkpt>
      <trkpt lat="47.2927" lon="4.91608">
        <ele>391</ele>
        <time>2014-10-17T13:42:28.000Z</time>
      </trkpt>
      <trkpt lat="47.29267" lon="4.91608">
        <ele>391.39999389648</ele>
        <time>2014-10-17T13:42:31.000Z</time>
      </trkpt>
      <trkpt lat="47.29262" lon="4.9161">
        <ele>391.79998779297</ele>
        <time>2014-10-17T13:42:36.000Z</time>
      </trkpt>
      <trkpt lat="47.29253" lon="4.91608">
        <ele>392.60000610352</ele>
        <time>2014-10-17T13:42:42.000Z</time>
      </trkpt>
      <trkpt lat="47.29251" lon="4.91608">
        <ele>392.79998779297</ele>
        <time>2014-10-17T13:42:43.000Z</time>
      </trkpt>
      <trkpt lat="47.29247" lon="4.91607">
        <ele>393.20001220703</ele>
        <time>2014-10-17T13:42:50.000Z</time>
      </trkpt>
      <trkpt lat="47.29246" lon="4.91603">
        <ele>393.20001220703</ele>
        <time>2014-10-17T13:42:58.000Z</time>
      </trkpt>
      <trkpt lat="47.29244" lon="4.91608">
        <ele>393.60000610352</ele>
        <time>2014-10-17T13:43:25.000Z</time>
      </trkpt>
      <trkpt lat="47.29245" lon="4.91605">
        <ele>393.39999389648</ele>
        <time>2014-10-17T13:43:32.000Z</time>
      </trkpt>
      <trkpt lat="47.29243" lon="4.91609">
        <ele>393.79998779297</ele>
        <time>2014-10-17T13:43:40.000Z</time>
      </trkpt>
      <trkpt lat="47.29241" lon="4.91614">
        <ele>394.39999389648</ele>
        <time>2014-10-17T13:43:45.000Z</time>
      </trkpt>
      <trkpt lat="47.29237" lon="4.91618">
        <ele>395.60000610352</ele>
        <time>2014-10-17T13:43:52.000Z</time>
      </trkpt>
      <trkpt lat="47.29236" lon="4.91621">
        <ele>396.39999389648</ele>
        <time>2014-10-17T13:43:56.000Z</time>
      </trkpt>
      <trkpt lat="47.29234" lon="4.91624">
        <ele>397.60000610352</ele>
        <time>2014-10-17T13:44:02.000Z</time>
      </trkpt>
      <trkpt lat="47.29231" lon="4.91627">
        <ele>398.79998779297</ele>
        <time>2014-10-17T13:44:08.000Z</time>
      </trkpt>
      <trkpt lat="47.29228" lon="4.91629">
        <ele>399.60000610352</ele>
        <time>2014-10-17T13:44:12.000Z</time>
      </trkpt>
      <trkpt lat="47.29224" lon="4.91636">
        <ele>401.79998779297</ele>
        <time>2014-10-17T13:44:24.000Z</time>
      </trkpt>
      <trkpt lat="47.29222" lon="4.91638">
        <ele>402.39999389648</ele>
        <time>2014-10-17T13:44:30.000Z</time>
      </trkpt>
      <trkpt lat="47.2922" lon="4.91639">
        <ele>403.39999389648</ele>
        <time>2014-10-17T13:44:40.000Z</time>
      </trkpt>
      <trkpt lat="47.29218" lon="4.91639">
        <ele>403.60000610352</ele>
        <time>2014-10-17T13:45:01.000Z</time>
      </trkpt>
      <trkpt lat="47.29214" lon="4.9164">
        <ele>404.79998779297</ele>
        <time>2014-10-17T13:45:37.000Z</time>
      </trkpt>
      <trkpt lat="47.29213" lon="4.91641">
        <ele>405.60000610352</ele>
        <time>2014-10-17T13:45:58.000Z</time>
      </trkpt>
      <trkpt lat="47.29212" lon="4.91641">
        <ele>405.60000610352</ele>
        <time>2014-10-17T13:46:04.000Z</time>
      </trkpt>
      <trkpt lat="47.29214" lon="4.91644">
        <ele>405.60000610352</ele>
        <time>2014-10-17T13:46:40.000Z</time>
      </trkpt>
      <trkpt lat="47.29214" lon="4.9165">
        <ele>406.39999389648</ele>
        <time>2014-10-17T13:46:54.000Z</time>
      </trkpt>
      <trkpt lat="47.29213" lon="4.91652">
        <ele>407</ele>
        <time>2014-10-17T13:46:57.000Z</time>
      </trkpt>
      <trkpt lat="47.2921" lon="4.91658">
        <ele>408.60000610352</ele>
        <time>2014-10-17T13:47:03.000Z</time>
      </trkpt>
      <trkpt lat="47.29208" lon="4.91661">
        <ele>409.39999389648</ele>
        <time>2014-10-17T13:47:06.000Z</time>
      </trkpt>
      <trkpt lat="47.29206" lon="4.91667">
        <ele>410.79998779297</ele>
        <time>2014-10-17T13:47:13.000Z</time>
      </trkpt>
      <trkpt lat="47.29207" lon="4.91669">
        <ele>411</ele>
        <time>2014-10-17T13:47:25.000Z</time>
      </trkpt>
      <trkpt lat="47.29206" lon="4.91673">
        <ele>411.60000610352</ele>
        <time>2014-10-17T13:47:31.000Z</time>
      </trkpt>
      <trkpt lat="47.29204" lon="4.91676">
        <ele>412.20001220703</ele>
        <time>2014-10-17T13:47:38.000Z</time>
      </trkpt>
      <trkpt lat="47.29204" lon="4.9168">
        <ele>412.79998779297</ele>
        <time>2014-10-17T13:47:41.000Z</time>
      </trkpt>
      <trkpt lat="47.29203" lon="4.91687">
        <ele>413.79998779297</ele>
        <time>2014-10-17T13:47:46.000Z</time>
      </trkpt>
      <trkpt lat="47.29199" lon="4.91693">
        <ele>415.39999389648</ele>
        <time>2014-10-17T13:47:52.000Z</time>
      </trkpt>
      <trkpt lat="47.29197" lon="4.91696">
        <ele>416.20001220703</ele>
        <time>2014-10-17T13:47:55.000Z</time>
      </trkpt>
      <trkpt lat="47.29191" lon="4.91704">
        <ele>418.39999389648</ele>
        <time>2014-10-17T13:48:03.000Z</time>
      </trkpt>
      <trkpt lat="47.2919" lon="4.91705">
        <ele>418.79998779297</ele>
        <time>2014-10-17T13:48:04.000Z</time>
      </trkpt>
      <trkpt lat="47.29187" lon="4.91709">
        <ele>420.20001220703</ele>
        <time>2014-10-17T13:48:08.000Z</time>
      </trkpt>
      <trkpt lat="47.29185" lon="4.91714">
        <ele>421.79998779297</ele>
        <time>2014-10-17T13:48:14.000Z</time>
      </trkpt>
      <trkpt lat="47.29181" lon="4.91718">
        <ele>423.60000610352</ele>
        <time>2014-10-17T13:48:23.000Z</time>
      </trkpt>
      <trkpt lat="47.29179" lon="4.91727">
        <ele>425.39999389648</ele>
        <time>2014-10-17T13:48:32.000Z</time>
      </trkpt>
      <trkpt lat="47.29176" lon="4.91733">
        <ele>426</ele>
        <time>2014-10-17T13:48:37.000Z</time>
      </trkpt>
      <trkpt lat="47.29175" lon="4.91738">
        <ele>426.39999389648</ele>
        <time>2014-10-17T13:48:44.000Z</time>
      </trkpt>
      <trkpt lat="47.29172" lon="4.91743">
        <ele>426.79998779297</ele>
        <time>2014-10-17T13:48:50.000Z</time>
      </trkpt>
      <trkpt lat="47.29169" lon="4.9175">
        <ele>427.20001220703</ele>
        <time>2014-10-17T13:48:56.000Z</time>
      </trkpt>
      <trkpt lat="47.29165" lon="4.91754">
        <ele>427.79998779297</ele>
        <time>2014-10-17T13:49:01.000Z</time>
      </trkpt>
      <trkpt lat="47.29164" lon="4.91754">
        <ele>427.79998779297</ele>
        <time>2014-10-17T13:49:02.000Z</time>
      </trkpt>
      <trkpt lat="47.29163" lon="4.91756">
        <ele>428</ele>
        <time>2014-10-17T13:49:04.000Z</time>
      </trkpt>
      <trkpt lat="47.29163" lon="4.91758">
        <ele>428.20001220703</ele>
        <time>2014-10-17T13:49:06.000Z</time>
      </trkpt>
      <trkpt lat="47.29158" lon="4.91764">
        <ele>429.79998779297</ele>
        <time>2014-10-17T13:49:12.000Z</time>
      </trkpt>
      <trkpt lat="47.29156" lon="4.91768">
        <ele>430.60000610352</ele>
        <time>2014-10-17T13:49:16.000Z</time>
      </trkpt>
      <trkpt lat="47.29156" lon="4.91769">
        <ele>430.79998779297</ele>
        <time>2014-10-17T13:49:18.000Z</time>
      </trkpt>
      <trkpt lat="47.29153" lon="4.91775">
        <ele>432</ele>
        <time>2014-10-17T13:49:25.000Z</time>
      </trkpt>
      <trkpt lat="47.29146" lon="4.91782">
        <ele>434.39999389648</ele>
        <time>2014-10-17T13:49:39.000Z</time>
      </trkpt>
      <trkpt lat="47.29145" lon="4.91783">
        <ele>434.79998779297</ele>
        <time>2014-10-17T13:49:40.000Z</time>
      </trkpt>
      <trkpt lat="47.2914" lon="4.91787">
        <ele>436.39999389648</ele>
        <time>2014-10-17T13:49:45.000Z</time>
      </trkpt>
      <trkpt lat="47.2914" lon="4.91789">
        <ele>436.79998779297</ele>
        <time>2014-10-17T13:49:47.000Z</time>
      </trkpt>
      <trkpt lat="47.29134" lon="4.91797">
        <ele>439.39999389648</ele>
        <time>2014-10-17T13:49:56.000Z</time>
      </trkpt>
      <trkpt lat="47.29134" lon="4.91798">
        <ele>439.79998779297</ele>
        <time>2014-10-17T13:49:57.000Z</time>
      </trkpt>
      <trkpt lat="47.29132" lon="4.91804">
        <ele>441.20001220703</ele>
        <time>2014-10-17T13:50:02.000Z</time>
      </trkpt>
      <trkpt lat="47.29129" lon="4.91811">
        <ele>443.39999389648</ele>
        <time>2014-10-17T13:50:09.000Z</time>
      </trkpt>
      <trkpt lat="47.29128" lon="4.91813">
        <ele>444</ele>
        <time>2014-10-17T13:50:13.000Z</time>
      </trkpt>
      <trkpt lat="47.29126" lon="4.91815">
        <ele>445</ele>
        <time>2014-10-17T13:50:16.000Z</time>
      </trkpt>
      <trkpt lat="47.29122" lon="4.91819">
        <ele>446.79998779297</ele>
        <time>2014-10-17T13:50:22.000Z</time>
      </trkpt>
      <trkpt lat="47.29121" lon="4.9182">
        <ele>447</ele>
        <time>2014-10-17T13:50:23.000Z</time>
      </trkpt>
      <trkpt lat="47.29119" lon="4.91824">
        <ele>448.60000610352</ele>
        <time>2014-10-17T13:50:29.000Z</time>
      </trkpt>
      <trkpt lat="47.29116" lon="4.91826">
        <ele>449.39999389648</ele>
        <time>2014-10-17T13:50:34.000Z</time>
      </trkpt>
      <trkpt lat="47.29111" lon="4.91828">
        <ele>450.60000610352</ele>
        <time>2014-10-17T13:50:42.000Z</time>
      </trkpt>
      <trkpt lat="47.29107" lon="4.91832">
        <ele>451.79998779297</ele>
        <time>2014-10-17T13:50:50.000Z</time>
      </trkpt>
      <trkpt lat="47.29105" lon="4.91834">
        <ele>452.39999389648</ele>
        <time>2014-10-17T13:50:55.000Z</time>
      </trkpt>
      <trkpt lat="47.29099" lon="4.91834">
        <ele>453.39999389648</ele>
        <time>2014-10-17T13:51:35.000Z</time>
      </trkpt>
      <trkpt lat="47.29096" lon="4.91839">
        <ele>454.39999389648</ele>
        <time>2014-10-17T13:51:42.000Z</time>
      </trkpt>
      <trkpt lat="47.29092" lon="4.91841">
        <ele>455.39999389648</ele>
        <time>2014-10-17T13:51:57.000Z</time>
      </trkpt>
      <trkpt lat="47.29089" lon="4.91846">
        <ele>456.20001220703</ele>
        <time>2014-10-17T13:52:03.000Z</time>
      </trkpt>
      <trkpt lat="47.29088" lon="4.91851">
        <ele>456.79998779297</ele>
        <time>2014-10-17T13:52:09.000Z</time>
      </trkpt>
      <trkpt lat="47.29087" lon="4.91853">
        <ele>457.20001220703</ele>
        <time>2014-10-17T13:52:13.000Z</time>
      </trkpt>
      <trkpt lat="47.29085" lon="4.91857">
        <ele>457.79998779297</ele>
        <time>2014-10-17T13:52:19.000Z</time>
      </trkpt>
      <trkpt lat="47.29084" lon="4.91864">
        <ele>458.60000610352</ele>
        <time>2014-10-17T13:52:35.000Z</time>
      </trkpt>
      <trkpt lat="47.29081" lon="4.91868">
        <ele>459.39999389648</ele>
        <time>2014-10-17T13:52:41.000Z</time>
      </trkpt>
      <trkpt lat="47.29079" lon="4.91871">
        <ele>460</ele>
        <time>2014-10-17T13:52:50.000Z</time>
      </trkpt>
      <trkpt lat="47.29079" lon="4.91877">
        <ele>460.60000610352</ele>
        <time>2014-10-17T13:52:56.000Z</time>
      </trkpt>
      <trkpt lat="47.29073" lon="4.91862">
        <ele>460.60000610352</ele>
        <time>2014-10-17T13:53:29.000Z</time>
      </trkpt>
      <trkpt lat="47.29073" lon="4.9186">
        <ele>460.60000610352</ele>
        <time>2014-10-17T13:53:30.000Z</time>
      </trkpt>
      <trkpt lat="47.29072" lon="4.91856">
        <ele>460.39999389648</ele>
        <time>2014-10-17T13:53:33.000Z</time>
      </trkpt>
      <trkpt lat="47.29072" lon="4.9185">
        <ele>460</ele>
        <time>2014-10-17T13:53:39.000Z</time>
      </trkpt>
      <trkpt lat="47.29072" lon="4.91845">
        <ele>459.60000610352</ele>
        <time>2014-10-17T13:53:45.000Z</time>
      </trkpt>
      <trkpt lat="47.29072" lon="4.91835">
        <ele>459</ele>
        <time>2014-10-17T13:53:51.000Z</time>
      </trkpt>
      <trkpt lat="47.29074" lon="4.91831">
        <ele>458.20001220703</ele>
        <time>2014-10-17T13:53:56.000Z</time>
      </trkpt>
      <trkpt lat="47.29074" lon="4.9183">
        <ele>458.20001220703</ele>
        <time>2014-10-17T13:53:57.000Z</time>
      </trkpt>
      <trkpt lat="47.29076" lon="4.91826">
        <ele>457.60000610352</ele>
        <time>2014-10-17T13:54:03.000Z</time>
      </trkpt>
      <trkpt lat="47.29076" lon="4.91821">
        <ele>457</ele>
        <time>2014-10-17T13:54:08.000Z</time>
      </trkpt>
      <trkpt lat="47.29076" lon="4.91815">
        <ele>456.60000610352</ele>
        <time>2014-10-17T13:54:15.000Z</time>
      </trkpt>
      <trkpt lat="47.29075" lon="4.91809">
        <ele>456.39999389648</ele>
        <time>2014-10-17T13:54:23.000Z</time>
      </trkpt>
      <trkpt lat="47.29075" lon="4.91802">
        <ele>456</ele>
        <time>2014-10-17T13:54:28.000Z</time>
      </trkpt>
      <trkpt lat="47.29075" lon="4.91799">
        <ele>455.60000610352</ele>
        <time>2014-10-17T13:54:30.000Z</time>
      </trkpt>
      <trkpt lat="47.29076" lon="4.91793">
        <ele>455.20001220703</ele>
        <time>2014-10-17T13:54:35.000Z</time>
      </trkpt>
      <trkpt lat="47.29076" lon="4.91791">
        <ele>455</ele>
        <time>2014-10-17T13:54:37.000Z</time>
      </trkpt>
      <trkpt lat="47.29076" lon="4.91782">
        <ele>453.79998779297</ele>
        <time>2014-10-17T13:54:45.000Z</time>
      </trkpt>
      <trkpt lat="47.29076" lon="4.91775">
        <ele>453.39999389648</ele>
        <time>2014-10-17T13:54:51.000Z</time>
      </trkpt>
      <trkpt lat="47.29076" lon="4.91774">
        <ele>453.20001220703</ele>
        <time>2014-10-17T13:54:52.000Z</time>
      </trkpt>
      <trkpt lat="47.29076" lon="4.9177">
        <ele>453</ele>
        <time>2014-10-17T13:54:56.000Z</time>
      </trkpt>
      <trkpt lat="47.29078" lon="4.91775">
        <ele>453.20001220703</ele>
        <time>2014-10-17T13:55:05.000Z</time>
      </trkpt>
      <trkpt lat="47.29078" lon="4.91777">
        <ele>453.20001220703</ele>
        <time>2014-10-17T13:55:06.000Z</time>
      </trkpt>
      <trkpt lat="47.29079" lon="4.91782">
        <ele>453.60000610352</ele>
        <time>2014-10-17T13:55:11.000Z</time>
      </trkpt>
      <trkpt lat="47.29081" lon="4.91789">
        <ele>453.60000610352</ele>
        <time>2014-10-17T13:55:17.000Z</time>
      </trkpt>
      <trkpt lat="47.29082" lon="4.91792">
        <ele>453.39999389648</ele>
        <time>2014-10-17T13:55:21.000Z</time>
      </trkpt>
      <trkpt lat="47.29084" lon="4.91798">
        <ele>453.79998779297</ele>
        <time>2014-10-17T13:55:27.000Z</time>
      </trkpt>
      <trkpt lat="47.29084" lon="4.91805">
        <ele>454.20001220703</ele>
        <time>2014-10-17T13:55:31.000Z</time>
      </trkpt>
      <trkpt lat="47.29084" lon="4.91814">
        <ele>455</ele>
        <time>2014-10-17T13:55:37.000Z</time>
      </trkpt>
      <trkpt lat="47.29083" lon="4.9182">
        <ele>455.60000610352</ele>
        <time>2014-10-17T13:55:41.000Z</time>
      </trkpt>
      <trkpt lat="47.29083" lon="4.91825">
        <ele>455.79998779297</ele>
        <time>2014-10-17T13:55:45.000Z</time>
      </trkpt>
      <trkpt lat="47.29083" lon="4.91835">
        <ele>456.60000610352</ele>
        <time>2014-10-17T13:55:51.000Z</time>
      </trkpt>
      <trkpt lat="47.29084" lon="4.91837">
        <ele>456.60000610352</ele>
        <time>2014-10-17T13:55:52.000Z</time>
      </trkpt>
      <trkpt lat="47.29085" lon="4.91845">
        <ele>457</ele>
        <time>2014-10-17T13:55:59.000Z</time>
      </trkpt>
      <trkpt lat="47.29085" lon="4.91847">
        <ele>457</ele>
        <time>2014-10-17T13:56:04.000Z</time>
      </trkpt>
      <trkpt lat="47.29087" lon="4.91851">
        <ele>457</ele>
        <time>2014-10-17T13:56:08.000Z</time>
      </trkpt>
      <trkpt lat="47.29088" lon="4.9186">
        <ele>457.39999389648</ele>
        <time>2014-10-17T13:56:15.000Z</time>
      </trkpt>
      <trkpt lat="47.29088" lon="4.91865">
        <ele>457.79998779297</ele>
        <time>2014-10-17T13:56:21.000Z</time>
      </trkpt>
      <trkpt lat="47.29089" lon="4.91868">
        <ele>458</ele>
        <time>2014-10-17T13:56:26.000Z</time>
      </trkpt>
      <trkpt lat="47.29088" lon="4.9187">
        <ele>458.20001220703</ele>
        <time>2014-10-17T13:56:32.000Z</time>
      </trkpt>
      <trkpt lat="47.29086" lon="4.91873">
        <ele>458.60000610352</ele>
        <time>2014-10-17T13:56:38.000Z</time>
      </trkpt>
      <trkpt lat="47.29084" lon="4.91879">
        <ele>460.20001220703</ele>
        <time>2014-10-17T13:56:46.000Z</time>
      </trkpt>
      <trkpt lat="47.29084" lon="4.91881">
        <ele>460.79998779297</ele>
        <time>2014-10-17T13:56:48.000Z</time>
      </trkpt>
      <trkpt lat="47.29082" lon="4.91889">
        <ele>462</ele>
        <time>2014-10-17T13:56:53.000Z</time>
      </trkpt>
      <trkpt lat="47.29082" lon="4.9189">
        <ele>462.20001220703</ele>
        <time>2014-10-17T13:56:54.000Z</time>
      </trkpt>
      <trkpt lat="47.29078" lon="4.91896">
        <ele>463.79998779297</ele>
        <time>2014-10-17T13:57:03.000Z</time>
      </trkpt>
      <trkpt lat="47.29075" lon="4.91901">
        <ele>465.39999389648</ele>
        <time>2014-10-17T13:57:09.000Z</time>
      </trkpt>
      <trkpt lat="47.29072" lon="4.91905">
        <ele>467.20001220703</ele>
        <time>2014-10-17T13:57:16.000Z</time>
      </trkpt>
      <trkpt lat="47.29068" lon="4.91908">
        <ele>468.79998779297</ele>
        <time>2014-10-17T13:57:21.000Z</time>
      </trkpt>
      <trkpt lat="47.29067" lon="4.91911">
        <ele>469.60000610352</ele>
        <time>2014-10-17T13:57:24.000Z</time>
      </trkpt>
      <trkpt lat="47.29066" lon="4.91915">
        <ele>470.39999389648</ele>
        <time>2014-10-17T13:57:29.000Z</time>
      </trkpt>
      <trkpt lat="47.2907" lon="4.91929">
        <ele>471.20001220703</ele>
        <time>2014-10-17T13:58:11.000Z</time>
      </trkpt>
      <trkpt lat="47.29074" lon="4.91933">
        <ele>470.39999389648</ele>
        <time>2014-10-17T13:58:31.000Z</time>
      </trkpt>
      <trkpt lat="47.2907" lon="4.91936">
        <ele>472.20001220703</ele>
        <time>2014-10-17T13:58:38.000Z</time>
      </trkpt>
      <trkpt lat="47.29067" lon="4.91939">
        <ele>473.39999389648</ele>
        <time>2014-10-17T13:58:43.000Z</time>
      </trkpt>
      <trkpt lat="47.29066" lon="4.91942">
        <ele>474.39999389648</ele>
        <time>2014-10-17T13:58:48.000Z</time>
      </trkpt>
      <trkpt lat="47.29063" lon="4.91945">
        <ele>475.60000610352</ele>
        <time>2014-10-17T13:58:54.000Z</time>
      </trkpt>
      <trkpt lat="47.29061" lon="4.91948">
        <ele>476.60000610352</ele>
        <time>2014-10-17T13:58:59.000Z</time>
      </trkpt>
      <trkpt lat="47.2906" lon="4.9195">
        <ele>477.39999389648</ele>
        <time>2014-10-17T13:59:07.000Z</time>
      </trkpt>
      <trkpt lat="47.29059" lon="4.91951">
        <ele>477.79998779297</ele>
        <time>2014-10-17T13:59:08.000Z</time>
      </trkpt>
      <trkpt lat="47.29059" lon="4.91953">
        <ele>478</ele>
        <time>2014-10-17T13:59:09.000Z</time>
      </trkpt>
      <trkpt lat="47.29055" lon="4.91953">
        <ele>479.20001220703</ele>
        <time>2014-10-17T13:59:15.000Z</time>
      </trkpt>
      <trkpt lat="47.29053" lon="4.91957">
        <ele>480.20001220703</ele>
        <time>2014-10-17T13:59:22.000Z</time>
      </trkpt>
      <trkpt lat="47.29054" lon="4.91951">
        <ele>479.39999389648</ele>
        <time>2014-10-17T13:59:51.000Z</time>
      </trkpt>
      <trkpt lat="47.29055" lon="4.91957">
        <ele>480</ele>
        <time>2014-10-17T13:59:58.000Z</time>
      </trkpt>
      <trkpt lat="47.29054" lon="4.91962">
        <ele>481.39999389648</ele>
        <time>2014-10-17T14:00:05.000Z</time>
      </trkpt>
      <trkpt lat="47.29053" lon="4.91966">
        <ele>482.39999389648</ele>
        <time>2014-10-17T14:00:11.000Z</time>
      </trkpt>
      <trkpt lat="47.29055" lon="4.91971">
        <ele>483.20001220703</ele>
        <time>2014-10-17T14:00:18.000Z</time>
      </trkpt>
      <trkpt lat="47.29054" lon="4.91974">
        <ele>484.20001220703</ele>
        <time>2014-10-17T14:00:24.000Z</time>
      </trkpt>
      <trkpt lat="47.29054" lon="4.91978">
        <ele>485.39999389648</ele>
        <time>2014-10-17T14:00:29.000Z</time>
      </trkpt>
      <trkpt lat="47.29052" lon="4.91982">
        <ele>486.79998779297</ele>
        <time>2014-10-17T14:00:35.000Z</time>
      </trkpt>
      <trkpt lat="47.2905" lon="4.91982">
        <ele>487.60000610352</ele>
        <time>2014-10-17T14:00:42.000Z</time>
      </trkpt>
      <trkpt lat="47.29048" lon="4.91986">
        <ele>489.20001220703</ele>
        <time>2014-10-17T14:00:47.000Z</time>
      </trkpt>
      <trkpt lat="47.29047" lon="4.91989">
        <ele>490.39999389648</ele>
        <time>2014-10-17T14:00:52.000Z</time>
      </trkpt>
      <trkpt lat="47.29046" lon="4.91993">
        <ele>491.60000610352</ele>
        <time>2014-10-17T14:00:57.000Z</time>
      </trkpt>
      <trkpt lat="47.29046" lon="4.91998">
        <ele>493</ele>
        <time>2014-10-17T14:01:03.000Z</time>
      </trkpt>
      <trkpt lat="47.29045" lon="4.92002">
        <ele>494.20001220703</ele>
        <time>2014-10-17T14:01:08.000Z</time>
      </trkpt>
      <trkpt lat="47.29042" lon="4.92006">
        <ele>495.79998779297</ele>
        <time>2014-10-17T14:01:15.000Z</time>
      </trkpt>
      <trkpt lat="47.29038" lon="4.92008">
        <ele>497</ele>
        <time>2014-10-17T14:01:23.000Z</time>
      </trkpt>
      <trkpt lat="47.2903" lon="4.92009">
        <ele>499</ele>
        <time>2014-10-17T14:01:37.000Z</time>
      </trkpt>
      <trkpt lat="47.29028" lon="4.9201">
        <ele>499.79998779297</ele>
        <time>2014-10-17T14:01:43.000Z</time>
      </trkpt>
      <trkpt lat="47.29024" lon="4.92012">
        <ele>501</ele>
        <time>2014-10-17T14:02:06.000Z</time>
      </trkpt>
      <trkpt lat="47.29021" lon="4.92008">
        <ele>501</ele>
        <time>2014-10-17T14:02:20.000Z</time>
      </trkpt>
      <trkpt lat="47.29021" lon="4.92009">
        <ele>501</ele>
        <time>2014-10-17T14:02:29.000Z</time>
      </trkpt>
      <trkpt lat="47.29025" lon="4.92016">
        <ele>501.39999389648</ele>
        <time>2014-10-17T14:02:47.000Z</time>
      </trkpt>
      <trkpt lat="47.2902" lon="4.92013">
        <ele>502.20001220703</ele>
        <time>2014-10-17T14:02:59.000Z</time>
      </trkpt>
      <trkpt lat="47.29017" lon="4.92011">
        <ele>502.39999389648</ele>
        <time>2014-10-17T14:03:02.000Z</time>
      </trkpt>
      <trkpt lat="47.29011" lon="4.92007">
        <ele>503.20001220703</ele>
        <time>2014-10-17T14:03:07.000Z</time>
      </trkpt>
      <trkpt lat="47.29009" lon="4.92006">
        <ele>503.39999389648</ele>
        <time>2014-10-17T14:03:08.000Z</time>
      </trkpt>
      <trkpt lat="47.29001" lon="4.92001">
        <ele>504.39999389648</ele>
        <time>2014-10-17T14:03:15.000Z</time>
      </trkpt>
      <trkpt lat="47.29" lon="4.92">
        <ele>504.39999389648</ele>
        <time>2014-10-17T14:03:16.000Z</time>
      </trkpt>
      <trkpt lat="47.28993" lon="4.91996">
        <ele>505</ele>
        <time>2014-10-17T14:03:20.000Z</time>
      </trkpt>
      <trkpt lat="47.28992" lon="4.91995">
        <ele>505</ele>
        <time>2014-10-17T14:03:21.000Z</time>
      </trkpt>
      <trkpt lat="47.28988" lon="4.91987">
        <ele>504.20001220703</ele>
        <time>2014-10-17T14:03:26.000Z</time>
      </trkpt>
      <trkpt lat="47.28984" lon="4.91981">
        <ele>503.60000610352</ele>
        <time>2014-10-17T14:03:30.000Z</time>
      </trkpt>
      <trkpt lat="47.28983" lon="4.91978">
        <ele>503.39999389648</ele>
        <time>2014-10-17T14:03:32.000Z</time>
      </trkpt>
      <trkpt lat="47.28979" lon="4.9197">
        <ele>502.39999389648</ele>
        <time>2014-10-17T14:03:38.000Z</time>
      </trkpt>
      <trkpt lat="47.28977" lon="4.91967">
        <ele>502.20001220703</ele>
        <time>2014-10-17T14:03:40.000Z</time>
      </trkpt>
      <trkpt lat="47.28973" lon="4.91958">
        <ele>501.20001220703</ele>
        <time>2014-10-17T14:03:47.000Z</time>
      </trkpt>
      <trkpt lat="47.28969" lon="4.91951">
        <ele>500.60000610352</ele>
        <time>2014-10-17T14:03:51.000Z</time>
      </trkpt>
      <trkpt lat="47.28965" lon="4.91946">
        <ele>500.39999389648</ele>
        <time>2014-10-17T14:03:55.000Z</time>
      </trkpt>
      <trkpt lat="47.28959" lon="4.91938">
        <ele>500</ele>
        <time>2014-10-17T14:04:02.000Z</time>
      </trkpt>
      <trkpt lat="47.28953" lon="4.91933">
        <ele>500</ele>
        <time>2014-10-17T14:04:08.000Z</time>
      </trkpt>
      <trkpt lat="47.28946" lon="4.9193">
        <ele>500.39999389648</ele>
        <time>2014-10-17T14:04:14.000Z</time>
      </trkpt>
      <trkpt lat="47.28942" lon="4.91926">
        <ele>500.39999389648</ele>
        <time>2014-10-17T14:04:18.000Z</time>
      </trkpt>
      <trkpt lat="47.28936" lon="4.91921">
        <ele>500.39999389648</ele>
        <time>2014-10-17T14:04:23.000Z</time>
      </trkpt>
      <trkpt lat="47.28929" lon="4.91915">
        <ele>500.39999389648</ele>
        <time>2014-10-17T14:04:29.000Z</time>
      </trkpt>
      <trkpt lat="47.28925" lon="4.91913">
        <ele>500.60000610352</ele>
        <time>2014-10-17T14:04:32.000Z</time>
      </trkpt>
      <trkpt lat="47.28918" lon="4.91908">
        <ele>500.79998779297</ele>
        <time>2014-10-17T14:04:38.000Z</time>
      </trkpt>
      <trkpt lat="47.28914" lon="4.91906">
        <ele>501</ele>
        <time>2014-10-17T14:04:41.000Z</time>
      </trkpt>
      <trkpt lat="47.28909" lon="4.91902">
        <ele>500.79998779297</ele>
        <time>2014-10-17T14:04:45.000Z</time>
      </trkpt>
      <trkpt lat="47.28902" lon="4.919">
        <ele>500.79998779297</ele>
        <time>2014-10-17T14:04:51.000Z</time>
      </trkpt>
      <trkpt lat="47.28901" lon="4.91899">
        <ele>500.79998779297</ele>
        <time>2014-10-17T14:04:52.000Z</time>
      </trkpt>
      <trkpt lat="47.28899" lon="4.91898">
        <ele>500.79998779297</ele>
        <time>2014-10-17T14:04:54.000Z</time>
      </trkpt>
      <trkpt lat="47.28893" lon="4.91898">
        <ele>501.20001220703</ele>
        <time>2014-10-17T14:04:58.000Z</time>
      </trkpt>
      <trkpt lat="47.28892" lon="4.919">
        <ele>501.60000610352</ele>
        <time>2014-10-17T14:05:00.000Z</time>
      </trkpt>
      <trkpt lat="47.28889" lon="4.91901">
        <ele>502</ele>
        <time>2014-10-17T14:05:02.000Z</time>
      </trkpt>
      <trkpt lat="47.28882" lon="4.91895">
        <ele>501.60000610352</ele>
        <time>2014-10-17T14:05:09.000Z</time>
      </trkpt>
      <trkpt lat="47.28878" lon="4.91891">
        <ele>501.20001220703</ele>
        <time>2014-10-17T14:05:13.000Z</time>
      </trkpt>
      <trkpt lat="47.28872" lon="4.91887">
        <ele>501</ele>
        <time>2014-10-17T14:05:18.000Z</time>
      </trkpt>
      <trkpt lat="47.28872" lon="4.91887">
        <ele>501</ele>
        <time>2014-10-17T14:05:19.000Z</time>
      </trkpt>
      <trkpt lat="47.28868" lon="4.91884">
        <ele>500.79998779297</ele>
        <time>2014-10-17T14:05:22.000Z</time>
      </trkpt>
      <trkpt lat="47.28861" lon="4.91881">
        <ele>500.79998779297</ele>
        <time>2014-10-17T14:05:28.000Z</time>
      </trkpt>
      <trkpt lat="47.28857" lon="4.91879">
        <ele>501</ele>
        <time>2014-10-17T14:05:33.000Z</time>
      </trkpt>
      <trkpt lat="47.28851" lon="4.91878">
        <ele>501.20001220703</ele>
        <time>2014-10-17T14:05:39.000Z</time>
      </trkpt>
      <trkpt lat="47.28845" lon="4.91876">
        <ele>501.20001220703</ele>
        <time>2014-10-17T14:05:43.000Z</time>
      </trkpt>
      <trkpt lat="47.28844" lon="4.91875">
        <ele>501.20001220703</ele>
        <time>2014-10-17T14:05:44.000Z</time>
      </trkpt>
      <trkpt lat="47.28839" lon="4.91873">
        <ele>501.20001220703</ele>
        <time>2014-10-17T14:05:47.000Z</time>
      </trkpt>
      <trkpt lat="47.28832" lon="4.91871">
        <ele>501.39999389648</ele>
        <time>2014-10-17T14:05:52.000Z</time>
      </trkpt>
      <trkpt lat="47.28828" lon="4.91871">
        <ele>501.39999389648</ele>
        <time>2014-10-17T14:05:54.000Z</time>
      </trkpt>
      <trkpt lat="47.2882" lon="4.91872">
        <ele>501.60000610352</ele>
        <time>2014-10-17T14:06:00.000Z</time>
      </trkpt>
      <trkpt lat="47.2881" lon="4.91873">
        <ele>501.79998779297</ele>
        <time>2014-10-17T14:06:06.000Z</time>
      </trkpt>
      <trkpt lat="47.28807" lon="4.91872">
        <ele>501.60000610352</ele>
        <time>2014-10-17T14:06:08.000Z</time>
      </trkpt>
      <trkpt lat="47.28791" lon="4.91868">
        <ele>500.79998779297</ele>
        <time>2014-10-17T14:06:19.000Z</time>
      </trkpt>
      <trkpt lat="47.28781" lon="4.91867">
        <ele>500.60000610352</ele>
        <time>2014-10-17T14:06:26.000Z</time>
      </trkpt>
      <trkpt lat="47.28775" lon="4.91867">
        <ele>500.60000610352</ele>
        <time>2014-10-17T14:06:30.000Z</time>
      </trkpt>
      <trkpt lat="47.28768" lon="4.91866">
        <ele>500.39999389648</ele>
        <time>2014-10-17T14:06:35.000Z</time>
      </trkpt>
      <trkpt lat="47.28759" lon="4.91866">
        <ele>500.20001220703</ele>
        <time>2014-10-17T14:06:42.000Z</time>
      </trkpt>
      <trkpt lat="47.28754" lon="4.91865">
        <ele>500.20001220703</ele>
        <time>2014-10-17T14:06:45.000Z</time>
      </trkpt>
      <trkpt lat="47.28745" lon="4.91866">
        <ele>500.20001220703</ele>
        <time>2014-10-17T14:06:51.000Z</time>
      </trkpt>
      <trkpt lat="47.28741" lon="4.91865">
        <ele>500</ele>
        <time>2014-10-17T14:06:54.000Z</time>
      </trkpt>
      <trkpt lat="47.28735" lon="4.91864">
        <ele>499.79998779297</ele>
        <time>2014-10-17T14:06:58.000Z</time>
      </trkpt>
      <trkpt lat="47.28732" lon="4.91863">
        <ele>499.60000610352</ele>
        <time>2014-10-17T14:07:02.000Z</time>
      </trkpt>
      <trkpt lat="47.28727" lon="4.91863">
        <ele>499.39999389648</ele>
        <time>2014-10-17T14:07:06.000Z</time>
      </trkpt>
      <trkpt lat="47.28722" lon="4.91862">
        <ele>499.39999389648</ele>
        <time>2014-10-17T14:07:11.000Z</time>
      </trkpt>
      <trkpt lat="47.28719" lon="4.91861">
        <ele>499</ele>
        <time>2014-10-17T14:07:15.000Z</time>
      </trkpt>
      <trkpt lat="47.28716" lon="4.91862">
        <ele>499.20001220703</ele>
        <time>2014-10-17T14:07:22.000Z</time>
      </trkpt>
      <trkpt lat="47.28713" lon="4.91863">
        <ele>499.60000610352</ele>
        <time>2014-10-17T14:07:25.000Z</time>
      </trkpt>
      <trkpt lat="47.28711" lon="4.91861">
        <ele>499.20001220703</ele>
        <time>2014-10-17T14:07:27.000Z</time>
      </trkpt>
      <trkpt lat="47.28703" lon="4.91861">
        <ele>499.20001220703</ele>
        <time>2014-10-17T14:07:33.000Z</time>
      </trkpt>
      <trkpt lat="47.28697" lon="4.9186">
        <ele>499</ele>
        <time>2014-10-17T14:07:38.000Z</time>
      </trkpt>
      <trkpt lat="47.28691" lon="4.91857">
        <ele>498.20001220703</ele>
        <time>2014-10-17T14:07:43.000Z</time>
      </trkpt>
      <trkpt lat="47.28683" lon="4.91855">
        <ele>497.79998779297</ele>
        <time>2014-10-17T14:07:48.000Z</time>
      </trkpt>
      <trkpt lat="47.28677" lon="4.91854">
        <ele>497.60000610352</ele>
        <time>2014-10-17T14:07:52.000Z</time>
      </trkpt>
      <trkpt lat="47.28672" lon="4.91854">
        <ele>497.60000610352</ele>
        <time>2014-10-17T14:07:56.000Z</time>
      </trkpt>
      <trkpt lat="47.28671" lon="4.91854">
        <ele>497.39999389648</ele>
        <time>2014-10-17T14:07:57.000Z</time>
      </trkpt>
      <trkpt lat="47.28662" lon="4.91854">
        <ele>497.60000610352</ele>
        <time>2014-10-17T14:08:04.000Z</time>
      </trkpt>
      <trkpt lat="47.28661" lon="4.91854">
        <ele>497.79998779297</ele>
        <time>2014-10-17T14:08:05.000Z</time>
      </trkpt>
      <trkpt lat="47.28655" lon="4.91851">
        <ele>498</ele>
        <time>2014-10-17T14:08:10.000Z</time>
      </trkpt>
      <trkpt lat="47.28654" lon="4.91852">
        <ele>498.20001220703</ele>
        <time>2014-10-17T14:08:11.000Z</time>
      </trkpt>
      <trkpt lat="47.2865" lon="4.91851">
        <ele>498.60000610352</ele>
        <time>2014-10-17T14:08:14.000Z</time>
      </trkpt>
      <trkpt lat="47.28641" lon="4.91847">
        <ele>498.60000610352</ele>
        <time>2014-10-17T14:08:21.000Z</time>
      </trkpt>
      <trkpt lat="47.2864" lon="4.91847">
        <ele>498.60000610352</ele>
        <time>2014-10-17T14:08:22.000Z</time>
      </trkpt>
      <trkpt lat="47.28631" lon="4.91848">
        <ele>499.60000610352</ele>
        <time>2014-10-17T14:08:27.000Z</time>
      </trkpt>
      <trkpt lat="47.28626" lon="4.91847">
        <ele>500</ele>
        <time>2014-10-17T14:08:33.000Z</time>
      </trkpt>
      <trkpt lat="47.28624" lon="4.91847">
        <ele>500</ele>
        <time>2014-10-17T14:08:35.000Z</time>
      </trkpt>
      <trkpt lat="47.28622" lon="4.91848">
        <ele>500.39999389648</ele>
        <time>2014-10-17T14:08:37.000Z</time>
      </trkpt>
      <trkpt lat="47.28614" lon="4.91847">
        <ele>500.79998779297</ele>
        <time>2014-10-17T14:08:44.000Z</time>
      </trkpt>
      <trkpt lat="47.28609" lon="4.91846">
        <ele>500.79998779297</ele>
        <time>2014-10-17T14:08:46.000Z</time>
      </trkpt>
      <trkpt lat="47.28603" lon="4.91844">
        <ele>501</ele>
        <time>2014-10-17T14:08:49.000Z</time>
      </trkpt>
      <trkpt lat="47.28597" lon="4.91842">
        <ele>501.20001220703</ele>
        <time>2014-10-17T14:08:54.000Z</time>
      </trkpt>
      <trkpt lat="47.28595" lon="4.91842">
        <ele>501.20001220703</ele>
        <time>2014-10-17T14:08:56.000Z</time>
      </trkpt>
      <trkpt lat="47.28586" lon="4.91841">
        <ele>501.60000610352</ele>
        <time>2014-10-17T14:09:02.000Z</time>
      </trkpt>
      <trkpt lat="47.2858" lon="4.91838">
        <ele>501.60000610352</ele>
        <time>2014-10-17T14:09:07.000Z</time>
      </trkpt>
      <trkpt lat="47.28579" lon="4.91838">
        <ele>501.60000610352</ele>
        <time>2014-10-17T14:09:08.000Z</time>
      </trkpt>
      <trkpt lat="47.28574" lon="4.91838">
        <ele>501.60000610352</ele>
        <time>2014-10-17T14:09:12.000Z</time>
      </trkpt>
      <trkpt lat="47.28566" lon="4.91837">
        <ele>501.39999389648</ele>
        <time>2014-10-17T14:09:18.000Z</time>
      </trkpt>
      <trkpt lat="47.28565" lon="4.91837">
        <ele>501.39999389648</ele>
        <time>2014-10-17T14:09:19.000Z</time>
      </trkpt>
      <trkpt lat="47.28561" lon="4.91836">
        <ele>501.20001220703</ele>
        <time>2014-10-17T14:09:22.000Z</time>
      </trkpt>
      <trkpt lat="47.28553" lon="4.91834">
        <ele>500.79998779297</ele>
        <time>2014-10-17T14:09:27.000Z</time>
      </trkpt>
      <trkpt lat="47.28545" lon="4.91833">
        <ele>500.79998779297</ele>
        <time>2014-10-17T14:09:33.000Z</time>
      </trkpt>
      <trkpt lat="47.28543" lon="4.91833">
        <ele>500.60000610352</ele>
        <time>2014-10-17T14:09:34.000Z</time>
      </trkpt>
      <trkpt lat="47.28538" lon="4.91833">
        <ele>500.60000610352</ele>
        <time>2014-10-17T14:09:37.000Z</time>
      </trkpt>
      <trkpt lat="47.28528" lon="4.91834">
        <ele>501.20001220703</ele>
        <time>2014-10-17T14:09:43.000Z</time>
      </trkpt>
      <trkpt lat="47.28522" lon="4.91833">
        <ele>501.20001220703</ele>
        <time>2014-10-17T14:09:47.000Z</time>
      </trkpt>
      <trkpt lat="47.28514" lon="4.91835">
        <ele>501.60000610352</ele>
        <time>2014-10-17T14:09:52.000Z</time>
      </trkpt>
      <trkpt lat="47.28511" lon="4.91834">
        <ele>501.60000610352</ele>
        <time>2014-10-17T14:09:54.000Z</time>
      </trkpt>
      <trkpt lat="47.28506" lon="4.91834">
        <ele>501.79998779297</ele>
        <time>2014-10-17T14:09:57.000Z</time>
      </trkpt>
      <trkpt lat="47.28503" lon="4.91833">
        <ele>501.60000610352</ele>
        <time>2014-10-17T14:09:59.000Z</time>
      </trkpt>
      <trkpt lat="47.28497" lon="4.91834">
        <ele>501.79998779297</ele>
        <time>2014-10-17T14:10:03.000Z</time>
      </trkpt>
      <trkpt lat="47.28491" lon="4.91833">
        <ele>501.79998779297</ele>
        <time>2014-10-17T14:10:08.000Z</time>
      </trkpt>
      <trkpt lat="47.28485" lon="4.91832">
        <ele>501.79998779297</ele>
        <time>2014-10-17T14:10:13.000Z</time>
      </trkpt>
      <trkpt lat="47.28484" lon="4.91833">
        <ele>502</ele>
        <time>2014-10-17T14:10:14.000Z</time>
      </trkpt>
      <trkpt lat="47.28476" lon="4.91832">
        <ele>502</ele>
        <time>2014-10-17T14:10:21.000Z</time>
      </trkpt>
      <trkpt lat="47.28472" lon="4.91831">
        <ele>502</ele>
        <time>2014-10-17T14:10:27.000Z</time>
      </trkpt>
      <trkpt lat="47.28469" lon="4.9183">
        <ele>501.79998779297</ele>
        <time>2014-10-17T14:10:31.000Z</time>
      </trkpt>
      <trkpt lat="47.28468" lon="4.91829">
        <ele>501.60000610352</ele>
        <time>2014-10-17T14:10:32.000Z</time>
      </trkpt>
      <trkpt lat="47.28461" lon="4.91827">
        <ele>501.39999389648</ele>
        <time>2014-10-17T14:10:38.000Z</time>
      </trkpt>
      <trkpt lat="47.28457" lon="4.91825">
        <ele>501</ele>
        <time>2014-10-17T14:10:41.000Z</time>
      </trkpt>
      <trkpt lat="47.28451" lon="4.91822">
        <ele>500.60000610352</ele>
        <time>2014-10-17T14:10:46.000Z</time>
      </trkpt>
      <trkpt lat="47.28446" lon="4.9182">
        <ele>500.20001220703</ele>
        <time>2014-10-17T14:10:50.000Z</time>
      </trkpt>
      <trkpt lat="47.28436" lon="4.91815">
        <ele>499.60000610352</ele>
        <time>2014-10-17T14:10:57.000Z</time>
      </trkpt>
      <trkpt lat="47.28427" lon="4.91812">
        <ele>499.39999389648</ele>
        <time>2014-10-17T14:11:02.000Z</time>
      </trkpt>
      <trkpt lat="47.28426" lon="4.91812">
        <ele>499.39999389648</ele>
        <time>2014-10-17T14:11:03.000Z</time>
      </trkpt>
      <trkpt lat="47.28421" lon="4.91808">
        <ele>498.60000610352</ele>
        <time>2014-10-17T14:11:06.000Z</time>
      </trkpt>
      <trkpt lat="47.28413" lon="4.91802">
        <ele>498</ele>
        <time>2014-10-17T14:11:12.000Z</time>
      </trkpt>
      <trkpt lat="47.284" lon="4.91796">
        <ele>497.79998779297</ele>
        <time>2014-10-17T14:11:23.000Z</time>
      </trkpt>
      <trkpt lat="47.28399" lon="4.91795">
        <ele>497.60000610352</ele>
        <time>2014-10-17T14:11:24.000Z</time>
      </trkpt>
      <trkpt lat="47.28389" lon="4.91788">
        <ele>497.60000610352</ele>
        <time>2014-10-17T14:11:33.000Z</time>
      </trkpt>
      <trkpt lat="47.28382" lon="4.91783">
        <ele>497.60000610352</ele>
        <time>2014-10-17T14:11:38.000Z</time>
      </trkpt>
      <trkpt lat="47.28376" lon="4.9178">
        <ele>497.79998779297</ele>
        <time>2014-10-17T14:11:43.000Z</time>
      </trkpt>
      <trkpt lat="47.28365" lon="4.91775">
        <ele>498</ele>
        <time>2014-10-17T14:11:51.000Z</time>
      </trkpt>
      <trkpt lat="47.28359" lon="4.91771">
        <ele>498.20001220703</ele>
        <time>2014-10-17T14:11:56.000Z</time>
      </trkpt>
      <trkpt lat="47.2835" lon="4.91768">
        <ele>498.60000610352</ele>
        <time>2014-10-17T14:12:03.000Z</time>
      </trkpt>
      <trkpt lat="47.28343" lon="4.91766">
        <ele>499</ele>
        <time>2014-10-17T14:12:09.000Z</time>
      </trkpt>
      <trkpt lat="47.28327" lon="4.91759">
        <ele>499.60000610352</ele>
        <time>2014-10-17T14:12:22.000Z</time>
      </trkpt>
      <trkpt lat="47.28324" lon="4.91758">
        <ele>499.60000610352</ele>
        <time>2014-10-17T14:12:24.000Z</time>
      </trkpt>
      <trkpt lat="47.28319" lon="4.91755">
        <ele>499.60000610352</ele>
        <time>2014-10-17T14:12:28.000Z</time>
      </trkpt>
      <trkpt lat="47.28315" lon="4.91754">
        <ele>499.79998779297</ele>
        <time>2014-10-17T14:12:32.000Z</time>
      </trkpt>
      <trkpt lat="47.28307" lon="4.91751">
        <ele>499.79998779297</ele>
        <time>2014-10-17T14:12:39.000Z</time>
      </trkpt>
      <trkpt lat="47.28302" lon="4.91751">
        <ele>500.20001220703</ele>
        <time>2014-10-17T14:12:43.000Z</time>
      </trkpt>
      <trkpt lat="47.283" lon="4.91751">
        <ele>500.39999389648</ele>
        <time>2014-10-17T14:12:45.000Z</time>
      </trkpt>
      <trkpt lat="47.28294" lon="4.91751">
        <ele>501</ele>
        <time>2014-10-17T14:12:51.000Z</time>
      </trkpt>
      <trkpt lat="47.28288" lon="4.91751">
        <ele>501.60000610352</ele>
        <time>2014-10-17T14:12:57.000Z</time>
      </trkpt>
      <trkpt lat="47.28283" lon="4.91752">
        <ele>502.20001220703</ele>
        <time>2014-10-17T14:13:04.000Z</time>
      </trkpt>
      <trkpt lat="47.28275" lon="4.91752">
        <ele>503</ele>
        <time>2014-10-17T14:13:20.000Z</time>
      </trkpt>
      <trkpt lat="47.28268" lon="4.91754">
        <ele>504.20001220703</ele>
        <time>2014-10-17T14:13:26.000Z</time>
      </trkpt>
      <trkpt lat="47.28259" lon="4.91759">
        <ele>506.39999389648</ele>
        <time>2014-10-17T14:13:33.000Z</time>
      </trkpt>
      <trkpt lat="47.28257" lon="4.9176">
        <ele>506.79998779297</ele>
        <time>2014-10-17T14:13:35.000Z</time>
      </trkpt>
      <trkpt lat="47.28251" lon="4.91764">
        <ele>508.20001220703</ele>
        <time>2014-10-17T14:13:40.000Z</time>
      </trkpt>
      <trkpt lat="47.28242" lon="4.91768">
        <ele>509.39999389648</ele>
        <time>2014-10-17T14:13:47.000Z</time>
      </trkpt>
      <trkpt lat="47.2824" lon="4.91767">
        <ele>509.39999389648</ele>
        <time>2014-10-17T14:13:49.000Z</time>
      </trkpt>
      <trkpt lat="47.28235" lon="4.91766">
        <ele>509.20001220703</ele>
        <time>2014-10-17T14:13:53.000Z</time>
      </trkpt>
      <trkpt lat="47.28231" lon="4.91767">
        <ele>509.39999389648</ele>
        <time>2014-10-17T14:13:56.000Z</time>
      </trkpt>
      <trkpt lat="47.28223" lon="4.9177">
        <ele>510.20001220703</ele>
        <time>2014-10-17T14:14:02.000Z</time>
      </trkpt>
      <trkpt lat="47.2822" lon="4.91771">
        <ele>510.60000610352</ele>
        <time>2014-10-17T14:14:04.000Z</time>
      </trkpt>
      <trkpt lat="47.28215" lon="4.91771">
        <ele>510.79998779297</ele>
        <time>2014-10-17T14:14:07.000Z</time>
      </trkpt>
      <trkpt lat="47.28199" lon="4.91773">
        <ele>511.79998779297</ele>
        <time>2014-10-17T14:14:19.000Z</time>
      </trkpt>
      <trkpt lat="47.28186" lon="4.91774">
        <ele>512.59997558594</ele>
        <time>2014-10-17T14:14:28.000Z</time>
      </trkpt>
      <trkpt lat="47.28182" lon="4.91774">
        <ele>512.59997558594</ele>
        <time>2014-10-17T14:14:31.000Z</time>
      </trkpt>
      <trkpt lat="47.28178" lon="4.91777">
        <ele>513.40002441406</ele>
        <time>2014-10-17T14:14:35.000Z</time>
      </trkpt>
      <trkpt lat="47.28174" lon="4.91781">
        <ele>514.40002441406</ele>
        <time>2014-10-17T14:15:16.000Z</time>
      </trkpt>
      <trkpt lat="47.28176" lon="4.91782">
        <ele>514.59997558594</ele>
        <time>2014-10-17T14:15:32.000Z</time>
      </trkpt>
      <trkpt lat="47.28183" lon="4.91786">
        <ele>515.40002441406</ele>
        <time>2014-10-17T14:15:39.000Z</time>
      </trkpt>
      <trkpt lat="47.28184" lon="4.91787">
        <ele>515.40002441406</ele>
        <time>2014-10-17T14:15:40.000Z</time>
      </trkpt>
      <trkpt lat="47.2819" lon="4.91791">
        <ele>516.20001220703</ele>
        <time>2014-10-17T14:15:47.000Z</time>
      </trkpt>
      <trkpt lat="47.28193" lon="4.91793">
        <ele>516.59997558594</ele>
        <time>2014-10-17T14:15:50.000Z</time>
      </trkpt>
      <trkpt lat="47.28197" lon="4.91796">
        <ele>517.40002441406</ele>
        <time>2014-10-17T14:15:55.000Z</time>
      </trkpt>
      <trkpt lat="47.28202" lon="4.91799">
        <ele>518</ele>
        <time>2014-10-17T14:16:01.000Z</time>
      </trkpt>
      <trkpt lat="47.28206" lon="4.91803">
        <ele>519</ele>
        <time>2014-10-17T14:16:06.000Z</time>
      </trkpt>
      <trkpt lat="47.28212" lon="4.9181">
        <ele>520.59997558594</ele>
        <time>2014-10-17T14:16:13.000Z</time>
      </trkpt>
      <trkpt lat="47.28213" lon="4.9181">
        <ele>520.79998779297</ele>
        <time>2014-10-17T14:16:14.000Z</time>
      </trkpt>
      <trkpt lat="47.28217" lon="4.91816">
        <ele>522</ele>
        <time>2014-10-17T14:16:19.000Z</time>
      </trkpt>
      <trkpt lat="47.28218" lon="4.91818">
        <ele>522.59997558594</ele>
        <time>2014-10-17T14:16:21.000Z</time>
      </trkpt>
      <trkpt lat="47.2822" lon="4.9182">
        <ele>523.20001220703</ele>
        <time>2014-10-17T14:16:23.000Z</time>
      </trkpt>
      <trkpt lat="47.28225" lon="4.91823">
        <ele>523.79998779297</ele>
        <time>2014-10-17T14:16:27.000Z</time>
      </trkpt>
      <trkpt lat="47.28226" lon="4.91824">
        <ele>524</ele>
        <time>2014-10-17T14:16:30.000Z</time>
      </trkpt>
      <trkpt lat="47.28228" lon="4.91825">
        <ele>524.20001220703</ele>
        <time>2014-10-17T14:16:32.000Z</time>
      </trkpt>
      <trkpt lat="47.28235" lon="4.91829">
        <ele>525.20001220703</ele>
        <time>2014-10-17T14:16:40.000Z</time>
      </trkpt>
      <trkpt lat="47.28237" lon="4.91831">
        <ele>525.59997558594</ele>
        <time>2014-10-17T14:16:42.000Z</time>
      </trkpt>
      <trkpt lat="47.28243" lon="4.91834">
        <ele>526.20001220703</ele>
        <time>2014-10-17T14:16:48.000Z</time>
      </trkpt>
      <trkpt lat="47.28246" lon="4.91837">
        <ele>527</ele>
        <time>2014-10-17T14:16:51.000Z</time>
      </trkpt>
      <trkpt lat="47.28252" lon="4.91843">
        <ele>528.20001220703</ele>
        <time>2014-10-17T14:16:58.000Z</time>
      </trkpt>
      <trkpt lat="47.28256" lon="4.9185">
        <ele>529.59997558594</ele>
        <time>2014-10-17T14:17:04.000Z</time>
      </trkpt>
      <trkpt lat="47.28257" lon="4.91851">
        <ele>529.79998779297</ele>
        <time>2014-10-17T14:17:05.000Z</time>
      </trkpt>
      <trkpt lat="47.28258" lon="4.91853">
        <ele>530.20001220703</ele>
        <time>2014-10-17T14:17:07.000Z</time>
      </trkpt>
      <trkpt lat="47.28259" lon="4.91856">
        <ele>531</ele>
        <time>2014-10-17T14:17:09.000Z</time>
      </trkpt>
      <trkpt lat="47.28266" lon="4.91863">
        <ele>532.20001220703</ele>
        <time>2014-10-17T14:17:16.000Z</time>
      </trkpt>
      <trkpt lat="47.28267" lon="4.91865">
        <ele>532.59997558594</ele>
        <time>2014-10-17T14:17:18.000Z</time>
      </trkpt>
      <trkpt lat="47.28275" lon="4.91874">
        <ele>534.40002441406</ele>
        <time>2014-10-17T14:17:26.000Z</time>
      </trkpt>
      <trkpt lat="47.28275" lon="4.91876">
        <ele>535</ele>
        <time>2014-10-17T14:17:33.000Z</time>
      </trkpt>
      <trkpt lat="47.28279" lon="4.91883">
        <ele>537</ele>
        <time>2014-10-17T14:17:46.000Z</time>
      </trkpt>
      <trkpt lat="47.2828" lon="4.91885">
        <ele>537.40002441406</ele>
        <time>2014-10-17T14:17:48.000Z</time>
      </trkpt>
      <trkpt lat="47.28285" lon="4.91889">
        <ele>538.20001220703</ele>
        <time>2014-10-17T14:17:54.000Z</time>
      </trkpt>
      <trkpt lat="47.2829" lon="4.91894">
        <ele>539.40002441406</ele>
        <time>2014-10-17T14:17:59.000Z</time>
      </trkpt>
      <trkpt lat="47.28296" lon="4.91899">
        <ele>540.59997558594</ele>
        <time>2014-10-17T14:18:05.000Z</time>
      </trkpt>
      <trkpt lat="47.28299" lon="4.91903">
        <ele>541.40002441406</ele>
        <time>2014-10-17T14:18:09.000Z</time>
      </trkpt>
      <trkpt lat="47.283" lon="4.91904">
        <ele>541.79998779297</ele>
        <time>2014-10-17T14:18:10.000Z</time>
      </trkpt>
      <trkpt lat="47.28302" lon="4.91906">
        <ele>542.20001220703</ele>
        <time>2014-10-17T14:18:12.000Z</time>
      </trkpt>
      <trkpt lat="47.28306" lon="4.91912">
        <ele>543.59997558594</ele>
        <time>2014-10-17T14:18:17.000Z</time>
      </trkpt>
      <trkpt lat="47.28308" lon="4.91914">
        <ele>544.20001220703</ele>
        <time>2014-10-17T14:18:20.000Z</time>
      </trkpt>
      <trkpt lat="47.28311" lon="4.91918">
        <ele>545.20001220703</ele>
        <time>2014-10-17T14:18:25.000Z</time>
      </trkpt>
      <trkpt lat="47.28312" lon="4.91919">
        <ele>545.20001220703</ele>
        <time>2014-10-17T14:18:26.000Z</time>
      </trkpt>
      <trkpt lat="47.28319" lon="4.91925">
        <ele>546.59997558594</ele>
        <time>2014-10-17T14:18:33.000Z</time>
      </trkpt>
      <trkpt lat="47.28324" lon="4.91928">
        <ele>547.20001220703</ele>
        <time>2014-10-17T14:18:38.000Z</time>
      </trkpt>
      <trkpt lat="47.28326" lon="4.91929">
        <ele>547.20001220703</ele>
        <time>2014-10-17T14:18:40.000Z</time>
      </trkpt>
      <trkpt lat="47.28331" lon="4.91935">
        <ele>548.79998779297</ele>
        <time>2014-10-17T14:18:47.000Z</time>
      </trkpt>
      <trkpt lat="47.28336" lon="4.91939">
        <ele>549.20001220703</ele>
        <time>2014-10-17T14:18:52.000Z</time>
      </trkpt>
      <trkpt lat="47.28338" lon="4.9194">
        <ele>549.40002441406</ele>
        <time>2014-10-17T14:18:54.000Z</time>
      </trkpt>
      <trkpt lat="47.28343" lon="4.91945">
        <ele>550</ele>
        <time>2014-10-17T14:19:01.000Z</time>
      </trkpt>
      <trkpt lat="47.28347" lon="4.91949">
        <ele>550.79998779297</ele>
        <time>2014-10-17T14:19:06.000Z</time>
      </trkpt>
      <trkpt lat="47.28352" lon="4.91951">
        <ele>550.59997558594</ele>
        <time>2014-10-17T14:19:12.000Z</time>
      </trkpt>
      <trkpt lat="47.28354" lon="4.91952">
        <ele>550.59997558594</ele>
        <time>2014-10-17T14:19:15.000Z</time>
      </trkpt>
      <trkpt lat="47.28357" lon="4.91955">
        <ele>551.20001220703</ele>
        <time>2014-10-17T14:19:25.000Z</time>
      </trkpt>
      <trkpt lat="47.28359" lon="4.91958">
        <ele>551.59997558594</ele>
        <time>2014-10-17T14:19:32.000Z</time>
      </trkpt>
      <trkpt lat="47.28363" lon="4.91962">
        <ele>552.40002441406</ele>
        <time>2014-10-17T14:19:38.000Z</time>
      </trkpt>
      <trkpt lat="47.28368" lon="4.91967">
        <ele>553</ele>
        <time>2014-10-17T14:19:44.000Z</time>
      </trkpt>
      <trkpt lat="47.28368" lon="4.91968">
        <ele>553.20001220703</ele>
        <time>2014-10-17T14:19:45.000Z</time>
      </trkpt>
      <trkpt lat="47.28372" lon="4.91971">
        <ele>554</ele>
        <time>2014-10-17T14:19:49.000Z</time>
      </trkpt>
      <trkpt lat="47.28372" lon="4.91972">
        <ele>554</ele>
        <time>2014-10-17T14:19:50.000Z</time>
      </trkpt>
      <trkpt lat="47.28376" lon="4.91977">
        <ele>555.20001220703</ele>
        <time>2014-10-17T14:19:57.000Z</time>
      </trkpt>
      <trkpt lat="47.28379" lon="4.91982">
        <ele>556.20001220703</ele>
        <time>2014-10-17T14:20:04.000Z</time>
      </trkpt>
      <trkpt lat="47.2838" lon="4.91987">
        <ele>557.59997558594</ele>
        <time>2014-10-17T14:20:11.000Z</time>
      </trkpt>
      <trkpt lat="47.2838" lon="4.91988">
        <ele>557.79998779297</ele>
        <time>2014-10-17T14:20:13.000Z</time>
      </trkpt>
      <trkpt lat="47.28386" lon="4.91993">
        <ele>558.59997558594</ele>
        <time>2014-10-17T14:20:20.000Z</time>
      </trkpt>
      <trkpt lat="47.28391" lon="4.91998">
        <ele>559.20001220703</ele>
        <time>2014-10-17T14:20:26.000Z</time>
      </trkpt>
      <trkpt lat="47.28392" lon="4.91999">
        <ele>559.40002441406</ele>
        <time>2014-10-17T14:20:27.000Z</time>
      </trkpt>
      <trkpt lat="47.28393" lon="4.92">
        <ele>559.59997558594</ele>
        <time>2014-10-17T14:20:28.000Z</time>
      </trkpt>
      <trkpt lat="47.28396" lon="4.92003">
        <ele>560.20001220703</ele>
        <time>2014-10-17T14:20:32.000Z</time>
      </trkpt>
      <trkpt lat="47.28401" lon="4.92007">
        <ele>560.40002441406</ele>
        <time>2014-10-17T14:20:39.000Z</time>
      </trkpt>
      <trkpt lat="47.28402" lon="4.92007">
        <ele>560.40002441406</ele>
        <time>2014-10-17T14:20:40.000Z</time>
      </trkpt>
      <trkpt lat="47.28403" lon="4.92008">
        <ele>560.59997558594</ele>
        <time>2014-10-17T14:20:42.000Z</time>
      </trkpt>
      <trkpt lat="47.28407" lon="4.92012">
        <ele>561.20001220703</ele>
        <time>2014-10-17T14:20:48.000Z</time>
      </trkpt>
      <trkpt lat="47.28408" lon="4.92015">
        <ele>561.79998779297</ele>
        <time>2014-10-17T14:20:51.000Z</time>
      </trkpt>
      <trkpt lat="47.2841" lon="4.92018">
        <ele>562.40002441406</ele>
        <time>2014-10-17T14:20:54.000Z</time>
      </trkpt>
      <trkpt lat="47.28414" lon="4.92022">
        <ele>563.20001220703</ele>
        <time>2014-10-17T14:21:01.000Z</time>
      </trkpt>
      <trkpt lat="47.28418" lon="4.92025">
        <ele>563.79998779297</ele>
        <time>2014-10-17T14:21:05.000Z</time>
      </trkpt>
      <trkpt lat="47.28421" lon="4.92031">
        <ele>565</ele>
        <time>2014-10-17T14:21:11.000Z</time>
      </trkpt>
      <trkpt lat="47.28425" lon="4.92036">
        <ele>566</ele>
        <time>2014-10-17T14:21:17.000Z</time>
      </trkpt>
      <trkpt lat="47.28426" lon="4.92037">
        <ele>566.59997558594</ele>
        <time>2014-10-17T14:21:19.000Z</time>
      </trkpt>
      <trkpt lat="47.28429" lon="4.92041">
        <ele>567.40002441406</ele>
        <time>2014-10-17T14:21:27.000Z</time>
      </trkpt>
      <trkpt lat="47.28431" lon="4.92046">
        <ele>568.79998779297</ele>
        <time>2014-10-17T14:21:39.000Z</time>
      </trkpt>
      <trkpt lat="47.28432" lon="4.92047">
        <ele>569</ele>
        <time>2014-10-17T14:21:40.000Z</time>
      </trkpt>
      <trkpt lat="47.28435" lon="4.9205">
        <ele>569.40002441406</ele>
        <time>2014-10-17T14:21:43.000Z</time>
      </trkpt>
      <trkpt lat="47.2844" lon="4.92056">
        <ele>570.79998779297</ele>
        <time>2014-10-17T14:21:51.000Z</time>
      </trkpt>
      <trkpt lat="47.28442" lon="4.92059">
        <ele>571.40002441406</ele>
        <time>2014-10-17T14:21:55.000Z</time>
      </trkpt>
      <trkpt lat="47.28445" lon="4.92063">
        <ele>572.59997558594</ele>
        <time>2014-10-17T14:22:00.000Z</time>
      </trkpt>
      <trkpt lat="47.28448" lon="4.9207">
        <ele>574.40002441406</ele>
        <time>2014-10-17T14:22:06.000Z</time>
      </trkpt>
      <trkpt lat="47.28448" lon="4.92071">
        <ele>574.59997558594</ele>
        <time>2014-10-17T14:22:07.000Z</time>
      </trkpt>
      <trkpt lat="47.28449" lon="4.92072">
        <ele>575</ele>
        <time>2014-10-17T14:22:18.000Z</time>
      </trkpt>
      <trkpt lat="47.2845" lon="4.92073">
        <ele>575.20001220703</ele>
        <time>2014-10-17T14:22:29.000Z</time>
      </trkpt>
      <trkpt lat="47.2845" lon="4.92074">
        <ele>575.59997558594</ele>
        <time>2014-10-17T14:22:39.000Z</time>
      </trkpt>
      <trkpt lat="47.28447" lon="4.92078">
        <ele>576.59997558594</ele>
        <time>2014-10-17T14:23:08.000Z</time>
      </trkpt>
      <trkpt lat="47.28436" lon="4.92076">
        <ele>576</ele>
        <time>2014-10-17T14:23:16.000Z</time>
      </trkpt>
      <trkpt lat="47.28434" lon="4.92077">
        <ele>576</ele>
        <time>2014-10-17T14:23:18.000Z</time>
      </trkpt>
      <trkpt lat="47.28426" lon="4.92077">
        <ele>575.79998779297</ele>
        <time>2014-10-17T14:23:24.000Z</time>
      </trkpt>
      <trkpt lat="47.28421" lon="4.92077">
        <ele>575.79998779297</ele>
        <time>2014-10-17T14:23:28.000Z</time>
      </trkpt>
      <trkpt lat="47.28417" lon="4.92078">
        <ele>576</ele>
        <time>2014-10-17T14:23:32.000Z</time>
      </trkpt>
      <trkpt lat="47.28408" lon="4.92077">
        <ele>576</ele>
        <time>2014-10-17T14:23:39.000Z</time>
      </trkpt>
      <trkpt lat="47.28407" lon="4.92076">
        <ele>576</ele>
        <time>2014-10-17T14:23:40.000Z</time>
      </trkpt>
      <trkpt lat="47.28402" lon="4.92074">
        <ele>576</ele>
        <time>2014-10-17T14:23:43.000Z</time>
      </trkpt>
      <trkpt lat="47.28395" lon="4.9207">
        <ele>575.79998779297</ele>
        <time>2014-10-17T14:23:49.000Z</time>
      </trkpt>
      <trkpt lat="47.2839" lon="4.92066">
        <ele>575.59997558594</ele>
        <time>2014-10-17T14:23:53.000Z</time>
      </trkpt>
      <trkpt lat="47.28388" lon="4.92065">
        <ele>575.59997558594</ele>
        <time>2014-10-17T14:23:55.000Z</time>
      </trkpt>
      <trkpt lat="47.28385" lon="4.92064">
        <ele>575.59997558594</ele>
        <time>2014-10-17T14:23:57.000Z</time>
      </trkpt>
      <trkpt lat="47.28381" lon="4.92063">
        <ele>575.79998779297</ele>
        <time>2014-10-17T14:24:01.000Z</time>
      </trkpt>
      <trkpt lat="47.28375" lon="4.92061">
        <ele>575.79998779297</ele>
        <time>2014-10-17T14:24:16.000Z</time>
      </trkpt>
      <trkpt lat="47.28365" lon="4.92056">
        <ele>575.79998779297</ele>
        <time>2014-10-17T14:24:23.000Z</time>
      </trkpt>
      <trkpt lat="47.28359" lon="4.92053">
        <ele>575.79998779297</ele>
        <time>2014-10-17T14:24:28.000Z</time>
      </trkpt>
      <trkpt lat="47.28345" lon="4.92047">
        <ele>576</ele>
        <time>2014-10-17T14:24:38.000Z</time>
      </trkpt>
      <trkpt lat="47.2834" lon="4.92045">
        <ele>576</ele>
        <time>2014-10-17T14:24:42.000Z</time>
      </trkpt>
      <trkpt lat="47.28332" lon="4.9204">
        <ele>575.79998779297</ele>
        <time>2014-10-17T14:24:48.000Z</time>
      </trkpt>
      <trkpt lat="47.28324" lon="4.92035">
        <ele>575.20001220703</ele>
        <time>2014-10-17T14:24:54.000Z</time>
      </trkpt>
      <trkpt lat="47.28316" lon="4.9203">
        <ele>574.40002441406</ele>
        <time>2014-10-17T14:25:00.000Z</time>
      </trkpt>
      <trkpt lat="47.28312" lon="4.92029">
        <ele>574.20001220703</ele>
        <time>2014-10-17T14:25:03.000Z</time>
      </trkpt>
      <trkpt lat="47.28309" lon="4.92026">
        <ele>573.79998779297</ele>
        <time>2014-10-17T14:25:06.000Z</time>
      </trkpt>
      <trkpt lat="47.28302" lon="4.92021">
        <ele>573</ele>
        <time>2014-10-17T14:25:12.000Z</time>
      </trkpt>
      <trkpt lat="47.28293" lon="4.92017">
        <ele>572.40002441406</ele>
        <time>2014-10-17T14:25:18.000Z</time>
      </trkpt>
      <trkpt lat="47.28284" lon="4.92015">
        <ele>572.20001220703</ele>
        <time>2014-10-17T14:25:24.000Z</time>
      </trkpt>
      <trkpt lat="47.28275" lon="4.92013">
        <ele>572</ele>
        <time>2014-10-17T14:25:30.000Z</time>
      </trkpt>
      <trkpt lat="47.28268" lon="4.92013">
        <ele>572.20001220703</ele>
        <time>2014-10-17T14:25:35.000Z</time>
      </trkpt>
      <trkpt lat="47.28258" lon="4.92016">
        <ele>573</ele>
        <time>2014-10-17T14:25:42.000Z</time>
      </trkpt>
      <trkpt lat="47.28248" lon="4.92019">
        <ele>573.79998779297</ele>
        <time>2014-10-17T14:25:49.000Z</time>
      </trkpt>
      <trkpt lat="47.28238" lon="4.92021">
        <ele>574.59997558594</ele>
        <time>2014-10-17T14:25:56.000Z</time>
      </trkpt>
      <trkpt lat="47.28229" lon="4.92019">
        <ele>574.40002441406</ele>
        <time>2014-10-17T14:26:02.000Z</time>
      </trkpt>
      <trkpt lat="47.2822" lon="4.92013">
        <ele>573.40002441406</ele>
        <time>2014-10-17T14:26:09.000Z</time>
      </trkpt>
      <trkpt lat="47.28209" lon="4.92002">
        <ele>571.40002441406</ele>
        <time>2014-10-17T14:26:17.000Z</time>
      </trkpt>
      <trkpt lat="47.28199" lon="4.91994">
        <ele>570.20001220703</ele>
        <time>2014-10-17T14:26:25.000Z</time>
      </trkpt>
      <trkpt lat="47.28196" lon="4.91993">
        <ele>570.20001220703</ele>
        <time>2014-10-17T14:26:27.000Z</time>
      </trkpt>
      <trkpt lat="47.28188" lon="4.91989">
        <ele>569.40002441406</ele>
        <time>2014-10-17T14:26:33.000Z</time>
      </trkpt>
      <trkpt lat="47.28184" lon="4.91988">
        <ele>569.20001220703</ele>
        <time>2014-10-17T14:26:36.000Z</time>
      </trkpt>
      <trkpt lat="47.28172" lon="4.91985">
        <ele>568.79998779297</ele>
        <time>2014-10-17T14:26:45.000Z</time>
      </trkpt>
      <trkpt lat="47.28163" lon="4.91985">
        <ele>568.59997558594</ele>
        <time>2014-10-17T14:26:52.000Z</time>
      </trkpt>
      <trkpt lat="47.28159" lon="4.91985">
        <ele>568.79998779297</ele>
        <time>2014-10-17T14:26:55.000Z</time>
      </trkpt>
      <trkpt lat="47.28148" lon="4.91991">
        <ele>570</ele>
        <time>2014-10-17T14:27:03.000Z</time>
      </trkpt>
      <trkpt lat="47.28145" lon="4.91992">
        <ele>570.20001220703</ele>
        <time>2014-10-17T14:27:05.000Z</time>
      </trkpt>
      <trkpt lat="47.2814" lon="4.91995">
        <ele>571</ele>
        <time>2014-10-17T14:27:09.000Z</time>
      </trkpt>
      <trkpt lat="47.28133" lon="4.92007">
        <ele>573.20001220703</ele>
        <time>2014-10-17T14:27:17.000Z</time>
      </trkpt>
      <trkpt lat="47.28127" lon="4.92019">
        <ele>573.59997558594</ele>
        <time>2014-10-17T14:27:24.000Z</time>
      </trkpt>
      <trkpt lat="47.28121" lon="4.92033">
        <ele>573.59997558594</ele>
        <time>2014-10-17T14:27:31.000Z</time>
      </trkpt>
      <trkpt lat="47.28117" lon="4.92042">
        <ele>573.59997558594</ele>
        <time>2014-10-17T14:27:38.000Z</time>
      </trkpt>
      <trkpt lat="47.28114" lon="4.9205">
        <ele>573.20001220703</ele>
        <time>2014-10-17T14:27:45.000Z</time>
      </trkpt>
      <trkpt lat="47.28112" lon="4.92054">
        <ele>573</ele>
        <time>2014-10-17T14:27:48.000Z</time>
      </trkpt>
      <trkpt lat="47.28114" lon="4.92068">
        <ele>573</ele>
        <time>2014-10-17T14:27:55.000Z</time>
      </trkpt>
      <trkpt lat="47.28116" lon="4.92071">
        <ele>573</ele>
        <time>2014-10-17T14:27:57.000Z</time>
      </trkpt>
      <trkpt lat="47.28117" lon="4.92074">
        <ele>573.20001220703</ele>
        <time>2014-10-17T14:27:59.000Z</time>
      </trkpt>
      <trkpt lat="47.28114" lon="4.92078">
        <ele>572.59997558594</ele>
        <time>2014-10-17T14:28:04.000Z</time>
      </trkpt>
      <trkpt lat="47.28114" lon="4.9208">
        <ele>572.20001220703</ele>
        <time>2014-10-17T14:28:05.000Z</time>
      </trkpt>
      <trkpt lat="47.28112" lon="4.92082">
        <ele>571.59997558594</ele>
        <time>2014-10-17T14:28:07.000Z</time>
      </trkpt>
      <trkpt lat="47.2811" lon="4.92086">
        <ele>570.79998779297</ele>
        <time>2014-10-17T14:28:27.000Z</time>
      </trkpt>
      <trkpt lat="47.2811" lon="4.92085">
        <ele>570.79998779297</ele>
        <time>2014-10-17T14:28:38.000Z</time>
      </trkpt>
      <trkpt lat="47.28109" lon="4.92086">
        <ele>570.40002441406</ele>
        <time>2014-10-17T14:28:58.000Z</time>
      </trkpt>
      <trkpt lat="47.28111" lon="4.9208">
        <ele>571.59997558594</ele>
        <time>2014-10-17T14:29:08.000Z</time>
      </trkpt>
      <trkpt lat="47.28112" lon="4.9208">
        <ele>571.79998779297</ele>
        <time>2014-10-17T14:29:09.000Z</time>
      </trkpt>
      <trkpt lat="47.28115" lon="4.92084">
        <ele>572</ele>
        <time>2014-10-17T14:29:13.000Z</time>
      </trkpt>
      <trkpt lat="47.28124" lon="4.92101">
        <ele>571.59997558594</ele>
        <time>2014-10-17T14:29:24.000Z</time>
      </trkpt>
      <trkpt lat="47.2813" lon="4.92113">
        <ele>571.59997558594</ele>
        <time>2014-10-17T14:29:31.000Z</time>
      </trkpt>
      <trkpt lat="47.28138" lon="4.92123">
        <ele>572</ele>
        <time>2014-10-17T14:29:38.000Z</time>
      </trkpt>
      <trkpt lat="47.28145" lon="4.92133">
        <ele>572.59997558594</ele>
        <time>2014-10-17T14:29:45.000Z</time>
      </trkpt>
      <trkpt lat="47.28147" lon="4.92135">
        <ele>573</ele>
        <time>2014-10-17T14:29:47.000Z</time>
      </trkpt>
      <trkpt lat="47.28154" lon="4.92147">
        <ele>573.40002441406</ele>
        <time>2014-10-17T14:29:55.000Z</time>
      </trkpt>
      <trkpt lat="47.28161" lon="4.92159">
        <ele>574</ele>
        <time>2014-10-17T14:30:02.000Z</time>
      </trkpt>
      <trkpt lat="47.28168" lon="4.92172">
        <ele>574</ele>
        <time>2014-10-17T14:30:10.000Z</time>
      </trkpt>
      <trkpt lat="47.28169" lon="4.92174">
        <ele>574</ele>
        <time>2014-10-17T14:30:11.000Z</time>
      </trkpt>
      <trkpt lat="47.28176" lon="4.92189">
        <ele>573.79998779297</ele>
        <time>2014-10-17T14:30:20.000Z</time>
      </trkpt>
      <trkpt lat="47.28186" lon="4.92206">
        <ele>573.59997558594</ele>
        <time>2014-10-17T14:30:30.000Z</time>
      </trkpt>
      <trkpt lat="47.28189" lon="4.92211">
        <ele>573.59997558594</ele>
        <time>2014-10-17T14:30:34.000Z</time>
      </trkpt>
      <trkpt lat="47.28189" lon="4.92214">
        <ele>573.40002441406</ele>
        <time>2014-10-17T14:30:39.000Z</time>
      </trkpt>
      <trkpt lat="47.28193" lon="4.92215">
        <ele>573.79998779297</ele>
        <time>2014-10-17T14:30:50.000Z</time>
      </trkpt>
      <trkpt lat="47.282" lon="4.9222">
        <ele>574.20001220703</ele>
        <time>2014-10-17T14:30:56.000Z</time>
      </trkpt>
      <trkpt lat="47.28211" lon="4.92227">
        <ele>575</ele>
        <time>2014-10-17T14:31:04.000Z</time>
      </trkpt>
      <trkpt lat="47.28219" lon="4.92232">
        <ele>575.59997558594</ele>
        <time>2014-10-17T14:31:10.000Z</time>
      </trkpt>
      <trkpt lat="47.2823" lon="4.9224">
        <ele>576.20001220703</ele>
        <time>2014-10-17T14:31:18.000Z</time>
      </trkpt>
      <trkpt lat="47.28234" lon="4.92245">
        <ele>576.40002441406</ele>
        <time>2014-10-17T14:31:22.000Z</time>
      </trkpt>
      <trkpt lat="47.28245" lon="4.9226">
        <ele>576.59997558594</ele>
        <time>2014-10-17T14:31:32.000Z</time>
      </trkpt>
      <trkpt lat="47.28248" lon="4.92266">
        <ele>576.59997558594</ele>
        <time>2014-10-17T14:31:36.000Z</time>
      </trkpt>
      <trkpt lat="47.28254" lon="4.92272">
        <ele>576.79998779297</ele>
        <time>2014-10-17T14:31:41.000Z</time>
      </trkpt>
      <trkpt lat="47.28257" lon="4.92276">
        <ele>576.79998779297</ele>
        <time>2014-10-17T14:31:44.000Z</time>
      </trkpt>
      <trkpt lat="47.28259" lon="4.9228">
        <ele>576.79998779297</ele>
        <time>2014-10-17T14:31:46.000Z</time>
      </trkpt>
      <trkpt lat="47.2826" lon="4.92281">
        <ele>577</ele>
        <time>2014-10-17T14:31:47.000Z</time>
      </trkpt>
      <trkpt lat="47.28264" lon="4.92288">
        <ele>576.79998779297</ele>
        <time>2014-10-17T14:31:52.000Z</time>
      </trkpt>
      <trkpt lat="47.28272" lon="4.92302">
        <ele>577.20001220703</ele>
        <time>2014-10-17T14:32:01.000Z</time>
      </trkpt>
      <trkpt lat="47.28279" lon="4.92313">
        <ele>577.59997558594</ele>
        <time>2014-10-17T14:32:08.000Z</time>
      </trkpt>
      <trkpt lat="47.28281" lon="4.92316">
        <ele>577.79998779297</ele>
        <time>2014-10-17T14:32:10.000Z</time>
      </trkpt>
      <trkpt lat="47.28289" lon="4.92328">
        <ele>578.20001220703</ele>
        <time>2014-10-17T14:32:18.000Z</time>
      </trkpt>
      <trkpt lat="47.28295" lon="4.92338">
        <ele>578.59997558594</ele>
        <time>2014-10-17T14:32:25.000Z</time>
      </trkpt>
      <trkpt lat="47.28296" lon="4.92341">
        <ele>578.40002441406</ele>
        <time>2014-10-17T14:32:27.000Z</time>
      </trkpt>
      <trkpt lat="47.28298" lon="4.92344">
        <ele>578.59997558594</ele>
        <time>2014-10-17T14:32:29.000Z</time>
      </trkpt>
      <trkpt lat="47.28306" lon="4.92356">
        <ele>578.40002441406</ele>
        <time>2014-10-17T14:32:37.000Z</time>
      </trkpt>
      <trkpt lat="47.28307" lon="4.92357">
        <ele>578.59997558594</ele>
        <time>2014-10-17T14:32:38.000Z</time>
      </trkpt>
      <trkpt lat="47.28308" lon="4.92359">
        <ele>578.40002441406</ele>
        <time>2014-10-17T14:32:39.000Z</time>
      </trkpt>
      <trkpt lat="47.28312" lon="4.92366">
        <ele>578.40002441406</ele>
        <time>2014-10-17T14:32:43.000Z</time>
      </trkpt>
      <trkpt lat="47.2832" lon="4.92379">
        <ele>578.40002441406</ele>
        <time>2014-10-17T14:32:51.000Z</time>
      </trkpt>
      <trkpt lat="47.28326" lon="4.92387">
        <ele>578.79998779297</ele>
        <time>2014-10-17T14:32:57.000Z</time>
      </trkpt>
      <trkpt lat="47.28328" lon="4.9239">
        <ele>578.79998779297</ele>
        <time>2014-10-17T14:32:59.000Z</time>
      </trkpt>
      <trkpt lat="47.28333" lon="4.924">
        <ele>578.59997558594</ele>
        <time>2014-10-17T14:33:05.000Z</time>
      </trkpt>
      <trkpt lat="47.28334" lon="4.92402">
        <ele>578.40002441406</ele>
        <time>2014-10-17T14:33:06.000Z</time>
      </trkpt>
      <trkpt lat="47.2834" lon="4.92413">
        <ele>578</ele>
        <time>2014-10-17T14:33:12.000Z</time>
      </trkpt>
      <trkpt lat="47.28342" lon="4.92416">
        <ele>578</ele>
        <time>2014-10-17T14:33:14.000Z</time>
      </trkpt>
      <trkpt lat="47.28358" lon="4.9244">
        <ele>577.20001220703</ele>
        <time>2014-10-17T14:33:29.000Z</time>
      </trkpt>
      <trkpt lat="47.2836" lon="4.92443">
        <ele>577.20001220703</ele>
        <time>2014-10-17T14:33:31.000Z</time>
      </trkpt>
      <trkpt lat="47.28362" lon="4.92447">
        <ele>576.79998779297</ele>
        <time>2014-10-17T14:33:33.000Z</time>
      </trkpt>
      <trkpt lat="47.28368" lon="4.92458">
        <ele>576.59997558594</ele>
        <time>2014-10-17T14:33:40.000Z</time>
      </trkpt>
      <trkpt lat="47.2837" lon="4.92462">
        <ele>576.59997558594</ele>
        <time>2014-10-17T14:33:42.000Z</time>
      </trkpt>
      <trkpt lat="47.28376" lon="4.92473">
        <ele>576.79998779297</ele>
        <time>2014-10-17T14:33:49.000Z</time>
      </trkpt>
      <trkpt lat="47.2838" lon="4.9248">
        <ele>577</ele>
        <time>2014-10-17T14:33:54.000Z</time>
      </trkpt>
      <trkpt lat="47.28387" lon="4.9249">
        <ele>577.40002441406</ele>
        <time>2014-10-17T14:34:00.000Z</time>
      </trkpt>
      <trkpt lat="47.2839" lon="4.92494">
        <ele>577.40002441406</ele>
        <time>2014-10-17T14:34:03.000Z</time>
      </trkpt>
      <trkpt lat="47.28395" lon="4.92501">
        <ele>577.79998779297</ele>
        <time>2014-10-17T14:34:08.000Z</time>
      </trkpt>
      <trkpt lat="47.28397" lon="4.92505">
        <ele>577.79998779297</ele>
        <time>2014-10-17T14:34:10.000Z</time>
      </trkpt>
      <trkpt lat="47.28402" lon="4.92512">
        <ele>578</ele>
        <time>2014-10-17T14:34:14.000Z</time>
      </trkpt>
      <trkpt lat="47.28404" lon="4.9252">
        <ele>578</ele>
        <time>2014-10-17T14:34:18.000Z</time>
      </trkpt>
      <trkpt lat="47.2841" lon="4.92531">
        <ele>578</ele>
        <time>2014-10-17T14:34:25.000Z</time>
      </trkpt>
      <trkpt lat="47.28417" lon="4.92538">
        <ele>578.40002441406</ele>
        <time>2014-10-17T14:34:31.000Z</time>
      </trkpt>
      <trkpt lat="47.28424" lon="4.92544">
        <ele>578.79998779297</ele>
        <time>2014-10-17T14:34:36.000Z</time>
      </trkpt>
      <trkpt lat="47.28426" lon="4.92545">
        <ele>578.79998779297</ele>
        <time>2014-10-17T14:34:37.000Z</time>
      </trkpt>
      <trkpt lat="47.2843" lon="4.92549">
        <ele>579</ele>
        <time>2014-10-17T14:34:41.000Z</time>
      </trkpt>
      <trkpt lat="47.28437" lon="4.92557">
        <ele>579.59997558594</ele>
        <time>2014-10-17T14:34:47.000Z</time>
      </trkpt>
      <trkpt lat="47.28438" lon="4.92557">
        <ele>579.59997558594</ele>
        <time>2014-10-17T14:34:48.000Z</time>
      </trkpt>
      <trkpt lat="47.28443" lon="4.92561">
        <ele>579.79998779297</ele>
        <time>2014-10-17T14:34:52.000Z</time>
      </trkpt>
      <trkpt lat="47.28444" lon="4.92562">
        <ele>580</ele>
        <time>2014-10-17T14:34:53.000Z</time>
      </trkpt>
      <trkpt lat="47.28448" lon="4.92568">
        <ele>580.20001220703</ele>
        <time>2014-10-17T14:34:57.000Z</time>
      </trkpt>
      <trkpt lat="47.2845" lon="4.9257">
        <ele>580.40002441406</ele>
        <time>2014-10-17T14:34:59.000Z</time>
      </trkpt>
      <trkpt lat="47.28454" lon="4.92573">
        <ele>580.59997558594</ele>
        <time>2014-10-17T14:35:02.000Z</time>
      </trkpt>
      <trkpt lat="47.28461" lon="4.9258">
        <ele>581</ele>
        <time>2014-10-17T14:35:08.000Z</time>
      </trkpt>
      <trkpt lat="47.28465" lon="4.92584">
        <ele>581.20001220703</ele>
        <time>2014-10-17T14:35:11.000Z</time>
      </trkpt>
      <trkpt lat="47.28468" lon="4.92586">
        <ele>581.40002441406</ele>
        <time>2014-10-17T14:35:14.000Z</time>
      </trkpt>
      <trkpt lat="47.28476" lon="4.926">
        <ele>581.79998779297</ele>
        <time>2014-10-17T14:35:22.000Z</time>
      </trkpt>
      <trkpt lat="47.28478" lon="4.92606">
        <ele>581.79998779297</ele>
        <time>2014-10-17T14:35:27.000Z</time>
      </trkpt>
      <trkpt lat="47.2848" lon="4.92608">
        <ele>582</ele>
        <time>2014-10-17T14:35:31.000Z</time>
      </trkpt>
      <trkpt lat="47.28484" lon="4.92616">
        <ele>581.79998779297</ele>
        <time>2014-10-17T14:35:36.000Z</time>
      </trkpt>
      <trkpt lat="47.28484" lon="4.92628">
        <ele>581</ele>
        <time>2014-10-17T14:35:43.000Z</time>
      </trkpt>
      <trkpt lat="47.28483" lon="4.92638">
        <ele>580.59997558594</ele>
        <time>2014-10-17T14:35:48.000Z</time>
      </trkpt>
      <trkpt lat="47.2848" lon="4.92644">
        <ele>580.20001220703</ele>
        <time>2014-10-17T14:35:52.000Z</time>
      </trkpt>
      <trkpt lat="47.28478" lon="4.9265">
        <ele>579.79998779297</ele>
        <time>2014-10-17T14:35:55.000Z</time>
      </trkpt>
      <trkpt lat="47.28472" lon="4.92665">
        <ele>578.79998779297</ele>
        <time>2014-10-17T14:36:02.000Z</time>
      </trkpt>
      <trkpt lat="47.28468" lon="4.9267">
        <ele>578</ele>
        <time>2014-10-17T14:36:06.000Z</time>
      </trkpt>
      <trkpt lat="47.28463" lon="4.92674">
        <ele>577.20001220703</ele>
        <time>2014-10-17T14:36:13.000Z</time>
      </trkpt>
      <trkpt lat="47.28459" lon="4.92678">
        <ele>576.59997558594</ele>
        <time>2014-10-17T14:36:19.000Z</time>
      </trkpt>
      <trkpt lat="47.28451" lon="4.92681">
        <ele>575.40002441406</ele>
        <time>2014-10-17T14:36:26.000Z</time>
      </trkpt>
      <trkpt lat="47.28443" lon="4.92686">
        <ele>574.40002441406</ele>
        <time>2014-10-17T14:36:32.000Z</time>
      </trkpt>
      <trkpt lat="47.28441" lon="4.92687">
        <ele>574</ele>
        <time>2014-10-17T14:36:34.000Z</time>
      </trkpt>
      <trkpt lat="47.28432" lon="4.92693">
        <ele>572.59997558594</ele>
        <time>2014-10-17T14:36:40.000Z</time>
      </trkpt>
      <trkpt lat="47.28424" lon="4.92698">
        <ele>571.59997558594</ele>
        <time>2014-10-17T14:36:46.000Z</time>
      </trkpt>
      <trkpt lat="47.28423" lon="4.92699">
        <ele>571.40002441406</ele>
        <time>2014-10-17T14:36:47.000Z</time>
      </trkpt>
      <trkpt lat="47.28422" lon="4.92701">
        <ele>571.20001220703</ele>
        <time>2014-10-17T14:36:48.000Z</time>
      </trkpt>
      <trkpt lat="47.28415" lon="4.92707">
        <ele>570.20001220703</ele>
        <time>2014-10-17T14:36:54.000Z</time>
      </trkpt>
      <trkpt lat="47.28412" lon="4.92708">
        <ele>569.79998779297</ele>
        <time>2014-10-17T14:36:56.000Z</time>
      </trkpt>
      <trkpt lat="47.28406" lon="4.92714">
        <ele>568.59997558594</ele>
        <time>2014-10-17T14:37:01.000Z</time>
      </trkpt>
      <trkpt lat="47.28398" lon="4.92721">
        <ele>566.59997558594</ele>
        <time>2014-10-17T14:37:07.000Z</time>
      </trkpt>
      <trkpt lat="47.28392" lon="4.92726">
        <ele>565.40002441406</ele>
        <time>2014-10-17T14:37:12.000Z</time>
      </trkpt>
      <trkpt lat="47.28386" lon="4.92733">
        <ele>564.20001220703</ele>
        <time>2014-10-17T14:37:18.000Z</time>
      </trkpt>
      <trkpt lat="47.28386" lon="4.92734">
        <ele>564</ele>
        <time>2014-10-17T14:37:19.000Z</time>
      </trkpt>
      <trkpt lat="47.28379" lon="4.92743">
        <ele>562.79998779297</ele>
        <time>2014-10-17T14:37:25.000Z</time>
      </trkpt>
      <trkpt lat="47.28374" lon="4.9275">
        <ele>562</ele>
        <time>2014-10-17T14:37:30.000Z</time>
      </trkpt>
      <trkpt lat="47.2837" lon="4.9276">
        <ele>562.79998779297</ele>
        <time>2014-10-17T14:37:36.000Z</time>
      </trkpt>
      <trkpt lat="47.28367" lon="4.92765">
        <ele>563.20001220703</ele>
        <time>2014-10-17T14:37:39.000Z</time>
      </trkpt>
      <trkpt lat="47.28366" lon="4.92767">
        <ele>563.40002441406</ele>
        <time>2014-10-17T14:37:40.000Z</time>
      </trkpt>
      <trkpt lat="47.28363" lon="4.92772">
        <ele>564</ele>
        <time>2014-10-17T14:37:43.000Z</time>
      </trkpt>
      <trkpt lat="47.28359" lon="4.92783">
        <ele>565.59997558594</ele>
        <time>2014-10-17T14:37:50.000Z</time>
      </trkpt>
      <trkpt lat="47.28359" lon="4.92785">
        <ele>565.79998779297</ele>
        <time>2014-10-17T14:37:51.000Z</time>
      </trkpt>
      <trkpt lat="47.28354" lon="4.92791">
        <ele>566.20001220703</ele>
        <time>2014-10-17T14:37:55.000Z</time>
      </trkpt>
      <trkpt lat="47.28347" lon="4.92801">
        <ele>565.20001220703</ele>
        <time>2014-10-17T14:38:02.000Z</time>
      </trkpt>
      <trkpt lat="47.2834" lon="4.9281">
        <ele>565.40002441406</ele>
        <time>2014-10-17T14:38:08.000Z</time>
      </trkpt>
      <trkpt lat="47.28337" lon="4.92817">
        <ele>566</ele>
        <time>2014-10-17T14:38:12.000Z</time>
      </trkpt>
      <trkpt lat="47.28331" lon="4.9283">
        <ele>567.40002441406</ele>
        <time>2014-10-17T14:38:20.000Z</time>
      </trkpt>
      <trkpt lat="47.28327" lon="4.9284">
        <ele>568.20001220703</ele>
        <time>2014-10-17T14:38:25.000Z</time>
      </trkpt>
      <trkpt lat="47.28323" lon="4.92852">
        <ele>569.40002441406</ele>
        <time>2014-10-17T14:38:32.000Z</time>
      </trkpt>
      <trkpt lat="47.28317" lon="4.92866">
        <ele>571.20001220703</ele>
        <time>2014-10-17T14:38:40.000Z</time>
      </trkpt>
      <trkpt lat="47.28316" lon="4.92867">
        <ele>571.59997558594</ele>
        <time>2014-10-17T14:38:41.000Z</time>
      </trkpt>
      <trkpt lat="47.28313" lon="4.92874">
        <ele>573</ele>
        <time>2014-10-17T14:38:45.000Z</time>
      </trkpt>
      <trkpt lat="47.28307" lon="4.92881">
        <ele>573.40002441406</ele>
        <time>2014-10-17T14:38:50.000Z</time>
      </trkpt>
      <trkpt lat="47.28302" lon="4.92886">
        <ele>573.59997558594</ele>
        <time>2014-10-17T14:38:58.000Z</time>
      </trkpt>
      <trkpt lat="47.28298" lon="4.92886">
        <ele>573.59997558594</ele>
        <time>2014-10-17T14:39:01.000Z</time>
      </trkpt>
      <trkpt lat="47.2829" lon="4.92881">
        <ele>573.40002441406</ele>
        <time>2014-10-17T14:39:08.000Z</time>
      </trkpt>
      <trkpt lat="47.28288" lon="4.92877">
        <ele>573.20001220703</ele>
        <time>2014-10-17T14:39:11.000Z</time>
      </trkpt>
      <trkpt lat="47.28287" lon="4.92871">
        <ele>572.40002441406</ele>
        <time>2014-10-17T14:39:15.000Z</time>
      </trkpt>
      <trkpt lat="47.28287" lon="4.92867">
        <ele>571.59997558594</ele>
        <time>2014-10-17T14:39:17.000Z</time>
      </trkpt>
      <trkpt lat="47.28288" lon="4.92865">
        <ele>571</ele>
        <time>2014-10-17T14:39:19.000Z</time>
      </trkpt>
      <trkpt lat="47.28289" lon="4.92854">
        <ele>568.79998779297</ele>
        <time>2014-10-17T14:39:24.000Z</time>
      </trkpt>
      <trkpt lat="47.28289" lon="4.92852">
        <ele>568.40002441406</ele>
        <time>2014-10-17T14:39:25.000Z</time>
      </trkpt>
      <trkpt lat="47.28289" lon="4.92848">
        <ele>567.40002441406</ele>
        <time>2014-10-17T14:39:27.000Z</time>
      </trkpt>
      <trkpt lat="47.28286" lon="4.92836">
        <ele>564.79998779297</ele>
        <time>2014-10-17T14:39:33.000Z</time>
      </trkpt>
      <trkpt lat="47.28284" lon="4.92833">
        <ele>564.20001220703</ele>
        <time>2014-10-17T14:39:35.000Z</time>
      </trkpt>
      <trkpt lat="47.28278" lon="4.92825">
        <ele>562.40002441406</ele>
        <time>2014-10-17T14:39:43.000Z</time>
      </trkpt>
      <trkpt lat="47.28273" lon="4.92824">
        <ele>562.20001220703</ele>
        <time>2014-10-17T14:39:49.000Z</time>
      </trkpt>
      <trkpt lat="47.28265" lon="4.92822">
        <ele>561.79998779297</ele>
        <time>2014-10-17T14:39:56.000Z</time>
      </trkpt>
      <trkpt lat="47.28264" lon="4.92822">
        <ele>561.79998779297</ele>
        <time>2014-10-17T14:39:57.000Z</time>
      </trkpt>
      <trkpt lat="47.28258" lon="4.92821">
        <ele>561.59997558594</ele>
        <time>2014-10-17T14:40:01.000Z</time>
      </trkpt>
      <trkpt lat="47.28249" lon="4.92822">
        <ele>561.79998779297</ele>
        <time>2014-10-17T14:40:08.000Z</time>
      </trkpt>
      <trkpt lat="47.2824" lon="4.92823">
        <ele>561.79998779297</ele>
        <time>2014-10-17T14:40:15.000Z</time>
      </trkpt>
      <trkpt lat="47.28237" lon="4.92823">
        <ele>561.59997558594</ele>
        <time>2014-10-17T14:40:17.000Z</time>
      </trkpt>
      <trkpt lat="47.28235" lon="4.92824">
        <ele>561.79998779297</ele>
        <time>2014-10-17T14:40:19.000Z</time>
      </trkpt>
      <trkpt lat="47.28226" lon="4.92825">
        <ele>561.59997558594</ele>
        <time>2014-10-17T14:40:26.000Z</time>
      </trkpt>
      <trkpt lat="47.28222" lon="4.92826">
        <ele>561.59997558594</ele>
        <time>2014-10-17T14:40:29.000Z</time>
      </trkpt>
      <trkpt lat="47.28216" lon="4.92828">
        <ele>561.59997558594</ele>
        <time>2014-10-17T14:40:34.000Z</time>
      </trkpt>
      <trkpt lat="47.28204" lon="4.92834">
        <ele>562.40002441406</ele>
        <time>2014-10-17T14:40:43.000Z</time>
      </trkpt>
      <trkpt lat="47.28203" lon="4.92833">
        <ele>562.20001220703</ele>
        <time>2014-10-17T14:40:44.000Z</time>
      </trkpt>
      <trkpt lat="47.28198" lon="4.92824">
        <ele>559.79998779297</ele>
        <time>2014-10-17T14:40:50.000Z</time>
      </trkpt>
      <trkpt lat="47.28197" lon="4.92823">
        <ele>559.59997558594</ele>
        <time>2014-10-17T14:40:51.000Z</time>
      </trkpt>
      <trkpt lat="47.28191" lon="4.92812">
        <ele>557</ele>
        <time>2014-10-17T14:40:58.000Z</time>
      </trkpt>
      <trkpt lat="47.28189" lon="4.9281">
        <ele>556.40002441406</ele>
        <time>2014-10-17T14:41:04.000Z</time>
      </trkpt>
      <trkpt lat="47.28192" lon="4.92817">
        <ele>558</ele>
        <time>2014-10-17T14:41:10.000Z</time>
      </trkpt>
      <trkpt lat="47.28192" lon="4.92818">
        <ele>558.40002441406</ele>
        <time>2014-10-17T14:41:11.000Z</time>
      </trkpt>
      <trkpt lat="47.28195" lon="4.92821">
        <ele>559.20001220703</ele>
        <time>2014-10-17T14:41:14.000Z</time>
      </trkpt>
      <trkpt lat="47.28196" lon="4.92825">
        <ele>560</ele>
        <time>2014-10-17T14:41:17.000Z</time>
      </trkpt>
      <trkpt lat="47.2819" lon="4.92832">
        <ele>561.59997558594</ele>
        <time>2014-10-17T14:41:25.000Z</time>
      </trkpt>
      <trkpt lat="47.28189" lon="4.92833">
        <ele>561.79998779297</ele>
        <time>2014-10-17T14:41:26.000Z</time>
      </trkpt>
      <trkpt lat="47.28181" lon="4.9284">
        <ele>563.20001220703</ele>
        <time>2014-10-17T14:41:33.000Z</time>
      </trkpt>
      <trkpt lat="47.2818" lon="4.9284">
        <ele>563.40002441406</ele>
        <time>2014-10-17T14:41:34.000Z</time>
      </trkpt>
      <trkpt lat="47.28175" lon="4.92844">
        <ele>564.20001220703</ele>
        <time>2014-10-17T14:41:39.000Z</time>
      </trkpt>
      <trkpt lat="47.28171" lon="4.92846">
        <ele>564.40002441406</ele>
        <time>2014-10-17T14:41:43.000Z</time>
      </trkpt>
      <trkpt lat="47.28168" lon="4.92849">
        <ele>565.20001220703</ele>
        <time>2014-10-17T14:41:46.000Z</time>
      </trkpt>
      <trkpt lat="47.28163" lon="4.92853">
        <ele>566.20001220703</ele>
        <time>2014-10-17T14:41:51.000Z</time>
      </trkpt>
      <trkpt lat="47.28159" lon="4.92854">
        <ele>566.20001220703</ele>
        <time>2014-10-17T14:41:54.000Z</time>
      </trkpt>
      <trkpt lat="47.2815" lon="4.92859">
        <ele>567.40002441406</ele>
        <time>2014-10-17T14:42:02.000Z</time>
      </trkpt>
      <trkpt lat="47.28146" lon="4.92861">
        <ele>567.79998779297</ele>
        <time>2014-10-17T14:42:05.000Z</time>
      </trkpt>
      <trkpt lat="47.2814" lon="4.92863">
        <ele>568.20001220703</ele>
        <time>2014-10-17T14:42:10.000Z</time>
      </trkpt>
      <trkpt lat="47.2813" lon="4.92864">
        <ele>568.59997558594</ele>
        <time>2014-10-17T14:42:18.000Z</time>
      </trkpt>
      <trkpt lat="47.28122" lon="4.92865">
        <ele>568.79998779297</ele>
        <time>2014-10-17T14:42:25.000Z</time>
      </trkpt>
      <trkpt lat="47.28115" lon="4.92867">
        <ele>569.20001220703</ele>
        <time>2014-10-17T14:42:29.000Z</time>
      </trkpt>
      <trkpt lat="47.28112" lon="4.92867">
        <ele>569.20001220703</ele>
        <time>2014-10-17T14:42:31.000Z</time>
      </trkpt>
      <trkpt lat="47.28102" lon="4.92869">
        <ele>569.79998779297</ele>
        <time>2014-10-17T14:42:38.000Z</time>
      </trkpt>
      <trkpt lat="47.281" lon="4.92869">
        <ele>570</ele>
        <time>2014-10-17T14:42:39.000Z</time>
      </trkpt>
      <trkpt lat="47.2809" lon="4.92872">
        <ele>570.59997558594</ele>
        <time>2014-10-17T14:42:46.000Z</time>
      </trkpt>
      <trkpt lat="47.28081" lon="4.92871">
        <ele>570.20001220703</ele>
        <time>2014-10-17T14:42:52.000Z</time>
      </trkpt>
      <trkpt lat="47.28074" lon="4.92871">
        <ele>570.40002441406</ele>
        <time>2014-10-17T14:42:57.000Z</time>
      </trkpt>
      <trkpt lat="47.28065" lon="4.92871">
        <ele>571</ele>
        <time>2014-10-17T14:43:03.000Z</time>
      </trkpt>
      <trkpt lat="47.28063" lon="4.92872">
        <ele>571</ele>
        <time>2014-10-17T14:43:04.000Z</time>
      </trkpt>
      <trkpt lat="47.28062" lon="4.92871">
        <ele>571</ele>
        <time>2014-10-17T14:43:05.000Z</time>
      </trkpt>
      <trkpt lat="47.28056" lon="4.9287">
        <ele>570.79998779297</ele>
        <time>2014-10-17T14:43:10.000Z</time>
      </trkpt>
      <trkpt lat="47.28055" lon="4.92869">
        <ele>570.79998779297</ele>
        <time>2014-10-17T14:43:11.000Z</time>
      </trkpt>
      <trkpt lat="47.28044" lon="4.92868">
        <ele>570.79998779297</ele>
        <time>2014-10-17T14:43:18.000Z</time>
      </trkpt>
      <trkpt lat="47.28032" lon="4.92866">
        <ele>570.59997558594</ele>
        <time>2014-10-17T14:43:26.000Z</time>
      </trkpt>
      <trkpt lat="47.28026" lon="4.92865">
        <ele>570.59997558594</ele>
        <time>2014-10-17T14:43:30.000Z</time>
      </trkpt>
      <trkpt lat="47.28021" lon="4.92866">
        <ele>571</ele>
        <time>2014-10-17T14:43:33.000Z</time>
      </trkpt>
      <trkpt lat="47.28015" lon="4.92864">
        <ele>570.79998779297</ele>
        <time>2014-10-17T14:43:38.000Z</time>
      </trkpt>
      <trkpt lat="47.28003" lon="4.92863">
        <ele>571</ele>
        <time>2014-10-17T14:43:46.000Z</time>
      </trkpt>
      <trkpt lat="47.27996" lon="4.9286">
        <ele>570.59997558594</ele>
        <time>2014-10-17T14:43:51.000Z</time>
      </trkpt>
      <trkpt lat="47.27988" lon="4.9286">
        <ele>570.79998779297</ele>
        <time>2014-10-17T14:43:56.000Z</time>
      </trkpt>
      <trkpt lat="47.27986" lon="4.92859">
        <ele>570.79998779297</ele>
        <time>2014-10-17T14:43:57.000Z</time>
      </trkpt>
      <trkpt lat="47.27977" lon="4.92857">
        <ele>570.40002441406</ele>
        <time>2014-10-17T14:44:03.000Z</time>
      </trkpt>
      <trkpt lat="47.27968" lon="4.92855">
        <ele>569.59997558594</ele>
        <time>2014-10-17T14:44:09.000Z</time>
      </trkpt>
      <trkpt lat="47.27958" lon="4.92852">
        <ele>568.40002441406</ele>
        <time>2014-10-17T14:44:16.000Z</time>
      </trkpt>
      <trkpt lat="47.27948" lon="4.92849">
        <ele>567.59997558594</ele>
        <time>2014-10-17T14:44:24.000Z</time>
      </trkpt>
      <trkpt lat="47.27941" lon="4.9285">
        <ele>567.20001220703</ele>
        <time>2014-10-17T14:44:30.000Z</time>
      </trkpt>
      <trkpt lat="47.2793" lon="4.92852">
        <ele>567.20001220703</ele>
        <time>2014-10-17T14:44:37.000Z</time>
      </trkpt>
      <trkpt lat="47.27929" lon="4.92852">
        <ele>567.20001220703</ele>
        <time>2014-10-17T14:44:38.000Z</time>
      </trkpt>
      <trkpt lat="47.27927" lon="4.92853">
        <ele>567.20001220703</ele>
        <time>2014-10-17T14:44:39.000Z</time>
      </trkpt>
      <trkpt lat="47.27918" lon="4.92859">
        <ele>567.79998779297</ele>
        <time>2014-10-17T14:44:45.000Z</time>
      </trkpt>
      <trkpt lat="47.27914" lon="4.92867">
        <ele>569</ele>
        <time>2014-10-17T14:44:51.000Z</time>
      </trkpt>
      <trkpt lat="47.27913" lon="4.92869">
        <ele>569.20001220703</ele>
        <time>2014-10-17T14:44:52.000Z</time>
      </trkpt>
      <trkpt lat="47.27913" lon="4.92871">
        <ele>569.59997558594</ele>
        <time>2014-10-17T14:44:53.000Z</time>
      </trkpt>
      <trkpt lat="47.27912" lon="4.92881">
        <ele>570</ele>
        <time>2014-10-17T14:44:59.000Z</time>
      </trkpt>
      <trkpt lat="47.27912" lon="4.92886">
        <ele>570.20001220703</ele>
        <time>2014-10-17T14:45:02.000Z</time>
      </trkpt>
      <trkpt lat="47.27917" lon="4.92898">
        <ele>571</ele>
        <time>2014-10-17T14:45:10.000Z</time>
      </trkpt>
      <trkpt lat="47.2792" lon="4.92904">
        <ele>571.40002441406</ele>
        <time>2014-10-17T14:45:14.000Z</time>
      </trkpt>
      <trkpt lat="47.27925" lon="4.92916">
        <ele>572.20001220703</ele>
        <time>2014-10-17T14:45:21.000Z</time>
      </trkpt>
      <trkpt lat="47.2793" lon="4.92925">
        <ele>573</ele>
        <time>2014-10-17T14:45:27.000Z</time>
      </trkpt>
      <trkpt lat="47.27935" lon="4.92934">
        <ele>573.79998779297</ele>
        <time>2014-10-17T14:45:33.000Z</time>
      </trkpt>
      <trkpt lat="47.27936" lon="4.92936">
        <ele>574</ele>
        <time>2014-10-17T14:45:34.000Z</time>
      </trkpt>
      <trkpt lat="47.27942" lon="4.92947">
        <ele>574.79998779297</ele>
        <time>2014-10-17T14:45:41.000Z</time>
      </trkpt>
      <trkpt lat="47.27944" lon="4.9295">
        <ele>575.20001220703</ele>
        <time>2014-10-17T14:45:44.000Z</time>
      </trkpt>
      <trkpt lat="47.27952" lon="4.92962">
        <ele>576</ele>
        <time>2014-10-17T14:45:52.000Z</time>
      </trkpt>
      <trkpt lat="47.27955" lon="4.92968">
        <ele>576</ele>
        <time>2014-10-17T14:45:57.000Z</time>
      </trkpt>
      <trkpt lat="47.27959" lon="4.92975">
        <ele>576.20001220703</ele>
        <time>2014-10-17T14:46:03.000Z</time>
      </trkpt>
      <trkpt lat="47.27966" lon="4.92987">
        <ele>576.20001220703</ele>
        <time>2014-10-17T14:46:11.000Z</time>
      </trkpt>
      <trkpt lat="47.27971" lon="4.92998">
        <ele>576.40002441406</ele>
        <time>2014-10-17T14:46:18.000Z</time>
      </trkpt>
      <trkpt lat="47.27974" lon="4.93005">
        <ele>576.20001220703</ele>
        <time>2014-10-17T14:46:23.000Z</time>
      </trkpt>
      <trkpt lat="47.2798" lon="4.93019">
        <ele>576.20001220703</ele>
        <time>2014-10-17T14:46:31.000Z</time>
      </trkpt>
      <trkpt lat="47.27981" lon="4.93021">
        <ele>576.20001220703</ele>
        <time>2014-10-17T14:46:32.000Z</time>
      </trkpt>
      <trkpt lat="47.27986" lon="4.9303">
        <ele>576.40002441406</ele>
        <time>2014-10-17T14:46:38.000Z</time>
      </trkpt>
      <trkpt lat="47.2799" lon="4.93038">
        <ele>576.20001220703</ele>
        <time>2014-10-17T14:46:43.000Z</time>
      </trkpt>
      <trkpt lat="47.27996" lon="4.93049">
        <ele>576</ele>
        <time>2014-10-17T14:46:49.000Z</time>
      </trkpt>
      <trkpt lat="47.28" lon="4.93059">
        <ele>575.59997558594</ele>
        <time>2014-10-17T14:46:55.000Z</time>
      </trkpt>
      <trkpt lat="47.28002" lon="4.9306">
        <ele>575.40002441406</ele>
        <time>2014-10-17T14:46:56.000Z</time>
      </trkpt>
      <trkpt lat="47.28007" lon="4.93067">
        <ele>575.40002441406</ele>
        <time>2014-10-17T14:47:01.000Z</time>
      </trkpt>
      <trkpt lat="47.28011" lon="4.93073">
        <ele>575.20001220703</ele>
        <time>2014-10-17T14:47:05.000Z</time>
      </trkpt>
      <trkpt lat="47.28013" lon="4.93075">
        <ele>575.20001220703</ele>
        <time>2014-10-17T14:47:07.000Z</time>
      </trkpt>
      <trkpt lat="47.28019" lon="4.93078">
        <ele>575.59997558594</ele>
        <time>2014-10-17T14:47:11.000Z</time>
      </trkpt>
      <trkpt lat="47.28023" lon="4.93086">
        <ele>575.40002441406</ele>
        <time>2014-10-17T14:47:16.000Z</time>
      </trkpt>
      <trkpt lat="47.28031" lon="4.93099">
        <ele>574.79998779297</ele>
        <time>2014-10-17T14:47:24.000Z</time>
      </trkpt>
      <trkpt lat="47.28035" lon="4.93105">
        <ele>574.59997558594</ele>
        <time>2014-10-17T14:47:28.000Z</time>
      </trkpt>
      <trkpt lat="47.28041" lon="4.93112">
        <ele>574.59997558594</ele>
        <time>2014-10-17T14:47:34.000Z</time>
      </trkpt>
      <trkpt lat="47.28047" lon="4.9312">
        <ele>574.59997558594</ele>
        <time>2014-10-17T14:47:39.000Z</time>
      </trkpt>
      <trkpt lat="47.28052" lon="4.93126">
        <ele>574.40002441406</ele>
        <time>2014-10-17T14:47:43.000Z</time>
      </trkpt>
      <trkpt lat="47.28054" lon="4.9313">
        <ele>574.40002441406</ele>
        <time>2014-10-17T14:47:45.000Z</time>
      </trkpt>
      <trkpt lat="47.28061" lon="4.93138">
        <ele>574.40002441406</ele>
        <time>2014-10-17T14:47:50.000Z</time>
      </trkpt>
      <trkpt lat="47.28064" lon="4.93142">
        <ele>574.40002441406</ele>
        <time>2014-10-17T14:47:54.000Z</time>
      </trkpt>
      <trkpt lat="47.28066" lon="4.93144">
        <ele>574.40002441406</ele>
        <time>2014-10-17T14:47:56.000Z</time>
      </trkpt>
      <trkpt lat="47.28073" lon="4.93146">
        <ele>575</ele>
        <time>2014-10-17T14:48:02.000Z</time>
      </trkpt>
      <trkpt lat="47.28074" lon="4.93146">
        <ele>575.20001220703</ele>
        <time>2014-10-17T14:48:03.000Z</time>
      </trkpt>
      <trkpt lat="47.2808" lon="4.93144">
        <ele>576.20001220703</ele>
        <time>2014-10-17T14:48:08.000Z</time>
      </trkpt>
      <trkpt lat="47.28085" lon="4.93143">
        <ele>576.59997558594</ele>
        <time>2014-10-17T14:48:12.000Z</time>
      </trkpt>
      <trkpt lat="47.28089" lon="4.93142">
        <ele>577</ele>
        <time>2014-10-17T14:48:16.000Z</time>
      </trkpt>
      <trkpt lat="47.28096" lon="4.93142">
        <ele>577.40002441406</ele>
        <time>2014-10-17T14:48:23.000Z</time>
      </trkpt>
      <trkpt lat="47.28101" lon="4.93148">
        <ele>577.20001220703</ele>
        <time>2014-10-17T14:48:29.000Z</time>
      </trkpt>
      <trkpt lat="47.28103" lon="4.93149">
        <ele>577.20001220703</ele>
        <time>2014-10-17T14:48:30.000Z</time>
      </trkpt>
      <trkpt lat="47.28114" lon="4.93157">
        <ele>577.20001220703</ele>
        <time>2014-10-17T14:48:39.000Z</time>
      </trkpt>
      <trkpt lat="47.28115" lon="4.93157">
        <ele>577.20001220703</ele>
        <time>2014-10-17T14:48:40.000Z</time>
      </trkpt>
      <trkpt lat="47.28124" lon="4.93165">
        <ele>577</ele>
        <time>2014-10-17T14:48:48.000Z</time>
      </trkpt>
      <trkpt lat="47.28131" lon="4.93172">
        <ele>576.79998779297</ele>
        <time>2014-10-17T14:48:54.000Z</time>
      </trkpt>
      <trkpt lat="47.28132" lon="4.93173">
        <ele>576.79998779297</ele>
        <time>2014-10-17T14:48:55.000Z</time>
      </trkpt>
      <trkpt lat="47.28137" lon="4.93178">
        <ele>576.79998779297</ele>
        <time>2014-10-17T14:48:59.000Z</time>
      </trkpt>
      <trkpt lat="47.28147" lon="4.93186">
        <ele>576.59997558594</ele>
        <time>2014-10-17T14:49:06.000Z</time>
      </trkpt>
      <trkpt lat="47.28152" lon="4.93194">
        <ele>576.40002441406</ele>
        <time>2014-10-17T14:49:11.000Z</time>
      </trkpt>
      <trkpt lat="47.2816" lon="4.932">
        <ele>576.20001220703</ele>
        <time>2014-10-17T14:49:18.000Z</time>
      </trkpt>
      <trkpt lat="47.28163" lon="4.93202">
        <ele>576.20001220703</ele>
        <time>2014-10-17T14:49:20.000Z</time>
      </trkpt>
      <trkpt lat="47.28169" lon="4.9321">
        <ele>576</ele>
        <time>2014-10-17T14:49:25.000Z</time>
      </trkpt>
      <trkpt lat="47.28174" lon="4.93215">
        <ele>576</ele>
        <time>2014-10-17T14:49:29.000Z</time>
      </trkpt>
      <trkpt lat="47.28181" lon="4.93225">
        <ele>575.79998779297</ele>
        <time>2014-10-17T14:49:36.000Z</time>
      </trkpt>
      <trkpt lat="47.28181" lon="4.93226">
        <ele>575.79998779297</ele>
        <time>2014-10-17T14:49:37.000Z</time>
      </trkpt>
      <trkpt lat="47.28183" lon="4.93233">
        <ele>575.40002441406</ele>
        <time>2014-10-17T14:49:41.000Z</time>
      </trkpt>
      <trkpt lat="47.28185" lon="4.93237">
        <ele>575.20001220703</ele>
        <time>2014-10-17T14:49:43.000Z</time>
      </trkpt>
      <trkpt lat="47.28185" lon="4.93248">
        <ele>574.59997558594</ele>
        <time>2014-10-17T14:49:49.000Z</time>
      </trkpt>
      <trkpt lat="47.28184" lon="4.93261">
        <ele>573.79998779297</ele>
        <time>2014-10-17T14:49:57.000Z</time>
      </trkpt>
      <trkpt lat="47.28184" lon="4.93263">
        <ele>573.59997558594</ele>
        <time>2014-10-17T14:49:58.000Z</time>
      </trkpt>
      <trkpt lat="47.28182" lon="4.9327">
        <ele>573.20001220703</ele>
        <time>2014-10-17T14:50:02.000Z</time>
      </trkpt>
      <trkpt lat="47.28183" lon="4.93282">
        <ele>572.40002441406</ele>
        <time>2014-10-17T14:50:08.000Z</time>
      </trkpt>
      <trkpt lat="47.28185" lon="4.93289">
        <ele>572.20001220703</ele>
        <time>2014-10-17T14:50:12.000Z</time>
      </trkpt>
      <trkpt lat="47.28192" lon="4.933">
        <ele>571.59997558594</ele>
        <time>2014-10-17T14:50:19.000Z</time>
      </trkpt>
      <trkpt lat="47.28195" lon="4.93308">
        <ele>571.40002441406</ele>
        <time>2014-10-17T14:50:24.000Z</time>
      </trkpt>
      <trkpt lat="47.28205" lon="4.93318">
        <ele>571</ele>
        <time>2014-10-17T14:50:33.000Z</time>
      </trkpt>
      <trkpt lat="47.28211" lon="4.93324">
        <ele>570.79998779297</ele>
        <time>2014-10-17T14:50:37.000Z</time>
      </trkpt>
      <trkpt lat="47.28212" lon="4.93324">
        <ele>571</ele>
        <time>2014-10-17T14:50:38.000Z</time>
      </trkpt>
      <trkpt lat="47.28217" lon="4.93329">
        <ele>570.79998779297</ele>
        <time>2014-10-17T14:50:42.000Z</time>
      </trkpt>
      <trkpt lat="47.28221" lon="4.93332">
        <ele>570.79998779297</ele>
        <time>2014-10-17T14:50:46.000Z</time>
      </trkpt>
      <trkpt lat="47.28222" lon="4.93333">
        <ele>570.79998779297</ele>
        <time>2014-10-17T14:50:47.000Z</time>
      </trkpt>
      <trkpt lat="47.28223" lon="4.93334">
        <ele>570.79998779297</ele>
        <time>2014-10-17T14:50:48.000Z</time>
      </trkpt>
      <trkpt lat="47.28229" lon="4.93341">
        <ele>570.59997558594</ele>
        <time>2014-10-17T14:50:54.000Z</time>
      </trkpt>
      <trkpt lat="47.2823" lon="4.93342">
        <ele>570.40002441406</ele>
        <time>2014-10-17T14:50:55.000Z</time>
      </trkpt>
      <trkpt lat="47.28234" lon="4.93346">
        <ele>570.40002441406</ele>
        <time>2014-10-17T14:50:58.000Z</time>
      </trkpt>
      <trkpt lat="47.28242" lon="4.93355">
        <ele>570.20001220703</ele>
        <time>2014-10-17T14:51:05.000Z</time>
      </trkpt>
      <trkpt lat="47.28247" lon="4.93361">
        <ele>570</ele>
        <time>2014-10-17T14:51:09.000Z</time>
      </trkpt>
      <trkpt lat="47.28252" lon="4.93368">
        <ele>569.59997558594</ele>
        <time>2014-10-17T14:51:14.000Z</time>
      </trkpt>
      <trkpt lat="47.28256" lon="4.93372">
        <ele>569.40002441406</ele>
        <time>2014-10-17T14:51:17.000Z</time>
      </trkpt>
      <trkpt lat="47.28265" lon="4.93381">
        <ele>568.79998779297</ele>
        <time>2014-10-17T14:51:24.000Z</time>
      </trkpt>
      <trkpt lat="47.2827" lon="4.93383">
        <ele>568.59997558594</ele>
        <time>2014-10-17T14:51:28.000Z</time>
      </trkpt>
      <trkpt lat="47.28277" lon="4.93389">
        <ele>568.20001220703</ele>
        <time>2014-10-17T14:51:33.000Z</time>
      </trkpt>
      <trkpt lat="47.28284" lon="4.93394">
        <ele>568</ele>
        <time>2014-10-17T14:51:40.000Z</time>
      </trkpt>
      <trkpt lat="47.28286" lon="4.93395">
        <ele>568</ele>
        <time>2014-10-17T14:51:41.000Z</time>
      </trkpt>
      <trkpt lat="47.28292" lon="4.93399">
        <ele>567.79998779297</ele>
        <time>2014-10-17T14:51:46.000Z</time>
      </trkpt>
      <trkpt lat="47.28294" lon="4.93399">
        <ele>567.79998779297</ele>
        <time>2014-10-17T14:51:47.000Z</time>
      </trkpt>
      <trkpt lat="47.28299" lon="4.93401">
        <ele>567.59997558594</ele>
        <time>2014-10-17T14:51:51.000Z</time>
      </trkpt>
      <trkpt lat="47.28305" lon="4.93404">
        <ele>567.59997558594</ele>
        <time>2014-10-17T14:51:56.000Z</time>
      </trkpt>
      <trkpt lat="47.2831" lon="4.93405">
        <ele>567.59997558594</ele>
        <time>2014-10-17T14:52:00.000Z</time>
      </trkpt>
      <trkpt lat="47.28313" lon="4.93406">
        <ele>567.59997558594</ele>
        <time>2014-10-17T14:52:02.000Z</time>
      </trkpt>
      <trkpt lat="47.28319" lon="4.93406">
        <ele>567.59997558594</ele>
        <time>2014-10-17T14:52:07.000Z</time>
      </trkpt>
      <trkpt lat="47.28325" lon="4.93406">
        <ele>567.79998779297</ele>
        <time>2014-10-17T14:52:12.000Z</time>
      </trkpt>
      <trkpt lat="47.28331" lon="4.93407">
        <ele>567.79998779297</ele>
        <time>2014-10-17T14:52:17.000Z</time>
      </trkpt>
      <trkpt lat="47.2834" lon="4.93409">
        <ele>567.40002441406</ele>
        <time>2014-10-17T14:52:24.000Z</time>
      </trkpt>
      <trkpt lat="47.28345" lon="4.93409">
        <ele>567.40002441406</ele>
        <time>2014-10-17T14:52:27.000Z</time>
      </trkpt>
      <trkpt lat="47.28353" lon="4.93408">
        <ele>567.20001220703</ele>
        <time>2014-10-17T14:52:33.000Z</time>
      </trkpt>
      <trkpt lat="47.2836" lon="4.93406">
        <ele>567.20001220703</ele>
        <time>2014-10-17T14:52:37.000Z</time>
      </trkpt>
      <trkpt lat="47.2837" lon="4.93403">
        <ele>567.40002441406</ele>
        <time>2014-10-17T14:52:44.000Z</time>
      </trkpt>
      <trkpt lat="47.28372" lon="4.93403">
        <ele>567.40002441406</ele>
        <time>2014-10-17T14:52:45.000Z</time>
      </trkpt>
      <trkpt lat="47.28385" lon="4.93396">
        <ele>568.40002441406</ele>
        <time>2014-10-17T14:52:53.000Z</time>
      </trkpt>
      <trkpt lat="47.28395" lon="4.93389">
        <ele>569.20001220703</ele>
        <time>2014-10-17T14:53:00.000Z</time>
      </trkpt>
      <trkpt lat="47.28403" lon="4.93386">
        <ele>569.59997558594</ele>
        <time>2014-10-17T14:53:06.000Z</time>
      </trkpt>
      <trkpt lat="47.28411" lon="4.9338">
        <ele>570.20001220703</ele>
        <time>2014-10-17T14:53:12.000Z</time>
      </trkpt>
      <trkpt lat="47.2842" lon="4.93374">
        <ele>570.79998779297</ele>
        <time>2014-10-17T14:53:19.000Z</time>
      </trkpt>
      <trkpt lat="47.28433" lon="4.93366">
        <ele>571.20001220703</ele>
        <time>2014-10-17T14:53:29.000Z</time>
      </trkpt>
      <trkpt lat="47.28434" lon="4.93365">
        <ele>571.20001220703</ele>
        <time>2014-10-17T14:53:30.000Z</time>
      </trkpt>
      <trkpt lat="47.28443" lon="4.93364">
        <ele>571.20001220703</ele>
        <time>2014-10-17T14:53:37.000Z</time>
      </trkpt>
      <trkpt lat="47.28445" lon="4.93364">
        <ele>571.20001220703</ele>
        <time>2014-10-17T14:53:39.000Z</time>
      </trkpt>
      <trkpt lat="47.28448" lon="4.93364">
        <ele>571.20001220703</ele>
        <time>2014-10-17T14:53:41.000Z</time>
      </trkpt>
      <trkpt lat="47.28455" lon="4.93366">
        <ele>571</ele>
        <time>2014-10-17T14:53:47.000Z</time>
      </trkpt>
      <trkpt lat="47.28463" lon="4.93367">
        <ele>570.79998779297</ele>
        <time>2014-10-17T14:53:54.000Z</time>
      </trkpt>
      <trkpt lat="47.28469" lon="4.93369">
        <ele>570.59997558594</ele>
        <time>2014-10-17T14:53:59.000Z</time>
      </trkpt>
      <trkpt lat="47.28482" lon="4.9337">
        <ele>570.40002441406</ele>
        <time>2014-10-17T14:54:08.000Z</time>
      </trkpt>
      <trkpt lat="47.28494" lon="4.93368">
        <ele>570.40002441406</ele>
        <time>2014-10-17T14:54:16.000Z</time>
      </trkpt>
      <trkpt lat="47.28505" lon="4.93369">
        <ele>570.59997558594</ele>
        <time>2014-10-17T14:54:23.000Z</time>
      </trkpt>
      <trkpt lat="47.28509" lon="4.9337">
        <ele>570.59997558594</ele>
        <time>2014-10-17T14:54:26.000Z</time>
      </trkpt>
      <trkpt lat="47.28515" lon="4.93371">
        <ele>570.79998779297</ele>
        <time>2014-10-17T14:54:30.000Z</time>
      </trkpt>
      <trkpt lat="47.28518" lon="4.93372">
        <ele>570.79998779297</ele>
        <time>2014-10-17T14:54:32.000Z</time>
      </trkpt>
      <trkpt lat="47.2853" lon="4.93372">
        <ele>571</ele>
        <time>2014-10-17T14:54:40.000Z</time>
      </trkpt>
      <trkpt lat="47.28539" lon="4.93372">
        <ele>571.20001220703</ele>
        <time>2014-10-17T14:54:48.000Z</time>
      </trkpt>
      <trkpt lat="47.28547" lon="4.93372">
        <ele>571.40002441406</ele>
        <time>2014-10-17T14:54:54.000Z</time>
      </trkpt>
      <trkpt lat="47.28555" lon="4.93373">
        <ele>571.40002441406</ele>
        <time>2014-10-17T14:55:01.000Z</time>
      </trkpt>
      <trkpt lat="47.28556" lon="4.93373">
        <ele>571.40002441406</ele>
        <time>2014-10-17T14:55:02.000Z</time>
      </trkpt>
      <trkpt lat="47.28565" lon="4.93374">
        <ele>571.59997558594</ele>
        <time>2014-10-17T14:55:08.000Z</time>
      </trkpt>
      <trkpt lat="47.28566" lon="4.93374">
        <ele>571.59997558594</ele>
        <time>2014-10-17T14:55:09.000Z</time>
      </trkpt>
      <trkpt lat="47.28573" lon="4.93374">
        <ele>571.79998779297</ele>
        <time>2014-10-17T14:55:13.000Z</time>
      </trkpt>
      <trkpt lat="47.28582" lon="4.93374">
        <ele>572</ele>
        <time>2014-10-17T14:55:19.000Z</time>
      </trkpt>
      <trkpt lat="47.28584" lon="4.93374">
        <ele>572</ele>
        <time>2014-10-17T14:55:20.000Z</time>
      </trkpt>
      <trkpt lat="47.28589" lon="4.93374">
        <ele>572.20001220703</ele>
        <time>2014-10-17T14:55:24.000Z</time>
      </trkpt>
      <trkpt lat="47.28595" lon="4.93374">
        <ele>572.40002441406</ele>
        <time>2014-10-17T14:55:28.000Z</time>
      </trkpt>
      <trkpt lat="47.286" lon="4.93376">
        <ele>572.40002441406</ele>
        <time>2014-10-17T14:55:32.000Z</time>
      </trkpt>
      <trkpt lat="47.28613" lon="4.93377">
        <ele>572.59997558594</ele>
        <time>2014-10-17T14:55:40.000Z</time>
      </trkpt>
      <trkpt lat="47.28622" lon="4.93379">
        <ele>572.79998779297</ele>
        <time>2014-10-17T14:55:46.000Z</time>
      </trkpt>
      <trkpt lat="47.28631" lon="4.93381">
        <ele>573</ele>
        <time>2014-10-17T14:55:52.000Z</time>
      </trkpt>
      <trkpt lat="47.28632" lon="4.93381">
        <ele>573</ele>
        <time>2014-10-17T14:55:53.000Z</time>
      </trkpt>
      <trkpt lat="47.28644" lon="4.93382">
        <ele>573.20001220703</ele>
        <time>2014-10-17T14:56:01.000Z</time>
      </trkpt>
      <trkpt lat="47.28654" lon="4.93385">
        <ele>573.40002441406</ele>
        <time>2014-10-17T14:56:08.000Z</time>
      </trkpt>
      <trkpt lat="47.28655" lon="4.93386">
        <ele>573.40002441406</ele>
        <time>2014-10-17T14:56:09.000Z</time>
      </trkpt>
      <trkpt lat="47.2866" lon="4.93389">
        <ele>573.40002441406</ele>
        <time>2014-10-17T14:56:13.000Z</time>
      </trkpt>
      <trkpt lat="47.28667" lon="4.9339">
        <ele>573.40002441406</ele>
        <time>2014-10-17T14:56:18.000Z</time>
      </trkpt>
      <trkpt lat="47.28683" lon="4.93399">
        <ele>573.20001220703</ele>
        <time>2014-10-17T14:56:29.000Z</time>
      </trkpt>
      <trkpt lat="47.28687" lon="4.93402">
        <ele>573</ele>
        <time>2014-10-17T14:56:32.000Z</time>
      </trkpt>
      <trkpt lat="47.28695" lon="4.93408">
        <ele>572.79998779297</ele>
        <time>2014-10-17T14:56:38.000Z</time>
      </trkpt>
      <trkpt lat="47.28705" lon="4.93413">
        <ele>572.59997558594</ele>
        <time>2014-10-17T14:56:45.000Z</time>
      </trkpt>
      <trkpt lat="47.28713" lon="4.93417">
        <ele>572.40002441406</ele>
        <time>2014-10-17T14:56:51.000Z</time>
      </trkpt>
      <trkpt lat="47.28717" lon="4.93419">
        <ele>572.40002441406</ele>
        <time>2014-10-17T14:56:54.000Z</time>
      </trkpt>
      <trkpt lat="47.28721" lon="4.93422">
        <ele>572.20001220703</ele>
        <time>2014-10-17T14:56:57.000Z</time>
      </trkpt>
      <trkpt lat="47.28728" lon="4.93425">
        <ele>572.20001220703</ele>
        <time>2014-10-17T14:57:02.000Z</time>
      </trkpt>
      <trkpt lat="47.2873" lon="4.93426">
        <ele>572.20001220703</ele>
        <time>2014-10-17T14:57:03.000Z</time>
      </trkpt>
      <trkpt lat="47.28733" lon="4.93428">
        <ele>572</ele>
        <time>2014-10-17T14:57:06.000Z</time>
      </trkpt>
      <trkpt lat="47.28753" lon="4.93433">
        <ele>571.40002441406</ele>
        <time>2014-10-17T14:57:19.000Z</time>
      </trkpt>
      <trkpt lat="47.2876" lon="4.93432">
        <ele>571</ele>
        <time>2014-10-17T14:57:24.000Z</time>
      </trkpt>
      <trkpt lat="47.2877" lon="4.93432">
        <ele>570.40002441406</ele>
        <time>2014-10-17T14:57:30.000Z</time>
      </trkpt>
      <trkpt lat="47.28779" lon="4.93433">
        <ele>570</ele>
        <time>2014-10-17T14:57:36.000Z</time>
      </trkpt>
      <trkpt lat="47.28791" lon="4.93432">
        <ele>569.20001220703</ele>
        <time>2014-10-17T14:57:44.000Z</time>
      </trkpt>
      <trkpt lat="47.28796" lon="4.93431">
        <ele>569</ele>
        <time>2014-10-17T14:57:47.000Z</time>
      </trkpt>
      <trkpt lat="47.28804" lon="4.93428">
        <ele>568.59997558594</ele>
        <time>2014-10-17T14:57:53.000Z</time>
      </trkpt>
      <trkpt lat="47.28805" lon="4.93428">
        <ele>568.59997558594</ele>
        <time>2014-10-17T14:57:54.000Z</time>
      </trkpt>
      <trkpt lat="47.28806" lon="4.93427">
        <ele>568.59997558594</ele>
        <time>2014-10-17T14:57:55.000Z</time>
      </trkpt>
      <trkpt lat="47.28811" lon="4.93424">
        <ele>568.59997558594</ele>
        <time>2014-10-17T14:57:58.000Z</time>
      </trkpt>
      <trkpt lat="47.28815" lon="4.9342">
        <ele>568.40002441406</ele>
        <time>2014-10-17T14:58:02.000Z</time>
      </trkpt>
      <trkpt lat="47.28818" lon="4.93414">
        <ele>568.59997558594</ele>
        <time>2014-10-17T14:58:09.000Z</time>
      </trkpt>
      <trkpt lat="47.2882" lon="4.93406">
        <ele>569</ele>
        <time>2014-10-17T14:58:16.000Z</time>
      </trkpt>
      <trkpt lat="47.28821" lon="4.93401">
        <ele>569</ele>
        <time>2014-10-17T14:58:19.000Z</time>
      </trkpt>
      <trkpt lat="47.28821" lon="4.93396">
        <ele>569.40002441406</ele>
        <time>2014-10-17T14:58:23.000Z</time>
      </trkpt>
      <trkpt lat="47.28821" lon="4.93383">
        <ele>570</ele>
        <time>2014-10-17T14:58:31.000Z</time>
      </trkpt>
      <trkpt lat="47.28823" lon="4.9338">
        <ele>570</ele>
        <time>2014-10-17T14:58:34.000Z</time>
      </trkpt>
      <trkpt lat="47.28823" lon="4.93365">
        <ele>570.79998779297</ele>
        <time>2014-10-17T14:58:43.000Z</time>
      </trkpt>
      <trkpt lat="47.28823" lon="4.93364">
        <ele>570.79998779297</ele>
        <time>2014-10-17T14:58:44.000Z</time>
      </trkpt>
      <trkpt lat="47.28823" lon="4.93354">
        <ele>571.20001220703</ele>
        <time>2014-10-17T14:58:51.000Z</time>
      </trkpt>
      <trkpt lat="47.28823" lon="4.93352">
        <ele>571.40002441406</ele>
        <time>2014-10-17T14:58:52.000Z</time>
      </trkpt>
      <trkpt lat="47.28823" lon="4.9335">
        <ele>571.40002441406</ele>
        <time>2014-10-17T14:58:53.000Z</time>
      </trkpt>
      <trkpt lat="47.28824" lon="4.93346">
        <ele>571.59997558594</ele>
        <time>2014-10-17T14:58:56.000Z</time>
      </trkpt>
      <trkpt lat="47.28825" lon="4.93342">
        <ele>571.79998779297</ele>
        <time>2014-10-17T14:58:59.000Z</time>
      </trkpt>
      <trkpt lat="47.28824" lon="4.93331">
        <ele>572.40002441406</ele>
        <time>2014-10-17T14:59:05.000Z</time>
      </trkpt>
      <trkpt lat="47.28825" lon="4.93328">
        <ele>572.40002441406</ele>
        <time>2014-10-17T14:59:07.000Z</time>
      </trkpt>
      <trkpt lat="47.28825" lon="4.93312">
        <ele>573.20001220703</ele>
        <time>2014-10-17T14:59:16.000Z</time>
      </trkpt>
      <trkpt lat="47.28825" lon="4.93309">
        <ele>573.40002441406</ele>
        <time>2014-10-17T14:59:17.000Z</time>
      </trkpt>
      <trkpt lat="47.28826" lon="4.93297">
        <ele>573.79998779297</ele>
        <time>2014-10-17T14:59:24.000Z</time>
      </trkpt>
      <trkpt lat="47.28827" lon="4.93282">
        <ele>574.40002441406</ele>
        <time>2014-10-17T14:59:31.000Z</time>
      </trkpt>
      <trkpt lat="47.28827" lon="4.9328">
        <ele>574.40002441406</ele>
        <time>2014-10-17T14:59:32.000Z</time>
      </trkpt>
      <trkpt lat="47.28827" lon="4.93278">
        <ele>574.40002441406</ele>
        <time>2014-10-17T14:59:33.000Z</time>
      </trkpt>
      <trkpt lat="47.28829" lon="4.9327">
        <ele>574.59997558594</ele>
        <time>2014-10-17T14:59:37.000Z</time>
      </trkpt>
      <trkpt lat="47.28828" lon="4.93255">
        <ele>575</ele>
        <time>2014-10-17T14:59:44.000Z</time>
      </trkpt>
      <trkpt lat="47.28831" lon="4.93242">
        <ele>574.79998779297</ele>
        <time>2014-10-17T14:59:51.000Z</time>
      </trkpt>
      <trkpt lat="47.28831" lon="4.9324">
        <ele>574.59997558594</ele>
        <time>2014-10-17T14:59:52.000Z</time>
      </trkpt>
      <trkpt lat="47.28832" lon="4.93236">
        <ele>574.59997558594</ele>
        <time>2014-10-17T14:59:54.000Z</time>
      </trkpt>
      <trkpt lat="47.28833" lon="4.93228">
        <ele>574.20001220703</ele>
        <time>2014-10-17T14:59:58.000Z</time>
      </trkpt>
      <trkpt lat="47.28833" lon="4.93224">
        <ele>574.40002441406</ele>
        <time>2014-10-17T15:00:00.000Z</time>
      </trkpt>
      <trkpt lat="47.28835" lon="4.93211">
        <ele>574.20001220703</ele>
        <time>2014-10-17T15:00:06.000Z</time>
      </trkpt>
      <trkpt lat="47.28836" lon="4.93194">
        <ele>573.59997558594</ele>
        <time>2014-10-17T15:00:14.000Z</time>
      </trkpt>
      <trkpt lat="47.28836" lon="4.93192">
        <ele>573.59997558594</ele>
        <time>2014-10-17T15:00:15.000Z</time>
      </trkpt>
      <trkpt lat="47.28837" lon="4.93183">
        <ele>573.20001220703</ele>
        <time>2014-10-17T15:00:20.000Z</time>
      </trkpt>
      <trkpt lat="47.28837" lon="4.93166">
        <ele>573.20001220703</ele>
        <time>2014-10-17T15:00:27.000Z</time>
      </trkpt>
      <trkpt lat="47.28838" lon="4.9315">
        <ele>572.59997558594</ele>
        <time>2014-10-17T15:00:35.000Z</time>
      </trkpt>
      <trkpt lat="47.28839" lon="4.93146">
        <ele>572.20001220703</ele>
        <time>2014-10-17T15:00:42.000Z</time>
      </trkpt>
      <trkpt lat="47.28844" lon="4.93143">
        <ele>570.20001220703</ele>
        <time>2014-10-17T15:00:48.000Z</time>
      </trkpt>
      <trkpt lat="47.28846" lon="4.93141">
        <ele>569.40002441406</ele>
        <time>2014-10-17T15:00:51.000Z</time>
      </trkpt>
      <trkpt lat="47.2885" lon="4.93139">
        <ele>568</ele>
        <time>2014-10-17T15:00:58.000Z</time>
      </trkpt>
      <trkpt lat="47.28852" lon="4.93139">
        <ele>567</ele>
        <time>2014-10-17T15:01:03.000Z</time>
      </trkpt>
      <trkpt lat="47.28855" lon="4.93135">
        <ele>565.59997558594</ele>
        <time>2014-10-17T15:02:05.000Z</time>
      </trkpt>
      <trkpt lat="47.28852" lon="4.93135">
        <ele>567</ele>
        <time>2014-10-17T15:02:10.000Z</time>
      </trkpt>
      <trkpt lat="47.28846" lon="4.93136">
        <ele>569.59997558594</ele>
        <time>2014-10-17T15:02:16.000Z</time>
      </trkpt>
      <trkpt lat="47.28845" lon="4.93137">
        <ele>569.79998779297</ele>
        <time>2014-10-17T15:02:17.000Z</time>
      </trkpt>
      <trkpt lat="47.28843" lon="4.93134">
        <ele>570.79998779297</ele>
        <time>2014-10-17T15:02:21.000Z</time>
      </trkpt>
      <trkpt lat="47.28842" lon="4.93131">
        <ele>570.79998779297</ele>
        <time>2014-10-17T15:02:23.000Z</time>
      </trkpt>
      <trkpt lat="47.28842" lon="4.93118">
        <ele>570.40002441406</ele>
        <time>2014-10-17T15:02:31.000Z</time>
      </trkpt>
      <trkpt lat="47.28843" lon="4.93116">
        <ele>570.20001220703</ele>
        <time>2014-10-17T15:02:39.000Z</time>
      </trkpt>
      <trkpt lat="47.28842" lon="4.93107">
        <ele>570</ele>
        <time>2014-10-17T15:02:44.000Z</time>
      </trkpt>
      <trkpt lat="47.28841" lon="4.93092">
        <ele>569.79998779297</ele>
        <time>2014-10-17T15:02:51.000Z</time>
      </trkpt>
      <trkpt lat="47.2884" lon="4.93078">
        <ele>570.20001220703</ele>
        <time>2014-10-17T15:02:58.000Z</time>
      </trkpt>
      <trkpt lat="47.28838" lon="4.93067">
        <ele>570.59997558594</ele>
        <time>2014-10-17T15:03:03.000Z</time>
      </trkpt>
      <trkpt lat="47.28836" lon="4.93052">
        <ele>570.59997558594</ele>
        <time>2014-10-17T15:03:11.000Z</time>
      </trkpt>
      <trkpt lat="47.28836" lon="4.93044">
        <ele>570.59997558594</ele>
        <time>2014-10-17T15:03:16.000Z</time>
      </trkpt>
      <trkpt lat="47.28833" lon="4.93029">
        <ele>571.40002441406</ele>
        <time>2014-10-17T15:03:23.000Z</time>
      </trkpt>
      <trkpt lat="47.28832" lon="4.93023">
        <ele>571.79998779297</ele>
        <time>2014-10-17T15:03:27.000Z</time>
      </trkpt>
      <trkpt lat="47.28831" lon="4.93014">
        <ele>572</ele>
        <time>2014-10-17T15:03:31.000Z</time>
      </trkpt>
      <trkpt lat="47.28831" lon="4.93005">
        <ele>572.20001220703</ele>
        <time>2014-10-17T15:03:35.000Z</time>
      </trkpt>
      <trkpt lat="47.2883" lon="4.92993">
        <ele>572.40002441406</ele>
        <time>2014-10-17T15:03:42.000Z</time>
      </trkpt>
      <trkpt lat="47.28827" lon="4.9298">
        <ele>572.59997558594</ele>
        <time>2014-10-17T15:03:49.000Z</time>
      </trkpt>
      <trkpt lat="47.28827" lon="4.92968">
        <ele>572.59997558594</ele>
        <time>2014-10-17T15:03:55.000Z</time>
      </trkpt>
      <trkpt lat="47.28824" lon="4.92958">
        <ele>572.79998779297</ele>
        <time>2014-10-17T15:04:00.000Z</time>
      </trkpt>
      <trkpt lat="47.28824" lon="4.92957">
        <ele>572.79998779297</ele>
        <time>2014-10-17T15:04:01.000Z</time>
      </trkpt>
      <trkpt lat="47.28823" lon="4.92953">
        <ele>572.79998779297</ele>
        <time>2014-10-17T15:04:03.000Z</time>
      </trkpt>
      <trkpt lat="47.28821" lon="4.92944">
        <ele>573</ele>
        <time>2014-10-17T15:04:07.000Z</time>
      </trkpt>
      <trkpt lat="47.28821" lon="4.92943">
        <ele>573</ele>
        <time>2014-10-17T15:04:08.000Z</time>
      </trkpt>
      <trkpt lat="47.28817" lon="4.92927">
        <ele>573.20001220703</ele>
        <time>2014-10-17T15:04:16.000Z</time>
      </trkpt>
      <trkpt lat="47.28811" lon="4.9291">
        <ele>574</ele>
        <time>2014-10-17T15:04:26.000Z</time>
      </trkpt>
      <trkpt lat="47.28807" lon="4.92901">
        <ele>574.20001220703</ele>
        <time>2014-10-17T15:04:31.000Z</time>
      </trkpt>
      <trkpt lat="47.28803" lon="4.92892">
        <ele>574.79998779297</ele>
        <time>2014-10-17T15:04:37.000Z</time>
      </trkpt>
      <trkpt lat="47.28797" lon="4.92885">
        <ele>575.40002441406</ele>
        <time>2014-10-17T15:04:42.000Z</time>
      </trkpt>
      <trkpt lat="47.28792" lon="4.92878">
        <ele>576</ele>
        <time>2014-10-17T15:04:48.000Z</time>
      </trkpt>
      <trkpt lat="47.2879" lon="4.92875">
        <ele>576.20001220703</ele>
        <time>2014-10-17T15:04:51.000Z</time>
      </trkpt>
      <trkpt lat="47.28787" lon="4.9287">
        <ele>576.59997558594</ele>
        <time>2014-10-17T15:04:55.000Z</time>
      </trkpt>
      <trkpt lat="47.28785" lon="4.92867">
        <ele>577</ele>
        <time>2014-10-17T15:04:57.000Z</time>
      </trkpt>
      <trkpt lat="47.28782" lon="4.92861">
        <ele>577.20001220703</ele>
        <time>2014-10-17T15:05:01.000Z</time>
      </trkpt>
      <trkpt lat="47.28777" lon="4.92853">
        <ele>578</ele>
        <time>2014-10-17T15:05:07.000Z</time>
      </trkpt>
      <trkpt lat="47.28774" lon="4.92848">
        <ele>578.40002441406</ele>
        <time>2014-10-17T15:05:10.000Z</time>
      </trkpt>
      <trkpt lat="47.2877" lon="4.92842">
        <ele>578.79998779297</ele>
        <time>2014-10-17T15:05:14.000Z</time>
      </trkpt>
      <trkpt lat="47.28764" lon="4.92834">
        <ele>579.79998779297</ele>
        <time>2014-10-17T15:05:20.000Z</time>
      </trkpt>
      <trkpt lat="47.28762" lon="4.92831">
        <ele>580</ele>
        <time>2014-10-17T15:05:22.000Z</time>
      </trkpt>
      <trkpt lat="47.28761" lon="4.92828">
        <ele>580.20001220703</ele>
        <time>2014-10-17T15:05:24.000Z</time>
      </trkpt>
      <trkpt lat="47.28759" lon="4.92822">
        <ele>580.20001220703</ele>
        <time>2014-10-17T15:05:29.000Z</time>
      </trkpt>
      <trkpt lat="47.28753" lon="4.92811">
        <ele>581.20001220703</ele>
        <time>2014-10-17T15:06:13.000Z</time>
      </trkpt>
      <trkpt lat="47.28755" lon="4.92814">
        <ele>581</ele>
        <time>2014-10-17T15:06:21.000Z</time>
      </trkpt>
      <trkpt lat="47.28755" lon="4.92816">
        <ele>580.79998779297</ele>
        <time>2014-10-17T15:06:27.000Z</time>
      </trkpt>
      <trkpt lat="47.28755" lon="4.92811">
        <ele>580.79998779297</ele>
        <time>2014-10-17T15:06:31.000Z</time>
      </trkpt>
      <trkpt lat="47.28758" lon="4.92801">
        <ele>580.40002441406</ele>
        <time>2014-10-17T15:06:36.000Z</time>
      </trkpt>
      <trkpt lat="47.2876" lon="4.92794">
        <ele>580.59997558594</ele>
        <time>2014-10-17T15:06:41.000Z</time>
      </trkpt>
      <trkpt lat="47.28761" lon="4.92792">
        <ele>580.59997558594</ele>
        <time>2014-10-17T15:06:42.000Z</time>
      </trkpt>
      <trkpt lat="47.28762" lon="4.9279">
        <ele>580.40002441406</ele>
        <time>2014-10-17T15:06:44.000Z</time>
      </trkpt>
      <trkpt lat="47.28767" lon="4.92779">
        <ele>580.20001220703</ele>
        <time>2014-10-17T15:06:51.000Z</time>
      </trkpt>
      <trkpt lat="47.28767" lon="4.92778">
        <ele>580.20001220703</ele>
        <time>2014-10-17T15:06:52.000Z</time>
      </trkpt>
      <trkpt lat="47.28772" lon="4.92771">
        <ele>579.79998779297</ele>
        <time>2014-10-17T15:06:57.000Z</time>
      </trkpt>
      <trkpt lat="47.28779" lon="4.92766">
        <ele>579.20001220703</ele>
        <time>2014-10-17T15:07:03.000Z</time>
      </trkpt>
      <trkpt lat="47.28786" lon="4.92762">
        <ele>578.59997558594</ele>
        <time>2014-10-17T15:07:09.000Z</time>
      </trkpt>
      <trkpt lat="47.28792" lon="4.92759">
        <ele>578</ele>
        <time>2014-10-17T15:07:14.000Z</time>
      </trkpt>
      <trkpt lat="47.28795" lon="4.92758">
        <ele>577.79998779297</ele>
        <time>2014-10-17T15:07:16.000Z</time>
      </trkpt>
      <trkpt lat="47.28802" lon="4.92754">
        <ele>577.59997558594</ele>
        <time>2014-10-17T15:07:22.000Z</time>
      </trkpt>
      <trkpt lat="47.28806" lon="4.92753">
        <ele>577.40002441406</ele>
        <time>2014-10-17T15:07:26.000Z</time>
      </trkpt>
      <trkpt lat="47.28814" lon="4.92749">
        <ele>577.20001220703</ele>
        <time>2014-10-17T15:07:33.000Z</time>
      </trkpt>
      <trkpt lat="47.28819" lon="4.92747">
        <ele>577.20001220703</ele>
        <time>2014-10-17T15:07:37.000Z</time>
      </trkpt>
      <trkpt lat="47.28826" lon="4.92745">
        <ele>577</ele>
        <time>2014-10-17T15:07:43.000Z</time>
      </trkpt>
      <trkpt lat="47.28829" lon="4.92743">
        <ele>576.79998779297</ele>
        <time>2014-10-17T15:07:46.000Z</time>
      </trkpt>
      <trkpt lat="47.28832" lon="4.92743">
        <ele>576.59997558594</ele>
        <time>2014-10-17T15:07:48.000Z</time>
      </trkpt>
      <trkpt lat="47.28838" lon="4.92741">
        <ele>576.20001220703</ele>
        <time>2014-10-17T15:07:54.000Z</time>
      </trkpt>
      <trkpt lat="47.28841" lon="4.92742">
        <ele>575.79998779297</ele>
        <time>2014-10-17T15:07:56.000Z</time>
      </trkpt>
      <trkpt lat="47.28851" lon="4.92739">
        <ele>575</ele>
        <time>2014-10-17T15:08:03.000Z</time>
      </trkpt>
      <trkpt lat="47.28858" lon="4.92738">
        <ele>574.40002441406</ele>
        <time>2014-10-17T15:08:08.000Z</time>
      </trkpt>
      <trkpt lat="47.2887" lon="4.92738">
        <ele>573.79998779297</ele>
        <time>2014-10-17T15:08:16.000Z</time>
      </trkpt>
      <trkpt lat="47.28876" lon="4.92736">
        <ele>573.79998779297</ele>
        <time>2014-10-17T15:08:21.000Z</time>
      </trkpt>
      <trkpt lat="47.28877" lon="4.92737">
        <ele>573.79998779297</ele>
        <time>2014-10-17T15:08:22.000Z</time>
      </trkpt>
      <trkpt lat="47.28883" lon="4.92736">
        <ele>573.59997558594</ele>
        <time>2014-10-17T15:08:27.000Z</time>
      </trkpt>
      <trkpt lat="47.28884" lon="4.92736">
        <ele>573.59997558594</ele>
        <time>2014-10-17T15:08:28.000Z</time>
      </trkpt>
      <trkpt lat="47.28892" lon="4.92737">
        <ele>573.20001220703</ele>
        <time>2014-10-17T15:08:33.000Z</time>
      </trkpt>
      <trkpt lat="47.28902" lon="4.92737">
        <ele>572.79998779297</ele>
        <time>2014-10-17T15:08:39.000Z</time>
      </trkpt>
      <trkpt lat="47.28913" lon="4.92737">
        <ele>572.40002441406</ele>
        <time>2014-10-17T15:08:45.000Z</time>
      </trkpt>
      <trkpt lat="47.28925" lon="4.92737">
        <ele>573</ele>
        <time>2014-10-17T15:08:52.000Z</time>
      </trkpt>
      <trkpt lat="47.28927" lon="4.92738">
        <ele>573</ele>
        <time>2014-10-17T15:08:53.000Z</time>
      </trkpt>
      <trkpt lat="47.28939" lon="4.92741">
        <ele>573.20001220703</ele>
        <time>2014-10-17T15:09:00.000Z</time>
      </trkpt>
      <trkpt lat="47.28949" lon="4.92748">
        <ele>572.79998779297</ele>
        <time>2014-10-17T15:09:07.000Z</time>
      </trkpt>
      <trkpt lat="47.28961" lon="4.92757">
        <ele>572.40002441406</ele>
        <time>2014-10-17T15:09:16.000Z</time>
      </trkpt>
      <trkpt lat="47.28972" lon="4.92765">
        <ele>571.79998779297</ele>
        <time>2014-10-17T15:09:24.000Z</time>
      </trkpt>
      <trkpt lat="47.28982" lon="4.92772">
        <ele>571.40002441406</ele>
        <time>2014-10-17T15:09:31.000Z</time>
      </trkpt>
      <trkpt lat="47.28984" lon="4.92774">
        <ele>571.40002441406</ele>
        <time>2014-10-17T15:09:33.000Z</time>
      </trkpt>
      <trkpt lat="47.28995" lon="4.92781">
        <ele>571</ele>
        <time>2014-10-17T15:09:41.000Z</time>
      </trkpt>
      <trkpt lat="47.29002" lon="4.92786">
        <ele>571.20001220703</ele>
        <time>2014-10-17T15:09:47.000Z</time>
      </trkpt>
      <trkpt lat="47.29015" lon="4.92794">
        <ele>571.40002441406</ele>
        <time>2014-10-17T15:09:57.000Z</time>
      </trkpt>
      <trkpt lat="47.29026" lon="4.92802">
        <ele>571.59997558594</ele>
        <time>2014-10-17T15:10:05.000Z</time>
      </trkpt>
      <trkpt lat="47.29036" lon="4.92809">
        <ele>571.79998779297</ele>
        <time>2014-10-17T15:10:14.000Z</time>
      </trkpt>
      <trkpt lat="47.29045" lon="4.92816">
        <ele>571.79998779297</ele>
        <time>2014-10-17T15:10:21.000Z</time>
      </trkpt>
      <trkpt lat="47.29054" lon="4.92822">
        <ele>572</ele>
        <time>2014-10-17T15:10:28.000Z</time>
      </trkpt>
      <trkpt lat="47.29064" lon="4.9283">
        <ele>572</ele>
        <time>2014-10-17T15:10:36.000Z</time>
      </trkpt>
      <trkpt lat="47.29074" lon="4.9284">
        <ele>571.79998779297</ele>
        <time>2014-10-17T15:10:44.000Z</time>
      </trkpt>
      <trkpt lat="47.29085" lon="4.92852">
        <ele>571.79998779297</ele>
        <time>2014-10-17T15:10:53.000Z</time>
      </trkpt>
      <trkpt lat="47.29095" lon="4.92864">
        <ele>571.59997558594</ele>
        <time>2014-10-17T15:11:02.000Z</time>
      </trkpt>
      <trkpt lat="47.29103" lon="4.92874">
        <ele>571.59997558594</ele>
        <time>2014-10-17T15:11:09.000Z</time>
      </trkpt>
      <trkpt lat="47.29113" lon="4.92888">
        <ele>572</ele>
        <time>2014-10-17T15:11:19.000Z</time>
      </trkpt>
      <trkpt lat="47.29121" lon="4.929">
        <ele>572.20001220703</ele>
        <time>2014-10-17T15:11:26.000Z</time>
      </trkpt>
      <trkpt lat="47.29126" lon="4.92908">
        <ele>572.20001220703</ele>
        <time>2014-10-17T15:11:31.000Z</time>
      </trkpt>
      <trkpt lat="47.29133" lon="4.9292">
        <ele>572.40002441406</ele>
        <time>2014-10-17T15:11:38.000Z</time>
      </trkpt>
      <trkpt lat="47.2914" lon="4.92931">
        <ele>572.59997558594</ele>
        <time>2014-10-17T15:11:45.000Z</time>
      </trkpt>
      <trkpt lat="47.29146" lon="4.92945">
        <ele>572</ele>
        <time>2014-10-17T15:11:53.000Z</time>
      </trkpt>
      <trkpt lat="47.29152" lon="4.92959">
        <ele>571</ele>
        <time>2014-10-17T15:12:01.000Z</time>
      </trkpt>
      <trkpt lat="47.29159" lon="4.92974">
        <ele>571</ele>
        <time>2014-10-17T15:12:09.000Z</time>
      </trkpt>
      <trkpt lat="47.29166" lon="4.92985">
        <ele>571</ele>
        <time>2014-10-17T15:12:16.000Z</time>
      </trkpt>
      <trkpt lat="47.29167" lon="4.92986">
        <ele>571.20001220703</ele>
        <time>2014-10-17T15:12:17.000Z</time>
      </trkpt>
      <trkpt lat="47.2917" lon="4.92992">
        <ele>571</ele>
        <time>2014-10-17T15:12:21.000Z</time>
      </trkpt>
      <trkpt lat="47.29176" lon="4.93005">
        <ele>570.40002441406</ele>
        <time>2014-10-17T15:12:28.000Z</time>
      </trkpt>
      <trkpt lat="47.29183" lon="4.93018">
        <ele>570.20001220703</ele>
        <time>2014-10-17T15:12:35.000Z</time>
      </trkpt>
      <trkpt lat="47.29191" lon="4.93033">
        <ele>569.59997558594</ele>
        <time>2014-10-17T15:12:43.000Z</time>
      </trkpt>
      <trkpt lat="47.29198" lon="4.93048">
        <ele>569.20001220703</ele>
        <time>2014-10-17T15:12:51.000Z</time>
      </trkpt>
      <trkpt lat="47.29203" lon="4.93059">
        <ele>569.20001220703</ele>
        <time>2014-10-17T15:12:57.000Z</time>
      </trkpt>
      <trkpt lat="47.29211" lon="4.93077">
        <ele>569</ele>
        <time>2014-10-17T15:13:06.000Z</time>
      </trkpt>
      <trkpt lat="47.29219" lon="4.93092">
        <ele>569</ele>
        <time>2014-10-17T15:13:14.000Z</time>
      </trkpt>
      <trkpt lat="47.29222" lon="4.93099">
        <ele>569</ele>
        <time>2014-10-17T15:13:20.000Z</time>
      </trkpt>
      <trkpt lat="47.29223" lon="4.93101">
        <ele>568.79998779297</ele>
        <time>2014-10-17T15:13:34.000Z</time>
      </trkpt>
      <trkpt lat="47.29224" lon="4.93104">
        <ele>568.40002441406</ele>
        <time>2014-10-17T15:13:46.000Z</time>
      </trkpt>
      <trkpt lat="47.29225" lon="4.93105">
        <ele>568.59997558594</ele>
        <time>2014-10-17T15:13:55.000Z</time>
      </trkpt>
      <trkpt lat="47.29228" lon="4.9311">
        <ele>568.59997558594</ele>
        <time>2014-10-17T15:14:05.000Z</time>
      </trkpt>
      <trkpt lat="47.29236" lon="4.93122">
        <ele>568.20001220703</ele>
        <time>2014-10-17T15:14:12.000Z</time>
      </trkpt>
      <trkpt lat="47.29243" lon="4.93134">
        <ele>568</ele>
        <time>2014-10-17T15:14:19.000Z</time>
      </trkpt>
      <trkpt lat="47.29248" lon="4.9314">
        <ele>568.20001220703</ele>
        <time>2014-10-17T15:14:24.000Z</time>
      </trkpt>
      <trkpt lat="47.2925" lon="4.93139">
        <ele>568.79998779297</ele>
        <time>2014-10-17T15:14:31.000Z</time>
      </trkpt>
      <trkpt lat="47.29252" lon="4.93143">
        <ele>568.20001220703</ele>
        <time>2014-10-17T15:14:51.000Z</time>
      </trkpt>
      <trkpt lat="47.29253" lon="4.9315">
        <ele>567.20001220703</ele>
        <time>2014-10-17T15:14:56.000Z</time>
      </trkpt>
      <trkpt lat="47.29252" lon="4.93152">
        <ele>566.79998779297</ele>
        <time>2014-10-17T15:14:58.000Z</time>
      </trkpt>
      <trkpt lat="47.29249" lon="4.93158">
        <ele>565</ele>
        <time>2014-10-17T15:15:04.000Z</time>
      </trkpt>
      <trkpt lat="47.29245" lon="4.93157">
        <ele>564</ele>
        <time>2014-10-17T15:15:10.000Z</time>
      </trkpt>
      <trkpt lat="47.29244" lon="4.93157">
        <ele>564</ele>
        <time>2014-10-17T15:15:21.000Z</time>
      </trkpt>
      <trkpt lat="47.29245" lon="4.93156">
        <ele>564.40002441406</ele>
        <time>2014-10-17T15:16:16.000Z</time>
      </trkpt>
      <trkpt lat="47.2925" lon="4.93159">
        <ele>565</ele>
        <time>2014-10-17T15:17:25.000Z</time>
      </trkpt>
      <trkpt lat="47.29252" lon="4.93157">
        <ele>565.59997558594</ele>
        <time>2014-10-17T15:17:27.000Z</time>
      </trkpt>
      <trkpt lat="47.29255" lon="4.93154">
        <ele>567</ele>
        <time>2014-10-17T15:17:33.000Z</time>
      </trkpt>
      <trkpt lat="47.29259" lon="4.93158">
        <ele>567</ele>
        <time>2014-10-17T15:17:38.000Z</time>
      </trkpt>
      <trkpt lat="47.29266" lon="4.93168">
        <ele>566.59997558594</ele>
        <time>2014-10-17T15:17:45.000Z</time>
      </trkpt>
      <trkpt lat="47.29272" lon="4.93177">
        <ele>566</ele>
        <time>2014-10-17T15:17:51.000Z</time>
      </trkpt>
      <trkpt lat="47.29281" lon="4.93189">
        <ele>565.40002441406</ele>
        <time>2014-10-17T15:17:59.000Z</time>
      </trkpt>
      <trkpt lat="47.29282" lon="4.93191">
        <ele>565.40002441406</ele>
        <time>2014-10-17T15:18:00.000Z</time>
      </trkpt>
      <trkpt lat="47.29285" lon="4.93198">
        <ele>564.59997558594</ele>
        <time>2014-10-17T15:18:04.000Z</time>
      </trkpt>
      <trkpt lat="47.2929" lon="4.93206">
        <ele>564</ele>
        <time>2014-10-17T15:18:09.000Z</time>
      </trkpt>
      <trkpt lat="47.29297" lon="4.93217">
        <ele>563.79998779297</ele>
        <time>2014-10-17T15:18:16.000Z</time>
      </trkpt>
      <trkpt lat="47.29305" lon="4.93228">
        <ele>564.20001220703</ele>
        <time>2014-10-17T15:18:23.000Z</time>
      </trkpt>
      <trkpt lat="47.29309" lon="4.93234">
        <ele>564.20001220703</ele>
        <time>2014-10-17T15:18:27.000Z</time>
      </trkpt>
      <trkpt lat="47.29311" lon="4.93237">
        <ele>564.20001220703</ele>
        <time>2014-10-17T15:18:29.000Z</time>
      </trkpt>
      <trkpt lat="47.29323" lon="4.93247">
        <ele>565.20001220703</ele>
        <time>2014-10-17T15:18:37.000Z</time>
      </trkpt>
      <trkpt lat="47.29329" lon="4.9325">
        <ele>566.20001220703</ele>
        <time>2014-10-17T15:18:42.000Z</time>
      </trkpt>
      <trkpt lat="47.29337" lon="4.93252">
        <ele>566.40002441406</ele>
        <time>2014-10-17T15:18:48.000Z</time>
      </trkpt>
      <trkpt lat="47.29345" lon="4.93256">
        <ele>566.40002441406</ele>
        <time>2014-10-17T15:18:55.000Z</time>
      </trkpt>
      <trkpt lat="47.29345" lon="4.93256">
        <ele>566.40002441406</ele>
        <time>2014-10-17T15:18:57.000Z</time>
      </trkpt>
      <trkpt lat="47.2935" lon="4.93265">
        <ele>565.40002441406</ele>
        <time>2014-10-17T15:19:04.000Z</time>
      </trkpt>
      <trkpt lat="47.29353" lon="4.93268">
        <ele>565</ele>
        <time>2014-10-17T15:19:09.000Z</time>
      </trkpt>
      <trkpt lat="47.2936" lon="4.93274">
        <ele>564.59997558594</ele>
        <time>2014-10-17T15:19:15.000Z</time>
      </trkpt>
      <trkpt lat="47.29367" lon="4.9328">
        <ele>564.20001220703</ele>
        <time>2014-10-17T15:19:22.000Z</time>
      </trkpt>
      <trkpt lat="47.29371" lon="4.93283">
        <ele>564</ele>
        <time>2014-10-17T15:19:26.000Z</time>
      </trkpt>
      <trkpt lat="47.29372" lon="4.93287">
        <ele>563.59997558594</ele>
        <time>2014-10-17T15:19:29.000Z</time>
      </trkpt>
      <trkpt lat="47.29378" lon="4.93297">
        <ele>562.40002441406</ele>
        <time>2014-10-17T15:19:35.000Z</time>
      </trkpt>
      <trkpt lat="47.2938" lon="4.93299">
        <ele>562.20001220703</ele>
        <time>2014-10-17T15:19:37.000Z</time>
      </trkpt>
      <trkpt lat="47.29383" lon="4.933">
        <ele>562.20001220703</ele>
        <time>2014-10-17T15:19:39.000Z</time>
      </trkpt>
      <trkpt lat="47.29387" lon="4.93304">
        <ele>561.79998779297</ele>
        <time>2014-10-17T15:19:44.000Z</time>
      </trkpt>
      <trkpt lat="47.29388" lon="4.93304">
        <ele>561.79998779297</ele>
        <time>2014-10-17T15:19:45.000Z</time>
      </trkpt>
      <trkpt lat="47.2939" lon="4.93307">
        <ele>561.59997558594</ele>
        <time>2014-10-17T15:19:47.000Z</time>
      </trkpt>
      <trkpt lat="47.29392" lon="4.93309">
        <ele>561.40002441406</ele>
        <time>2014-10-17T15:19:50.000Z</time>
      </trkpt>
      <trkpt lat="47.29397" lon="4.93313">
        <ele>561</ele>
        <time>2014-10-17T15:19:55.000Z</time>
      </trkpt>
      <trkpt lat="47.29399" lon="4.93314">
        <ele>561</ele>
        <time>2014-10-17T15:19:58.000Z</time>
      </trkpt>
      <trkpt lat="47.29401" lon="4.93318">
        <ele>560.40002441406</ele>
        <time>2014-10-17T15:20:01.000Z</time>
      </trkpt>
      <trkpt lat="47.29407" lon="4.93324">
        <ele>560</ele>
        <time>2014-10-17T15:20:08.000Z</time>
      </trkpt>
      <trkpt lat="47.2941" lon="4.93327">
        <ele>559.59997558594</ele>
        <time>2014-10-17T15:20:11.000Z</time>
      </trkpt>
      <trkpt lat="47.29416" lon="4.93332">
        <ele>559.20001220703</ele>
        <time>2014-10-17T15:20:18.000Z</time>
      </trkpt>
      <trkpt lat="47.29422" lon="4.93336">
        <ele>558.79998779297</ele>
        <time>2014-10-17T15:20:24.000Z</time>
      </trkpt>
      <trkpt lat="47.29423" lon="4.93337">
        <ele>558.79998779297</ele>
        <time>2014-10-17T15:20:27.000Z</time>
      </trkpt>
      <trkpt lat="47.29427" lon="4.9334">
        <ele>558.40002441406</ele>
        <time>2014-10-17T15:20:31.000Z</time>
      </trkpt>
      <trkpt lat="47.29434" lon="4.93345">
        <ele>558.20001220703</ele>
        <time>2014-10-17T15:20:38.000Z</time>
      </trkpt>
      <trkpt lat="47.29437" lon="4.93348">
        <ele>557.79998779297</ele>
        <time>2014-10-17T15:20:42.000Z</time>
      </trkpt>
      <trkpt lat="47.2944" lon="4.93351">
        <ele>557.59997558594</ele>
        <time>2014-10-17T15:20:46.000Z</time>
      </trkpt>
      <trkpt lat="47.29443" lon="4.93355">
        <ele>557.20001220703</ele>
        <time>2014-10-17T15:20:50.000Z</time>
      </trkpt>
      <trkpt lat="47.29449" lon="4.93359">
        <ele>557</ele>
        <time>2014-10-17T15:20:57.000Z</time>
      </trkpt>
      <trkpt lat="47.2945" lon="4.93359">
        <ele>556.79998779297</ele>
        <time>2014-10-17T15:20:58.000Z</time>
      </trkpt>
      <trkpt lat="47.29451" lon="4.93359">
        <ele>556.79998779297</ele>
        <time>2014-10-17T15:20:59.000Z</time>
      </trkpt>
      <trkpt lat="47.29455" lon="4.93363">
        <ele>556.59997558594</ele>
        <time>2014-10-17T15:21:05.000Z</time>
      </trkpt>
      <trkpt lat="47.2946" lon="4.93368">
        <ele>556</ele>
        <time>2014-10-17T15:21:11.000Z</time>
      </trkpt>
      <trkpt lat="47.29461" lon="4.93371">
        <ele>555.59997558594</ele>
        <time>2014-10-17T15:21:14.000Z</time>
      </trkpt>
      <trkpt lat="47.29462" lon="4.93372">
        <ele>555.59997558594</ele>
        <time>2014-10-17T15:21:16.000Z</time>
      </trkpt>
      <trkpt lat="47.29472" lon="4.93383">
        <ele>553.79998779297</ele>
        <time>2014-10-17T15:21:30.000Z</time>
      </trkpt>
      <trkpt lat="47.29476" lon="4.93387">
        <ele>553</ele>
        <time>2014-10-17T15:21:35.000Z</time>
      </trkpt>
      <trkpt lat="47.29478" lon="4.93391">
        <ele>552.20001220703</ele>
        <time>2014-10-17T15:21:38.000Z</time>
      </trkpt>
      <trkpt lat="47.29482" lon="4.93396">
        <ele>551.40002441406</ele>
        <time>2014-10-17T15:21:44.000Z</time>
      </trkpt>
      <trkpt lat="47.29485" lon="4.93401">
        <ele>550.40002441406</ele>
        <time>2014-10-17T15:21:49.000Z</time>
      </trkpt>
      <trkpt lat="47.29488" lon="4.93406">
        <ele>549.40002441406</ele>
        <time>2014-10-17T15:21:55.000Z</time>
      </trkpt>
      <trkpt lat="47.29493" lon="4.93413">
        <ele>548</ele>
        <time>2014-10-17T15:22:01.000Z</time>
      </trkpt>
      <trkpt lat="47.29495" lon="4.93418">
        <ele>547</ele>
        <time>2014-10-17T15:22:04.000Z</time>
      </trkpt>
      <trkpt lat="47.29496" lon="4.93419">
        <ele>546.59997558594</ele>
        <time>2014-10-17T15:22:06.000Z</time>
      </trkpt>
      <trkpt lat="47.29499" lon="4.93426">
        <ele>545.40002441406</ele>
        <time>2014-10-17T15:22:11.000Z</time>
      </trkpt>
      <trkpt lat="47.29503" lon="4.93431">
        <ele>544.79998779297</ele>
        <time>2014-10-17T15:22:16.000Z</time>
      </trkpt>
      <trkpt lat="47.29507" lon="4.93438">
        <ele>543.59997558594</ele>
        <time>2014-10-17T15:22:23.000Z</time>
      </trkpt>
      <trkpt lat="47.29511" lon="4.93444">
        <ele>542.59997558594</ele>
        <time>2014-10-17T15:22:28.000Z</time>
      </trkpt>
      <trkpt lat="47.29512" lon="4.9345">
        <ele>541.40002441406</ele>
        <time>2014-10-17T15:22:33.000Z</time>
      </trkpt>
      <trkpt lat="47.29511" lon="4.93459">
        <ele>539.40002441406</ele>
        <time>2014-10-17T15:22:38.000Z</time>
      </trkpt>
      <trkpt lat="47.29511" lon="4.93472">
        <ele>536.20001220703</ele>
        <time>2014-10-17T15:22:45.000Z</time>
      </trkpt>
      <trkpt lat="47.2951" lon="4.93477">
        <ele>535</ele>
        <time>2014-10-17T15:22:48.000Z</time>
      </trkpt>
      <trkpt lat="47.29512" lon="4.93483">
        <ele>534</ele>
        <time>2014-10-17T15:22:55.000Z</time>
      </trkpt>
      <trkpt lat="47.29512" lon="4.93485">
        <ele>533.40002441406</ele>
        <time>2014-10-17T15:23:10.000Z</time>
      </trkpt>
      <trkpt lat="47.29512" lon="4.93486">
        <ele>533.20001220703</ele>
        <time>2014-10-17T15:23:18.000Z</time>
      </trkpt>
      <trkpt lat="47.29512" lon="4.93488">
        <ele>532.59997558594</ele>
        <time>2014-10-17T15:23:29.000Z</time>
      </trkpt>
      <trkpt lat="47.29511" lon="4.93488">
        <ele>532.40002441406</ele>
        <time>2014-10-17T15:23:38.000Z</time>
      </trkpt>
      <trkpt lat="47.29512" lon="4.93484">
        <ele>533.79998779297</ele>
        <time>2014-10-17T15:23:42.000Z</time>
      </trkpt>
      <trkpt lat="47.29514" lon="4.93472">
        <ele>536.59997558594</ele>
        <time>2014-10-17T15:23:51.000Z</time>
      </trkpt>
      <trkpt lat="47.29515" lon="4.93467">
        <ele>538</ele>
        <time>2014-10-17T15:23:56.000Z</time>
      </trkpt>
      <trkpt lat="47.29513" lon="4.93457">
        <ele>540</ele>
        <time>2014-10-17T15:24:05.000Z</time>
      </trkpt>
      <trkpt lat="47.29513" lon="4.93456">
        <ele>540.20001220703</ele>
        <time>2014-10-17T15:24:06.000Z</time>
      </trkpt>
      <trkpt lat="47.29509" lon="4.93451">
        <ele>540.79998779297</ele>
        <time>2014-10-17T15:24:12.000Z</time>
      </trkpt>
      <trkpt lat="47.29505" lon="4.93449">
        <ele>540.79998779297</ele>
        <time>2014-10-17T15:24:19.000Z</time>
      </trkpt>
      <trkpt lat="47.29501" lon="4.93443">
        <ele>541.59997558594</ele>
        <time>2014-10-17T15:24:26.000Z</time>
      </trkpt>
      <trkpt lat="47.29497" lon="4.9344">
        <ele>542</ele>
        <time>2014-10-17T15:24:31.000Z</time>
      </trkpt>
      <trkpt lat="47.29492" lon="4.93433">
        <ele>543.20001220703</ele>
        <time>2014-10-17T15:24:37.000Z</time>
      </trkpt>
      <trkpt lat="47.29491" lon="4.93432">
        <ele>543.40002441406</ele>
        <time>2014-10-17T15:24:38.000Z</time>
      </trkpt>
      <trkpt lat="47.29487" lon="4.93426">
        <ele>544.59997558594</ele>
        <time>2014-10-17T15:24:44.000Z</time>
      </trkpt>
      <trkpt lat="47.29482" lon="4.93419">
        <ele>546</ele>
        <time>2014-10-17T15:24:51.000Z</time>
      </trkpt>
      <trkpt lat="47.29481" lon="4.93418">
        <ele>546.20001220703</ele>
        <time>2014-10-17T15:24:52.000Z</time>
      </trkpt>
      <trkpt lat="47.29475" lon="4.93411">
        <ele>547.40002441406</ele>
        <time>2014-10-17T15:25:00.000Z</time>
      </trkpt>
      <trkpt lat="47.29473" lon="4.9341">
        <ele>547.59997558594</ele>
        <time>2014-10-17T15:25:02.000Z</time>
      </trkpt>
      <trkpt lat="47.29469" lon="4.93406">
        <ele>548.20001220703</ele>
        <time>2014-10-17T15:25:09.000Z</time>
      </trkpt>
      <trkpt lat="47.29466" lon="4.93403">
        <ele>548.79998779297</ele>
        <time>2014-10-17T15:25:15.000Z</time>
      </trkpt>
      <trkpt lat="47.29463" lon="4.93399">
        <ele>549.59997558594</ele>
        <time>2014-10-17T15:25:20.000Z</time>
      </trkpt>
      <trkpt lat="47.29459" lon="4.93393">
        <ele>550.79998779297</ele>
        <time>2014-10-17T15:25:26.000Z</time>
      </trkpt>
      <trkpt lat="47.29458" lon="4.93393">
        <ele>550.79998779297</ele>
        <time>2014-10-17T15:25:27.000Z</time>
      </trkpt>
      <trkpt lat="47.29458" lon="4.93392">
        <ele>551</ele>
        <time>2014-10-17T15:25:28.000Z</time>
      </trkpt>
      <trkpt lat="47.29453" lon="4.93387">
        <ele>552</ele>
        <time>2014-10-17T15:25:35.000Z</time>
      </trkpt>
      <trkpt lat="47.29449" lon="4.93383">
        <ele>552.59997558594</ele>
        <time>2014-10-17T15:25:40.000Z</time>
      </trkpt>
      <trkpt lat="47.29448" lon="4.93382">
        <ele>552.79998779297</ele>
        <time>2014-10-17T15:25:41.000Z</time>
      </trkpt>
      <trkpt lat="47.29447" lon="4.93381">
        <ele>553</ele>
        <time>2014-10-17T15:25:43.000Z</time>
      </trkpt>
      <trkpt lat="47.29442" lon="4.93377">
        <ele>553.79998779297</ele>
        <time>2014-10-17T15:25:50.000Z</time>
      </trkpt>
      <trkpt lat="47.2944" lon="4.93376">
        <ele>553.79998779297</ele>
        <time>2014-10-17T15:25:52.000Z</time>
      </trkpt>
      <trkpt lat="47.29437" lon="4.93373">
        <ele>554.20001220703</ele>
        <time>2014-10-17T15:25:56.000Z</time>
      </trkpt>
      <trkpt lat="47.29436" lon="4.93372">
        <ele>554.40002441406</ele>
        <time>2014-10-17T15:25:58.000Z</time>
      </trkpt>
      <trkpt lat="47.29433" lon="4.9337">
        <ele>554.59997558594</ele>
        <time>2014-10-17T15:26:03.000Z</time>
      </trkpt>
      <trkpt lat="47.29427" lon="4.93365">
        <ele>555</ele>
        <time>2014-10-17T15:26:10.000Z</time>
      </trkpt>
      <trkpt lat="47.29423" lon="4.9336">
        <ele>555.40002441406</ele>
        <time>2014-10-17T15:26:17.000Z</time>
      </trkpt>
      <trkpt lat="47.29416" lon="4.93353">
        <ele>556.20001220703</ele>
        <time>2014-10-17T15:26:26.000Z</time>
      </trkpt>
      <trkpt lat="47.29412" lon="4.93349">
        <ele>556.59997558594</ele>
        <time>2014-10-17T15:26:32.000Z</time>
      </trkpt>
      <trkpt lat="47.29412" lon="4.93348">
        <ele>556.59997558594</ele>
        <time>2014-10-17T15:26:33.000Z</time>
      </trkpt>
      <trkpt lat="47.29411" lon="4.93347">
        <ele>556.79998779297</ele>
        <time>2014-10-17T15:26:34.000Z</time>
      </trkpt>
      <trkpt lat="47.29406" lon="4.93344">
        <ele>557</ele>
        <time>2014-10-17T15:26:40.000Z</time>
      </trkpt>
      <trkpt lat="47.29404" lon="4.93343">
        <ele>557</ele>
        <time>2014-10-17T15:26:43.000Z</time>
      </trkpt>
      <trkpt lat="47.29403" lon="4.93341">
        <ele>557.20001220703</ele>
        <time>2014-10-17T15:26:45.000Z</time>
      </trkpt>
      <trkpt lat="47.29399" lon="4.93336">
        <ele>557.79998779297</ele>
        <time>2014-10-17T15:26:51.000Z</time>
      </trkpt>
      <trkpt lat="47.29394" lon="4.9333">
        <ele>558.40002441406</ele>
        <time>2014-10-17T15:26:57.000Z</time>
      </trkpt>
      <trkpt lat="47.29394" lon="4.93329">
        <ele>558.59997558594</ele>
        <time>2014-10-17T15:26:58.000Z</time>
      </trkpt>
      <trkpt lat="47.29392" lon="4.93326">
        <ele>558.79998779297</ele>
        <time>2014-10-17T15:27:01.000Z</time>
      </trkpt>
      <trkpt lat="47.29389" lon="4.93319">
        <ele>559.59997558594</ele>
        <time>2014-10-17T15:27:07.000Z</time>
      </trkpt>
      <trkpt lat="47.29384" lon="4.93314">
        <ele>560.20001220703</ele>
        <time>2014-10-17T15:27:12.000Z</time>
      </trkpt>
      <trkpt lat="47.2938" lon="4.93307">
        <ele>561</ele>
        <time>2014-10-17T15:27:19.000Z</time>
      </trkpt>
      <trkpt lat="47.29377" lon="4.93306">
        <ele>561.20001220703</ele>
        <time>2014-10-17T15:27:21.000Z</time>
      </trkpt>
      <trkpt lat="47.29372" lon="4.93299">
        <ele>561.79998779297</ele>
        <time>2014-10-17T15:27:27.000Z</time>
      </trkpt>
      <trkpt lat="47.29367" lon="4.93293">
        <ele>562.40002441406</ele>
        <time>2014-10-17T15:27:32.000Z</time>
      </trkpt>
      <trkpt lat="47.29365" lon="4.9329">
        <ele>562.59997558594</ele>
        <time>2014-10-17T15:27:35.000Z</time>
      </trkpt>
      <trkpt lat="47.29359" lon="4.93283">
        <ele>563.40002441406</ele>
        <time>2014-10-17T15:27:41.000Z</time>
      </trkpt>
      <trkpt lat="47.29362" lon="4.93278">
        <ele>564.20001220703</ele>
        <time>2014-10-17T15:27:46.000Z</time>
      </trkpt>
      <trkpt lat="47.29363" lon="4.93277">
        <ele>564.40002441406</ele>
        <time>2014-10-17T15:27:47.000Z</time>
      </trkpt>
      <trkpt lat="47.29368" lon="4.93277">
        <ele>564.59997558594</ele>
        <time>2014-10-17T15:27:52.000Z</time>
      </trkpt>
      <trkpt lat="47.29375" lon="4.93277">
        <ele>565</ele>
        <time>2014-10-17T15:27:58.000Z</time>
      </trkpt>
      <trkpt lat="47.29381" lon="4.93277">
        <ele>565.20001220703</ele>
        <time>2014-10-17T15:28:03.000Z</time>
      </trkpt>
      <trkpt lat="47.29389" lon="4.93277">
        <ele>565.59997558594</ele>
        <time>2014-10-17T15:28:10.000Z</time>
      </trkpt>
      <trkpt lat="47.29396" lon="4.93278">
        <ele>565.79998779297</ele>
        <time>2014-10-17T15:28:17.000Z</time>
      </trkpt>
      <trkpt lat="47.29397" lon="4.93278">
        <ele>565.79998779297</ele>
        <time>2014-10-17T15:28:18.000Z</time>
      </trkpt>
      <trkpt lat="47.29403" lon="4.93278">
        <ele>566</ele>
        <time>2014-10-17T15:28:22.000Z</time>
      </trkpt>
      <trkpt lat="47.29412" lon="4.93279">
        <ele>566.20001220703</ele>
        <time>2014-10-17T15:28:29.000Z</time>
      </trkpt>
      <trkpt lat="47.29414" lon="4.93279">
        <ele>566.20001220703</ele>
        <time>2014-10-17T15:28:31.000Z</time>
      </trkpt>
      <trkpt lat="47.29422" lon="4.93278">
        <ele>566.20001220703</ele>
        <time>2014-10-17T15:28:38.000Z</time>
      </trkpt>
      <trkpt lat="47.29433" lon="4.93279">
        <ele>566.40002441406</ele>
        <time>2014-10-17T15:28:45.000Z</time>
      </trkpt>
      <trkpt lat="47.29434" lon="4.93279">
        <ele>566.40002441406</ele>
        <time>2014-10-17T15:28:46.000Z</time>
      </trkpt>
      <trkpt lat="47.29445" lon="4.93281">
        <ele>566.20001220703</ele>
        <time>2014-10-17T15:28:53.000Z</time>
      </trkpt>
      <trkpt lat="47.29448" lon="4.93282">
        <ele>566.20001220703</ele>
        <time>2014-10-17T15:28:55.000Z</time>
      </trkpt>
      <trkpt lat="47.29455" lon="4.93283">
        <ele>566.20001220703</ele>
        <time>2014-10-17T15:29:00.000Z</time>
      </trkpt>
      <trkpt lat="47.29463" lon="4.93284">
        <ele>566.20001220703</ele>
        <time>2014-10-17T15:29:05.000Z</time>
      </trkpt>
      <trkpt lat="47.29465" lon="4.93284">
        <ele>566.20001220703</ele>
        <time>2014-10-17T15:29:07.000Z</time>
      </trkpt>
      <trkpt lat="47.29467" lon="4.93284">
        <ele>566.20001220703</ele>
        <time>2014-10-17T15:29:09.000Z</time>
      </trkpt>
      <trkpt lat="47.29475" lon="4.93286">
        <ele>566.20001220703</ele>
        <time>2014-10-17T15:29:15.000Z</time>
      </trkpt>
      <trkpt lat="47.29487" lon="4.93289">
        <ele>566</ele>
        <time>2014-10-17T15:29:23.000Z</time>
      </trkpt>
      <trkpt lat="47.29495" lon="4.9329">
        <ele>566</ele>
        <time>2014-10-17T15:29:28.000Z</time>
      </trkpt>
      <trkpt lat="47.29506" lon="4.9329">
        <ele>566.20001220703</ele>
        <time>2014-10-17T15:29:36.000Z</time>
      </trkpt>
      <trkpt lat="47.29509" lon="4.9329">
        <ele>566.20001220703</ele>
        <time>2014-10-17T15:29:38.000Z</time>
      </trkpt>
      <trkpt lat="47.29518" lon="4.93292">
        <ele>566.20001220703</ele>
        <time>2014-10-17T15:29:44.000Z</time>
      </trkpt>
      <trkpt lat="47.29524" lon="4.93292">
        <ele>566.20001220703</ele>
        <time>2014-10-17T15:29:48.000Z</time>
      </trkpt>
      <trkpt lat="47.29534" lon="4.93294">
        <ele>566.20001220703</ele>
        <time>2014-10-17T15:29:54.000Z</time>
      </trkpt>
      <trkpt lat="47.29542" lon="4.93296">
        <ele>566.20001220703</ele>
        <time>2014-10-17T15:29:59.000Z</time>
      </trkpt>
      <trkpt lat="47.2955" lon="4.93297">
        <ele>566.20001220703</ele>
        <time>2014-10-17T15:30:05.000Z</time>
      </trkpt>
      <trkpt lat="47.29558" lon="4.93299">
        <ele>566</ele>
        <time>2014-10-17T15:30:11.000Z</time>
      </trkpt>
      <trkpt lat="47.29566" lon="4.93301">
        <ele>566</ele>
        <time>2014-10-17T15:30:16.000Z</time>
      </trkpt>
      <trkpt lat="47.2959" lon="4.93307">
        <ele>565.79998779297</ele>
        <time>2014-10-17T15:30:32.000Z</time>
      </trkpt>
      <trkpt lat="47.29599" lon="4.9331">
        <ele>565.40002441406</ele>
        <time>2014-10-17T15:30:39.000Z</time>
      </trkpt>
      <trkpt lat="47.29601" lon="4.9331">
        <ele>565.40002441406</ele>
        <time>2014-10-17T15:30:40.000Z</time>
      </trkpt>
      <trkpt lat="47.29607" lon="4.93312">
        <ele>565.40002441406</ele>
        <time>2014-10-17T15:30:45.000Z</time>
      </trkpt>
      <trkpt lat="47.29609" lon="4.93312">
        <ele>565.20001220703</ele>
        <time>2014-10-17T15:30:46.000Z</time>
      </trkpt>
      <trkpt lat="47.29615" lon="4.93314">
        <ele>565.20001220703</ele>
        <time>2014-10-17T15:30:51.000Z</time>
      </trkpt>
      <trkpt lat="47.29629" lon="4.93319">
        <ele>564.79998779297</ele>
        <time>2014-10-17T15:31:00.000Z</time>
      </trkpt>
      <trkpt lat="47.29632" lon="4.9332">
        <ele>564.79998779297</ele>
        <time>2014-10-17T15:31:02.000Z</time>
      </trkpt>
      <trkpt lat="47.29638" lon="4.93321">
        <ele>564.79998779297</ele>
        <time>2014-10-17T15:31:06.000Z</time>
      </trkpt>
      <trkpt lat="47.2965" lon="4.93322">
        <ele>564.79998779297</ele>
        <time>2014-10-17T15:31:13.000Z</time>
      </trkpt>
      <trkpt lat="47.2966" lon="4.93324">
        <ele>564.79998779297</ele>
        <time>2014-10-17T15:31:20.000Z</time>
      </trkpt>
      <trkpt lat="47.29663" lon="4.93325">
        <ele>564.59997558594</ele>
        <time>2014-10-17T15:31:22.000Z</time>
      </trkpt>
      <trkpt lat="47.29672" lon="4.93327">
        <ele>564</ele>
        <time>2014-10-17T15:31:29.000Z</time>
      </trkpt>
      <trkpt lat="47.29674" lon="4.93329">
        <ele>563.79998779297</ele>
        <time>2014-10-17T15:31:31.000Z</time>
      </trkpt>
      <trkpt lat="47.29677" lon="4.9333">
        <ele>563.59997558594</ele>
        <time>2014-10-17T15:31:33.000Z</time>
      </trkpt>
      <trkpt lat="47.29683" lon="4.93331">
        <ele>563.20001220703</ele>
        <time>2014-10-17T15:31:38.000Z</time>
      </trkpt>
      <trkpt lat="47.29692" lon="4.93333">
        <ele>562.59997558594</ele>
        <time>2014-10-17T15:31:44.000Z</time>
      </trkpt>
      <trkpt lat="47.29699" lon="4.93334">
        <ele>562.20001220703</ele>
        <time>2014-10-17T15:31:49.000Z</time>
      </trkpt>
      <trkpt lat="47.29701" lon="4.93334">
        <ele>562</ele>
        <time>2014-10-17T15:31:51.000Z</time>
      </trkpt>
      <trkpt lat="47.29708" lon="4.93336">
        <ele>561.59997558594</ele>
        <time>2014-10-17T15:31:56.000Z</time>
      </trkpt>
      <trkpt lat="47.29709" lon="4.93335">
        <ele>561.40002441406</ele>
        <time>2014-10-17T15:31:57.000Z</time>
      </trkpt>
      <trkpt lat="47.29714" lon="4.93337">
        <ele>561</ele>
        <time>2014-10-17T15:32:00.000Z</time>
      </trkpt>
      <trkpt lat="47.29724" lon="4.93339">
        <ele>560.20001220703</ele>
        <time>2014-10-17T15:32:07.000Z</time>
      </trkpt>
      <trkpt lat="47.29726" lon="4.9334">
        <ele>560</ele>
        <time>2014-10-17T15:32:09.000Z</time>
      </trkpt>
      <trkpt lat="47.29731" lon="4.93345">
        <ele>559.40002441406</ele>
        <time>2014-10-17T15:32:19.000Z</time>
      </trkpt>
      <trkpt lat="47.29734" lon="4.9335">
        <ele>558.79998779297</ele>
        <time>2014-10-17T15:32:22.000Z</time>
      </trkpt>
      <trkpt lat="47.2974" lon="4.93357">
        <ele>557.79998779297</ele>
        <time>2014-10-17T15:32:29.000Z</time>
      </trkpt>
      <trkpt lat="47.29742" lon="4.93358">
        <ele>557.59997558594</ele>
        <time>2014-10-17T15:32:30.000Z</time>
      </trkpt>
      <trkpt lat="47.29744" lon="4.9336">
        <ele>557.20001220703</ele>
        <time>2014-10-17T15:32:32.000Z</time>
      </trkpt>
      <trkpt lat="47.29746" lon="4.93362">
        <ele>557</ele>
        <time>2014-10-17T15:32:34.000Z</time>
      </trkpt>
      <trkpt lat="47.29747" lon="4.93371">
        <ele>556.20001220703</ele>
        <time>2014-10-17T15:32:39.000Z</time>
      </trkpt>
      <trkpt lat="47.29747" lon="4.9338">
        <ele>555.20001220703</ele>
        <time>2014-10-17T15:32:45.000Z</time>
      </trkpt>
      <trkpt lat="47.29747" lon="4.93381">
        <ele>555.20001220703</ele>
        <time>2014-10-17T15:32:46.000Z</time>
      </trkpt>
      <trkpt lat="47.29746" lon="4.93384">
        <ele>554.79998779297</ele>
        <time>2014-10-17T15:32:48.000Z</time>
      </trkpt>
      <trkpt lat="47.29743" lon="4.9339">
        <ele>554.20001220703</ele>
        <time>2014-10-17T15:32:56.000Z</time>
      </trkpt>
      <trkpt lat="47.29742" lon="4.93396">
        <ele>553.59997558594</ele>
        <time>2014-10-17T15:33:00.000Z</time>
      </trkpt>
      <trkpt lat="47.29742" lon="4.93397">
        <ele>553.40002441406</ele>
        <time>2014-10-17T15:33:01.000Z</time>
      </trkpt>
      <trkpt lat="47.29742" lon="4.93409">
        <ele>552</ele>
        <time>2014-10-17T15:33:09.000Z</time>
      </trkpt>
      <trkpt lat="47.29742" lon="4.93412">
        <ele>551.59997558594</ele>
        <time>2014-10-17T15:33:11.000Z</time>
      </trkpt>
      <trkpt lat="47.29741" lon="4.93423">
        <ele>550.40002441406</ele>
        <time>2014-10-17T15:33:18.000Z</time>
      </trkpt>
      <trkpt lat="47.29739" lon="4.93432">
        <ele>549.40002441406</ele>
        <time>2014-10-17T15:33:24.000Z</time>
      </trkpt>
      <trkpt lat="47.29739" lon="4.93434">
        <ele>549.20001220703</ele>
        <time>2014-10-17T15:33:26.000Z</time>
      </trkpt>
      <trkpt lat="47.29736" lon="4.9344">
        <ele>548.59997558594</ele>
        <time>2014-10-17T15:33:30.000Z</time>
      </trkpt>
      <trkpt lat="47.29734" lon="4.93443">
        <ele>548.40002441406</ele>
        <time>2014-10-17T15:33:32.000Z</time>
      </trkpt>
      <trkpt lat="47.29732" lon="4.93447">
        <ele>548</ele>
        <time>2014-10-17T15:33:36.000Z</time>
      </trkpt>
      <trkpt lat="47.29727" lon="4.93455">
        <ele>547.40002441406</ele>
        <time>2014-10-17T15:33:43.000Z</time>
      </trkpt>
      <trkpt lat="47.29726" lon="4.93458">
        <ele>547</ele>
        <time>2014-10-17T15:33:45.000Z</time>
      </trkpt>
      <trkpt lat="47.29719" lon="4.93468">
        <ele>546</ele>
        <time>2014-10-17T15:33:52.000Z</time>
      </trkpt>
      <trkpt lat="47.29713" lon="4.93474">
        <ele>545.20001220703</ele>
        <time>2014-10-17T15:33:58.000Z</time>
      </trkpt>
      <trkpt lat="47.29709" lon="4.93482">
        <ele>544</ele>
        <time>2014-10-17T15:34:03.000Z</time>
      </trkpt>
      <trkpt lat="47.29709" lon="4.93485">
        <ele>543.59997558594</ele>
        <time>2014-10-17T15:34:05.000Z</time>
      </trkpt>
      <trkpt lat="47.29701" lon="4.93495">
        <ele>542.40002441406</ele>
        <time>2014-10-17T15:34:15.000Z</time>
      </trkpt>
      <trkpt lat="47.29695" lon="4.93501">
        <ele>541.20001220703</ele>
        <time>2014-10-17T15:34:22.000Z</time>
      </trkpt>
      <trkpt lat="47.29694" lon="4.93502">
        <ele>541</ele>
        <time>2014-10-17T15:34:23.000Z</time>
      </trkpt>
      <trkpt lat="47.29688" lon="4.93508">
        <ele>540</ele>
        <time>2014-10-17T15:34:29.000Z</time>
      </trkpt>
      <trkpt lat="47.29687" lon="4.9351">
        <ele>539.59997558594</ele>
        <time>2014-10-17T15:34:31.000Z</time>
      </trkpt>
      <trkpt lat="47.2968" lon="4.93516">
        <ele>538.59997558594</ele>
        <time>2014-10-17T15:34:36.000Z</time>
      </trkpt>
      <trkpt lat="47.29671" lon="4.93524">
        <ele>537.20001220703</ele>
        <time>2014-10-17T15:34:43.000Z</time>
      </trkpt>
      <trkpt lat="47.29662" lon="4.93531">
        <ele>536</ele>
        <time>2014-10-17T15:34:50.000Z</time>
      </trkpt>
      <trkpt lat="47.29658" lon="4.93534">
        <ele>535.20001220703</ele>
        <time>2014-10-17T15:34:53.000Z</time>
      </trkpt>
      <trkpt lat="47.29651" lon="4.9354">
        <ele>533.40002441406</ele>
        <time>2014-10-17T15:34:59.000Z</time>
      </trkpt>
      <trkpt lat="47.2965" lon="4.93542">
        <ele>533</ele>
        <time>2014-10-17T15:35:00.000Z</time>
      </trkpt>
      <trkpt lat="47.29646" lon="4.93548">
        <ele>531.40002441406</ele>
        <time>2014-10-17T15:35:05.000Z</time>
      </trkpt>
      <trkpt lat="47.29642" lon="4.93553">
        <ele>530</ele>
        <time>2014-10-17T15:35:08.000Z</time>
      </trkpt>
      <trkpt lat="47.29636" lon="4.93557">
        <ele>528.79998779297</ele>
        <time>2014-10-17T15:35:13.000Z</time>
      </trkpt>
      <trkpt lat="47.29629" lon="4.93563">
        <ele>527.20001220703</ele>
        <time>2014-10-17T15:35:19.000Z</time>
      </trkpt>
      <trkpt lat="47.29619" lon="4.9357">
        <ele>525</ele>
        <time>2014-10-17T15:35:28.000Z</time>
      </trkpt>
      <trkpt lat="47.29612" lon="4.93575">
        <ele>523.40002441406</ele>
        <time>2014-10-17T15:35:34.000Z</time>
      </trkpt>
      <trkpt lat="47.29605" lon="4.9358">
        <ele>521.59997558594</ele>
        <time>2014-10-17T15:35:39.000Z</time>
      </trkpt>
      <trkpt lat="47.29603" lon="4.93582">
        <ele>521.20001220703</ele>
        <time>2014-10-17T15:35:41.000Z</time>
      </trkpt>
      <trkpt lat="47.29598" lon="4.93584">
        <ele>520.20001220703</ele>
        <time>2014-10-17T15:35:47.000Z</time>
      </trkpt>
      <trkpt lat="47.29587" lon="4.93585">
        <ele>519</ele>
        <time>2014-10-17T15:35:53.000Z</time>
      </trkpt>
      <trkpt lat="47.29574" lon="4.93586">
        <ele>517.40002441406</ele>
        <time>2014-10-17T15:36:01.000Z</time>
      </trkpt>
      <trkpt lat="47.29563" lon="4.93585">
        <ele>516.20001220703</ele>
        <time>2014-10-17T15:36:08.000Z</time>
      </trkpt>
      <trkpt lat="47.29543" lon="4.93585">
        <ele>513.40002441406</ele>
        <time>2014-10-17T15:36:22.000Z</time>
      </trkpt>
      <trkpt lat="47.29542" lon="4.93586">
        <ele>513.20001220703</ele>
        <time>2014-10-17T15:36:23.000Z</time>
      </trkpt>
      <trkpt lat="47.29543" lon="4.93598">
        <ele>510.60000610352</ele>
        <time>2014-10-17T15:36:30.000Z</time>
      </trkpt>
      <trkpt lat="47.29545" lon="4.93603">
        <ele>509.60000610352</ele>
        <time>2014-10-17T15:36:33.000Z</time>
      </trkpt>
      <trkpt lat="47.29552" lon="4.93617">
        <ele>507.39999389648</ele>
        <time>2014-10-17T15:36:41.000Z</time>
      </trkpt>
      <trkpt lat="47.29556" lon="4.93629">
        <ele>505.60000610352</ele>
        <time>2014-10-17T15:36:48.000Z</time>
      </trkpt>
      <trkpt lat="47.29561" lon="4.93642">
        <ele>504.20001220703</ele>
        <time>2014-10-17T15:36:55.000Z</time>
      </trkpt>
      <trkpt lat="47.29563" lon="4.93645">
        <ele>503.79998779297</ele>
        <time>2014-10-17T15:36:57.000Z</time>
      </trkpt>
      <trkpt lat="47.29565" lon="4.93647">
        <ele>503.79998779297</ele>
        <time>2014-10-17T15:37:03.000Z</time>
      </trkpt>
      <trkpt lat="47.29568" lon="4.93654">
        <ele>503</ele>
        <time>2014-10-17T15:37:12.000Z</time>
      </trkpt>
      <trkpt lat="47.29574" lon="4.93667">
        <ele>501.60000610352</ele>
        <time>2014-10-17T15:37:21.000Z</time>
      </trkpt>
      <trkpt lat="47.29582" lon="4.93675">
        <ele>501</ele>
        <time>2014-10-17T15:37:27.000Z</time>
      </trkpt>
      <trkpt lat="47.2959" lon="4.93685">
        <ele>499.79998779297</ele>
        <time>2014-10-17T15:37:33.000Z</time>
      </trkpt>
      <trkpt lat="47.296" lon="4.93697">
        <ele>498.39999389648</ele>
        <time>2014-10-17T15:37:42.000Z</time>
      </trkpt>
      <trkpt lat="47.29608" lon="4.93707">
        <ele>497</ele>
        <time>2014-10-17T15:37:48.000Z</time>
      </trkpt>
      <trkpt lat="47.29621" lon="4.93721">
        <ele>494.79998779297</ele>
        <time>2014-10-17T15:37:58.000Z</time>
      </trkpt>
      <trkpt lat="47.29624" lon="4.93724">
        <ele>494.39999389648</ele>
        <time>2014-10-17T15:38:01.000Z</time>
      </trkpt>
      <trkpt lat="47.2963" lon="4.93726">
        <ele>494.20001220703</ele>
        <time>2014-10-17T15:38:07.000Z</time>
      </trkpt>
      <trkpt lat="47.29634" lon="4.93721">
        <ele>495.20001220703</ele>
        <time>2014-10-17T15:38:11.000Z</time>
      </trkpt>
      <trkpt lat="47.29645" lon="4.93711">
        <ele>497.60000610352</ele>
        <time>2014-10-17T15:38:21.000Z</time>
      </trkpt>
      <trkpt lat="47.29653" lon="4.93705">
        <ele>499</ele>
        <time>2014-10-17T15:38:27.000Z</time>
      </trkpt>
      <trkpt lat="47.29661" lon="4.93703">
        <ele>499.79998779297</ele>
        <time>2014-10-17T15:38:32.000Z</time>
      </trkpt>
      <trkpt lat="47.29664" lon="4.93701">
        <ele>500.20001220703</ele>
        <time>2014-10-17T15:38:35.000Z</time>
      </trkpt>
      <trkpt lat="47.29675" lon="4.937">
        <ele>499.79998779297</ele>
        <time>2014-10-17T15:38:43.000Z</time>
      </trkpt>
      <trkpt lat="47.29684" lon="4.93698">
        <ele>499.60000610352</ele>
        <time>2014-10-17T15:38:49.000Z</time>
      </trkpt>
      <trkpt lat="47.29695" lon="4.93696">
        <ele>499.39999389648</ele>
        <time>2014-10-17T15:38:57.000Z</time>
      </trkpt>
      <trkpt lat="47.29704" lon="4.93694">
        <ele>499.20001220703</ele>
        <time>2014-10-17T15:39:05.000Z</time>
      </trkpt>
      <trkpt lat="47.29717" lon="4.93689">
        <ele>499.39999389648</ele>
        <time>2014-10-17T15:39:13.000Z</time>
      </trkpt>
      <trkpt lat="47.2973" lon="4.93683">
        <ele>500.20001220703</ele>
        <time>2014-10-17T15:39:22.000Z</time>
      </trkpt>
      <trkpt lat="47.2974" lon="4.93678">
        <ele>500.60000610352</ele>
        <time>2014-10-17T15:39:30.000Z</time>
      </trkpt>
      <trkpt lat="47.29749" lon="4.93672">
        <ele>501.39999389648</ele>
        <time>2014-10-17T15:39:36.000Z</time>
      </trkpt>
      <trkpt lat="47.29756" lon="4.93664">
        <ele>502</ele>
        <time>2014-10-17T15:39:43.000Z</time>
      </trkpt>
      <trkpt lat="47.29767" lon="4.93655">
        <ele>502.39999389648</ele>
        <time>2014-10-17T15:39:51.000Z</time>
      </trkpt>
      <trkpt lat="47.29774" lon="4.93648">
        <ele>502.79998779297</ele>
        <time>2014-10-17T15:39:57.000Z</time>
      </trkpt>
      <trkpt lat="47.29778" lon="4.93648">
        <ele>501.79998779297</ele>
        <time>2014-10-17T15:40:03.000Z</time>
      </trkpt>
      <trkpt lat="47.29783" lon="4.93642">
        <ele>502</ele>
        <time>2014-10-17T15:40:08.000Z</time>
      </trkpt>
      <trkpt lat="47.29785" lon="4.93639">
        <ele>502.20001220703</ele>
        <time>2014-10-17T15:40:11.000Z</time>
      </trkpt>
      <trkpt lat="47.29788" lon="4.93637">
        <ele>502</ele>
        <time>2014-10-17T15:40:17.000Z</time>
      </trkpt>
      <trkpt lat="47.29791" lon="4.93634">
        <ele>501.60000610352</ele>
        <time>2014-10-17T15:40:20.000Z</time>
      </trkpt>
      <trkpt lat="47.29794" lon="4.93635">
        <ele>501</ele>
        <time>2014-10-17T15:40:27.000Z</time>
      </trkpt>
    </trkseg>
  </trk>
</gpx>